[[{"header":{"parameterUnit":"m.s-1","parameterCategory":1,"la1":30.6,"la2":29.2853,"lo1":-89.7004,"lo2":-87.6739,"dy":0.0162,"dx":0.0183,"nx":112,"ny":82,"refTime":"2024-09-14T12:00:00:Z","depth":0,"parameterNumber":2,"parameterNumberName":"U-component_of_WINDS"},"data":[0.0,0.0,0.0,0.0,0.0,0.0,0.0,0.0,0.0,0.0,0.0,0.0,0.0,0.0,0.0,0.0,0.0,0.0,0.0,0.0,0.0,0.0,0.0,0.0,0.0,0.0,0.0,0.0,0.0,0.0,0.0,0.0,0.0,0.0,0.0,0.0,0.0,0.0,0.0,0.0,0.0,0.0,0.0,0.0,0.0,0.0,0.0,0.0,0.0,0.0,0.0,0.0,0.0,0.0,0.0,0.0,0.0,0.0,0.0,0.0,0.0,0.0,0.0,0.0,0.0,0.0,0.0,0.0,0.0,0.0,0.0,0.0,0.0,0.0,0.0,0.0,0.0,0.0,0.0,0.0,0.0,0.0,0.0,0.0,0.0,0.0,0.0,0.0,0.0,0.0,-1.9655,-2.2711,-2.3745,-2.4155,-2.4056,-2.2798,-2.1528,-2.0397,0.0,0.0,0.0,0.0,0.0,0.0,0.0,0.0,0.0,0.0,0.0,0.0,0.0,0.0,0.0,0.0,0.0,0.0,0.0,0.0,0.0,0.0,0.0,0.0,0.0,0.0,0.0,0.0,0.0,0.0,0.0,0.0,0.0,0.0,0.0,0.0,0.0,0.0,0.0,0.0,0.0,0.0,0.0,0.0,0.0,0.0,0.0,0.0,0.0,0.0,0.0,0.0,0.0,0.0,0.0,0.0,0.0,0.0,0.0,0.0,0.0,0.0,0.0,0.0,0.0,0.0,0.0,0.0,0.0,0.0,0.0,0.0,0.0,0.0,0.0,0.0,0.0,0.0,0.0,0.0,0.0,0.0,0.0,0.0,0.0,0.0,0.0,0.0,0.0,0.0,0.0,0.0,0.0,0.0,0.0,0.0,0.0,0.0,0.0,0.0,0.0,0.0,0.0,0.0,-2.0004,-2.2873,-2.33,-2.327,-2.2971,-2.2363,-2.129,-1.9671,0.0,0.0,0.0,0.0,0.0,0.0,0.0,0.0,0.0,0.0,0.0,0.0,0.0,0.0,0.0,0.0,0.0,0.0,0.0,0.0,0.0,0.0,0.0,0.0,0.0,0.0,0.0,0.0,0.0,0.0,0.0,0.0,0.0,0.0,0.0,0.0,0.0,0.0,0.0,0.0,0.0,0.0,0.0,0.0,0.0,0.0,0.0,0.0,0.0,0.0,0.0,0.0,0.0,0.0,0.0,0.0,0.0,0.0,0.0,0.0,0.0,0.0,0.0,0.0,0.0,0.0,0.0,0.0,0.0,0.0,0.0,0.0,0.0,0.0,0.0,0.0,0.0,0.0,0.0,0.0,0.0,0.0,0.0,0.0,0.0,0.0,0.0,0.0,0.0,0.0,0.0,0.0,0.0,0.0,0.0,0.0,0.0,0.0,0.0,0.0,0.0,0.0,0.0,-1.9767,-2.1563,-2.3041,-2.3045,-2.2873,-2.2721,-2.2283,-2.1258,-1.9501,-1.7827,0.0,0.0,0.0,0.0,0.0,0.0,0.0,0.0,0.0,0.0,0.0,0.0,0.0,0.0,0.0,0.0,0.0,0.0,0.0,0.0,0.0,0.0,0.0,0.0,0.0,0.0,0.0,0.0,0.0,0.0,0.0,0.0,0.0,0.0,0.0,0.0,0.0,0.0,0.0,0.0,0.0,0.0,0.0,0.0,0.0,0.0,0.0,0.0,0.0,0.0,0.0,0.0,0.0,0.0,0.0,0.0,0.0,0.0,0.0,0.0,0.0,0.0,0.0,0.0,0.0,0.0,0.0,0.0,0.0,0.0,0.0,0.0,0.0,0.0,0.0,0.0,0.0,0.0,0.0,0.0,0.0,0.0,0.0,0.0,0.0,0.0,0.0,0.0,0.0,0.0,0.0,0.0,0.0,0.0,0.0,0.0,0.0,0.0,0.0,0.0,0.0,0.0,-2.152,-2.278,-2.3045,-2.2848,-2.2669,-2.2625,-2.209,-2.1085,-1.9486,-1.7486,0.0,0.0,0.0,0.0,0.0,0.0,0.0,0.0,0.0,0.0,0.0,0.0,0.0,0.0,0.0,0.0,0.0,0.0,0.0,0.0,0.0,0.0,0.0,0.0,0.0,0.0,0.0,0.0,0.0,0.0,0.0,0.0,0.0,0.0,0.0,0.0,0.0,0.0,0.0,0.0,0.0,0.0,0.0,0.0,0.0,0.0,0.0,0.0,0.0,0.0,0.0,0.0,0.0,0.0,0.0,0.0,0.0,0.0,0.0,0.0,0.0,0.0,0.0,0.0,0.0,0.0,0.0,0.0,0.0,0.0,0.0,0.0,0.0,0.0,0.0,0.0,0.0,0.0,0.0,0.0,0.0,0.0,0.0,0.0,0.0,0.0,0.0,0.0,0.0,0.0,0.0,0.0,0.0,0.0,0.0,0.0,0.0,0.0,0.0,0.0,0.0,0.0,-2.147,-2.2634,-2.2746,-2.2721,-2.2599,-2.2349,-2.1556,-2.0601,-1.9456,-1.7052,0.0,0.0,0.0,0.0,0.0,0.0,0.0,0.0,0.0,0.0,0.0,0.0,0.0,0.0,0.0,0.0,0.0,0.0,0.0,0.0,0.0,0.0,0.0,0.0,0.0,0.0,0.0,0.0,0.0,0.0,0.0,0.0,0.0,0.0,0.0,0.0,0.0,0.0,0.0,0.0,0.0,0.0,0.0,0.0,0.0,0.0,0.0,0.0,0.0,0.0,0.0,0.0,0.0,0.0,0.0,0.0,0.0,0.0,0.0,0.0,0.0,0.0,0.0,0.0,0.0,0.0,0.0,0.0,0.0,0.0,0.0,0.0,0.0,0.0,0.0,0.0,0.0,0.0,0.0,0.0,0.0,0.0,0.0,0.0,0.0,0.0,0.0,0.0,0.0,0.0,0.0,0.0,0.0,0.0,0.0,0.0,0.0,0.0,0.0,0.0,0.0,0.0,-2.0734,-2.2102,0.0,-2.2436,-2.2298,-2.1899,-2.1323,-2.0436,-1.9119,0.0,0.0,0.0,0.0,0.0,0.0,0.0,0.0,0.0,0.0,0.0,0.0,0.0,0.0,0.0,0.0,0.0,0.0,0.0,0.0,0.0,0.0,0.0,0.0,0.0,0.0,0.0,0.0,0.0,0.0,0.0,0.0,0.0,0.0,0.0,0.0,0.0,0.0,0.0,0.0,0.0,0.0,0.0,0.0,0.0,0.0,0.0,0.0,0.0,0.0,0.0,0.0,0.0,0.0,0.0,0.0,0.0,0.0,0.0,0.0,0.0,0.0,0.0,0.0,0.0,0.0,0.0,0.0,0.0,0.0,0.0,0.0,0.0,0.0,0.0,0.0,0.0,0.0,0.0,0.0,0.0,0.0,0.0,0.0,0.0,0.0,0.0,0.0,0.0,0.0,0.0,0.0,0.0,0.0,0.0,0.0,0.0,0.0,0.0,0.0,0.0,0.0,-1.819,-2.0215,-2.1645,0.0,-2.218,-2.1957,-2.1628,-2.107,-2.0268,-1.9141,0.0,0.0,0.0,0.0,0.0,0.0,0.0,0.0,0.0,0.0,0.0,0.0,0.0,0.0,0.0,0.0,0.0,0.0,0.0,0.0,0.0,0.0,0.0,0.0,0.0,0.0,0.0,0.0,0.0,0.0,0.0,0.0,0.0,0.0,0.0,0.0,0.0,0.0,0.0,0.0,0.0,0.0,0.0,0.0,0.0,0.0,0.0,0.0,0.0,0.0,0.0,0.0,0.0,0.0,0.0,0.0,0.0,0.0,0.0,0.0,0.0,0.0,0.0,0.0,0.0,0.0,0.0,0.0,0.0,0.0,0.0,0.0,0.0,0.0,0.0,0.0,0.0,0.0,0.0,0.0,0.0,0.0,0.0,0.0,0.0,0.0,0.0,0.0,0.0,0.0,0.0,0.0,0.0,0.0,0.0,0.0,0.0,0.0,0.0,0.0,0.0,0.0,-1.812,-1.9943,-2.1323,-2.218,-2.1869,-2.1598,-2.1582,-2.0797,-2.0093,0.0,0.0,0.0,0.0,0.0,0.0,0.0,0.0,0.0,0.0,0.0,0.0,0.0,0.0,0.0,0.0,0.0,0.0,0.0,0.0,0.0,0.0,0.0,0.0,0.0,0.0,0.0,0.0,0.0,0.0,0.0,0.0,0.0,0.0,0.0,0.0,0.0,0.0,0.0,0.0,0.0,0.0,0.0,0.0,0.0,0.0,0.0,0.0,0.0,0.0,0.0,0.0,0.0,0.0,0.0,0.0,0.0,0.0,0.0,0.0,0.0,0.0,0.0,0.0,0.0,0.0,0.0,0.0,0.0,0.0,0.0,0.0,0.0,0.0,0.0,0.0,0.0,0.0,0.0,0.0,0.0,0.0,0.0,0.0,0.0,0.0,0.0,0.0,0.0,0.0,0.0,0.0,0.0,0.0,0.0,0.0,0.0,0.0,0.0,0.0,0.0,0.0,0.0,-1.6395,-1.8869,-2.0685,-2.1323,-2.1507,-2.1352,-2.0748,-2.0449,-1.9798,-1.8622,0.0,0.0,0.0,0.0,0.0,0.0,0.0,0.0,0.0,0.0,0.0,0.0,0.0,0.0,0.0,0.0,0.0,0.0,0.0,0.0,0.0,0.0,0.0,0.0,0.0,0.0,0.0,0.0,0.0,0.0,0.0,0.0,0.0,0.0,0.0,0.0,0.0,0.0,0.0,0.0,0.0,0.0,0.0,0.0,0.0,0.0,0.0,0.0,0.0,0.0,0.0,0.0,0.0,0.0,0.0,0.0,0.0,0.0,0.0,0.0,0.0,0.0,0.0,0.0,0.0,0.0,0.0,0.0,0.0,0.0,0.0,0.0,0.0,0.0,0.0,0.0,0.0,0.0,0.0,0.0,0.0,0.0,0.0,0.0,0.0,0.0,0.0,0.0,0.0,0.0,0.0,0.0,0.0,0.0,0.0,0.0,0.0,0.0,0.0,0.0,0.0,0.0,-1.6023,-1.8458,-2.0218,-2.0926,-2.1039,-2.0862,-2.0348,-1.9954,-1.9368,-1.8496,0.0,0.0,0.0,0.0,0.0,0.0,0.0,0.0,0.0,0.0,0.0,0.0,0.0,0.0,0.0,0.0,0.0,0.0,0.0,0.0,0.0,0.0,0.0,0.0,0.0,0.0,0.0,0.0,0.0,0.0,0.0,0.0,0.0,0.0,0.0,0.0,0.0,0.0,0.0,0.0,0.0,0.0,0.0,0.0,0.0,0.0,0.0,0.0,0.0,0.0,0.0,0.0,0.0,0.0,0.0,0.0,0.0,0.0,0.0,0.0,0.0,0.0,0.0,0.0,0.0,0.0,0.0,0.0,0.0,0.0,0.0,0.0,0.0,0.0,0.0,0.0,0.0,0.0,0.0,0.0,0.0,0.0,0.0,0.0,0.0,0.0,0.0,0.0,0.0,0.0,0.0,0.0,0.0,0.0,0.0,0.0,0.0,0.0,0.0,0.0,0.0,0.0,-1.6319,-1.8295,-1.9768,-2.0634,-2.04,-2.0162,-2.0093,-1.931,-1.8817,-1.8727,0.0,0.0,0.0,0.0,0.0,0.0,0.0,0.0,0.0,0.0,0.0,0.0,0.0,0.0,0.0,0.0,0.0,0.0,0.0,0.0,0.0,0.0,0.0,0.0,0.0,0.0,0.0,0.0,0.0,0.0,0.0,0.0,0.0,0.0,0.0,0.0,0.0,0.0,0.0,0.0,0.0,0.0,0.0,0.0,0.0,0.0,0.0,0.0,0.0,0.0,0.0,0.0,0.0,0.0,0.0,0.0,0.0,0.0,0.0,0.0,-2.116,0.0,0.0,0.0,0.0,0.0,0.0,0.0,0.0,0.0,0.0,0.0,0.0,0.0,0.0,0.0,0.0,0.0,0.0,0.0,0.0,0.0,0.0,0.0,0.0,0.0,0.0,0.0,0.0,0.0,0.0,0.0,0.0,0.0,0.0,0.0,0.0,0.0,0.0,0.0,0.0,0.0,-1.4854,-1.6952,-1.845,-1.8707,-1.8956,-1.8956,-1.8622,-1.8405,-1.8106,-1.7666,-1.6983,0.0,0.0,0.0,0.0,0.0,0.0,0.0,0.0,0.0,0.0,0.0,0.0,0.0,0.0,0.0,0.0,0.0,0.0,0.0,0.0,0.0,0.0,0.0,0.0,0.0,0.0,0.0,0.0,0.0,0.0,0.0,0.0,0.0,0.0,0.0,0.0,0.0,0.0,0.0,0.0,0.0,0.0,0.0,0.0,0.0,0.0,0.0,0.0,0.0,0.0,0.0,0.0,0.0,0.0,0.0,0.0,0.0,0.0,0.0,0.0,-2.3247,0.0,0.0,0.0,0.0,0.0,0.0,0.0,0.0,0.0,0.0,0.0,0.0,0.0,0.0,0.0,0.0,0.0,0.0,0.0,0.0,0.0,0.0,0.0,0.0,0.0,0.0,0.0,0.0,0.0,0.0,0.0,0.0,0.0,0.0,0.0,0.0,0.0,0.0,0.0,0.0,-1.528,-1.6725,-1.7786,-1.8052,-1.8313,-1.8377,-1.8131,-1.7867,-1.7585,-1.7312,-1.6476,0.0,0.0,0.0,0.0,0.0,0.0,0.0,0.0,0.0,0.0,0.0,0.0,0.0,0.0,0.0,0.0,0.0,0.0,0.0,0.0,0.0,0.0,0.0,0.0,0.0,0.0,0.0,0.0,0.0,0.0,0.0,0.0,0.0,0.0,0.0,0.0,0.0,0.0,0.0,0.0,0.0,0.0,0.0,0.0,0.0,0.0,0.0,0.0,0.0,0.0,0.0,0.0,0.0,-2.7145,-2.7482,-2.7055,-2.7507,-2.772,-2.767,-2.6728,-2.644,-2.649,-2.5034,0.0,0.0,0.0,0.0,0.0,0.0,0.0,0.0,0.0,0.0,0.0,0.0,0.0,0.0,0.0,0.0,0.0,0.0,0.0,0.0,0.0,0.0,0.0,0.0,-2.0919,-2.0906,0.0,0.0,0.0,0.0,0.0,0.0,0.0,0.0,0.0,0.0,0.0,0.0,-1.5903,-1.6532,-1.7079,-1.7599,-1.7679,-1.7693,-1.7814,-1.7435,-1.7105,-1.7008,-1.6034,-1.5163,0.0,0.0,0.0,0.0,0.0,0.0,0.0,0.0,0.0,0.0,0.0,0.0,0.0,0.0,0.0,0.0,0.0,0.0,0.0,0.0,0.0,0.0,0.0,0.0,0.0,0.0,0.0,0.0,0.0,0.0,0.0,0.0,-0.7621,-0.7148,0.0,0.0,0.0,0.0,0.0,0.0,0.0,0.0,0.0,0.0,0.0,0.0,0.0,-2.4511,-2.5731,-2.6713,-2.7572,-2.845,-2.9101,-2.9428,-2.9365,-2.9428,-2.9465,-2.9453,-2.9302,0.0,-2.7118,-2.6414,0.0,0.0,0.0,0.0,0.0,0.0,0.0,0.0,0.0,0.0,0.0,0.0,0.0,0.0,0.0,0.0,0.0,0.0,0.0,0.0,0.0,0.0,-2.28,-2.2432,-2.2134,-2.1663,0.0,-1.9639,-1.8539,-1.7662,-1.6613,0.0,0.0,0.0,0.0,0.0,0.0,0.0,-1.4824,-1.5005,-1.5264,-1.5884,-1.5928,-1.6157,-1.6667,-1.6637,-1.6355,-1.5852,-1.5171,-1.454,-1.3956,-1.3691,0.0,0.0,0.0,0.0,0.0,0.0,0.0,0.0,0.0,0.0,0.0,0.0,0.0,0.0,0.0,0.0,0.0,0.0,0.0,0.0,0.0,0.0,0.0,0.0,0.0,0.0,0.0,0.0,0.0,-0.6619,-0.7833,-0.7954,-0.7895,-0.797,0.0,0.0,0.0,0.0,0.0,0.0,0.0,0.0,0.0,-2.4855,-2.5721,-2.6776,-2.8124,-2.8605,-2.9006,-2.9415,-2.9666,-2.9792,-2.9792,-2.9118,-2.8858,-2.8767,-2.8211,-2.749,-2.6872,-2.7273,-2.6141,-2.4181,0.0,0.0,0.0,0.0,-2.0059,-2.0078,-2.0625,-2.1205,0.0,-2.0579,0.0,0.0,0.0,0.0,0.0,0.0,0.0,0.0,0.0,0.0,0.0,-2.1188,-2.098,-2.069,-2.0103,-1.9298,-1.84,0.0,-1.7249,-1.6516,-1.5106,0.0,0.0,0.0,0.0,-1.4339,-1.496,-1.482,-1.4789,-1.5062,-1.5096,-1.5197,-1.5478,-1.5478,-1.5389,-1.5096,-1.455,-1.4089,-1.3815,-1.3611,-1.3048,0.0,0.0,0.0,0.0,0.0,0.0,0.0,0.0,0.0,0.0,0.0,0.0,0.0,0.0,0.0,0.0,0.0,0.0,0.0,0.0,0.0,0.0,0.0,0.0,0.0,0.0,0.0,0.0,-0.6271,-0.8247,-0.8443,-0.9087,-0.9651,0.0,0.0,0.0,0.0,0.0,0.0,-2.1517,-2.2945,-2.4704,-2.7071,-2.7722,-2.8623,-2.9792,-2.9792,-2.9792,-2.9792,-2.9534,-2.9365,-2.9365,-2.8187,-2.7683,-2.7683,-2.6883,-2.6483,-2.658,-2.7198,-2.6352,-2.4567,-2.3774,-2.2537,-2.1312,-2.135,-2.126,-2.1191,-2.2051,-2.2469,-2.25,-2.1402,0.0,-2.0894,-1.9021,0.0,0.0,0.0,0.0,-1.9111,-1.9746,-1.9912,-1.9883,-1.9775,-1.9668,-1.9502,-1.9189,-1.8779,-1.832,0.0,-1.7783,-1.7363,-1.584,0.0,0.0,0.0,0.0,-1.4401,-1.498,-1.4577,-1.4294,-1.4468,-1.4468,-1.4514,-1.4709,-1.4698,-1.4652,-1.4468,-1.4039,-1.3711,-1.36,-1.3428,-1.2766,-1.1587,0.0,0.0,0.0,0.0,0.0,0.0,0.0,0.0,0.0,0.0,0.0,0.0,0.0,0.0,0.0,0.0,0.0,0.0,0.0,0.0,0.0,0.0,0.0,0.0,0.0,0.0,0.0,0.0,0.0,-0.9097,-1.0462,0.0,0.0,0.0,0.0,-1.6232,-1.8326,-2.0866,-2.3865,-2.5081,-2.636,-2.7989,-2.9135,-2.9677,-2.9792,-2.9792,-2.9792,-2.9792,-2.8688,-2.8176,-2.8176,-2.7046,-2.6554,-2.6554,-2.6554,-2.6483,-2.6438,-2.5981,-2.5665,-2.5347,-2.3908,-2.3259,-2.3029,-2.2227,-2.209,-2.2373,-2.2031,-2.2148,-2.2526,-2.2422,-2.1562,-2.0517,-1.9961,-1.9248,0.0,0.0,-1.9853,-1.9863,-1.9902,-1.9912,-1.9814,-1.9414,-1.9004,-1.8691,-1.8672,-1.834,-1.8144,0.0,-1.7949,-1.7119,-1.6253,0.0,-1.5345,-1.5111,-1.4235,-1.374,-1.4351,-1.3598,-1.319,-1.3779,-1.3862,-1.4097,-1.4652,-1.4698,-1.4468,-1.3862,-1.381,-1.3538,-1.2968,-1.2941,-1.2738,-1.2254,-1.1383,0.0,0.0,0.0,0.0,0.0,0.0,0.0,0.0,0.0,0.0,0.0,0.0,0.0,0.0,0.0,0.0,0.0,0.0,0.0,0.0,0.0,0.0,0.0,0.0,0.0,0.0,0.0,0.0,-1.1357,-1.2966,0.0,-1.413,-1.593,-1.7613,-1.892,-1.996,-2.1711,-2.443,-2.4965,-2.5777,-2.7035,-2.7464,-2.7718,-2.7718,-2.7718,-2.7718,-2.7637,-2.729,-2.7046,-2.7046,-2.588,-2.5378,-2.5378,-2.4638,-2.4307,-2.4296,-2.4047,-2.4377,-2.5016,-2.444,-2.3813,-2.3168,-2.2771,-2.2783,-2.2852,-2.2432,-2.2383,-2.2422,-2.1865,-2.1182,-2.0537,-2.0381,-2.0117,-1.9941,-2.0244,-2.0127,-1.9912,-1.9912,-1.9717,-1.9404,-1.8975,-1.875,-1.8564,-1.8291,-1.79,-1.7656,-1.7803,-1.7588,-1.7197,-1.6592,-1.6123,-1.5753,-1.5322,-1.4464,-1.3959,-1.42,-1.3451,-1.2968,-1.32,-1.3238,-1.3286,-1.3525,-1.3525,-1.343,-1.3238,-1.2793,-1.2434,-1.2187,-1.207,-1.1751,-1.1289,-1.1015,-1.0329,0.0,0.0,0.0,0.0,0.0,0.0,0.0,0.0,0.0,0.0,0.0,0.0,0.0,0.0,0.0,0.0,0.0,0.0,0.0,0.0,0.0,0.0,0.0,0.0,0.0,-1.1466,-1.2417,-1.3428,-1.5445,-1.681,-1.6939,-1.8501,-1.9817,-2.0603,-2.1299,-2.2438,-2.4104,-2.4628,-2.5126,-2.5891,-2.6307,-2.6483,-2.6483,-2.6483,-2.6483,-2.6483,-2.6141,-2.5975,-2.5891,-2.4713,-2.4211,-2.4211,-2.3474,-2.3135,-2.3125,-2.2988,-2.3332,-2.4006,-2.4149,-2.38,-2.3125,-2.2978,-2.293,-2.2861,-2.2441,-2.2305,-2.2094,-2.1039,-2.0697,-2.0683,-2.0205,-2.0323,-2.0537,-2.0391,-2.0137,-1.9853,-1.9561,-1.9277,-1.8955,-1.8525,-1.832,-1.8135,-1.7861,-1.7461,-1.7168,-1.7168,-1.7168,-1.7021,-1.6582,-1.626,-1.5869,-1.5293,-1.459,-1.4029,-1.3945,-1.3311,-1.2881,-1.2881,-1.2881,-1.2881,-1.2881,-1.2881,-1.2881,-1.2881,-1.2187,-1.1814,-1.1814,-1.1377,-1.0942,-1.0572,-1.0243,-0.9462,-0.8213,0.0,0.0,0.0,0.0,0.0,0.0,0.0,0.0,0.0,0.0,0.0,0.0,0.0,0.0,0.0,0.0,0.0,0.0,0.0,0.0,0.0,0.0,0.0,-1.0174,-1.3169,-1.5301,-1.5233,-1.7771,-1.9447,-1.9187,-2.0536,-2.1391,-2.1391,-2.2403,-2.3135,-2.3135,-2.4125,-2.4787,-2.4787,-2.5797,-2.6389,-2.6389,-2.6389,-2.6389,-2.6389,-2.5294,-2.4787,-2.4702,-2.3617,-2.3125,-2.3135,-2.3105,-2.3105,-2.3086,-2.2666,-2.249,-2.2539,-2.2939,-2.3096,-2.3047,-2.2646,-2.248,-2.2327,-2.1919,-2.1773,-2.152,-1.9989,-2.0195,-2.0803,-1.9402,-1.9668,-2.0449,-1.9954,-1.9817,-1.9678,-1.8848,-1.8623,-1.8516,-1.8086,-1.7676,-1.7383,-1.7363,-1.7021,-1.6709,-1.6709,-1.6699,-1.6562,-1.6133,-1.6115,-1.5811,-1.4912,-1.4414,0.0,-1.3555,-1.3145,-1.2881,-1.2881,-1.2881,-1.2891,-1.29,-1.29,-1.29,-1.29,-1.2157,-1.1733,-1.1733,-1.0809,-1.0268,-1.0228,-0.9006,-0.8085,-0.748,0.0,0.0,0.0,0.0,0.0,0.0,0.0,0.0,0.0,0.0,0.0,0.0,0.0,0.0,0.0,0.0,0.0,0.0,0.0,0.0,0.0,-1.2054,-1.4174,-1.4174,-1.4913,-1.5798,-1.6897,-1.9282,-2.0819,-2.0695,-2.1878,-2.2589,-2.2589,-2.295,-2.3135,-2.3135,-2.3387,-2.3551,-2.3551,-2.3887,-2.4059,-2.4059,-2.4059,-2.4059,-2.4059,-2.3714,-2.3551,-2.3541,-2.2908,-2.2852,-2.3105,-2.249,-2.2402,-2.2656,-2.2236,-2.206,-2.207,-2.2187,-2.2227,-2.2217,-2.21,-2.1329,-2.0274,-1.9419,-1.8859,-1.8525,-1.8096,-1.8143,-1.8288,-1.7853,-1.8268,-1.8893,-1.8782,-1.8862,-1.8936,-1.863,-1.8408,-1.8076,-1.7656,-1.7471,-1.7295,-1.6982,-1.6562,-1.625,-1.625,-1.5996,-1.584,-1.6035,-1.5801,-1.541,-1.4863,-1.4414,0.0,-1.3555,-1.3145,-1.2881,-1.2881,-1.2881,-1.3008,-1.3311,-1.2814,-1.2507,-1.26,-1.1435,-1.0698,-1.0698,-0.9944,-0.9419,-0.9229,-0.7963,-0.7173,0.0,0.0,0.0,0.0,0.0,0.0,0.0,0.0,0.0,0.0,0.0,0.0,0.0,0.0,0.0,0.0,0.0,0.0,0.0,0.0,0.0,0.0,-1.3221,-1.514,-1.5735,-1.6014,-1.6569,-1.7346,-1.9052,-2.0175,-2.0323,-2.0979,-2.1502,-2.1578,-2.1587,-2.1587,-2.1587,-2.1587,-2.1854,-2.2306,-2.1854,-2.1854,-2.2306,-2.2315,-2.2129,-2.1587,-2.1961,-2.1876,-2.142,-2.1016,-2.0961,0.0,-2.0695,-2.0622,-2.0805,-2.0411,-2.0246,0.0,0.0,0.0,0.0,0.0,-1.998,-1.8551,-1.7903,-1.7516,-1.7253,-1.6764,-1.6823,-1.7023,-1.6629,-1.6926,-1.7447,-1.729,-1.7376,-1.7413,-1.7248,-1.6917,-1.6551,-1.6321,-1.601,-1.5707,-1.5469,-1.5093,-1.4799,-1.4799,-1.4556,0.0,-1.4763,-1.5153,-1.5205,-1.4609,-1.4297,-1.3863,-1.332,-1.3037,-1.2774,-1.2452,-1.2452,-1.2398,-1.2369,-1.2078,0.0,0.0,0.0,-1.0416,-1.0215,-0.9413,0.0,0.0,0.0,0.0,0.0,0.0,0.0,0.0,-0.5859,-0.5958,0.0,0.0,0.0,0.0,0.0,0.0,0.0,0.0,0.0,0.0,0.0,0.0,0.0,0.0,0.0,0.0,-1.3429,-1.4384,-1.5556,-1.6416,-1.7026,-1.7153,-1.8018,-1.8712,-1.9046,-1.9121,-1.9181,-1.9406,-1.9472,-1.9497,-1.9497,0.0,0.0,0.0,0.0,-2.0034,-2.1114,-2.1069,-2.0506,-1.943,-2.0219,-2.0035,-1.9062,-1.8696,-1.8546,-1.8579,-1.8496,-1.8487,-1.8496,-1.8054,-1.7821,-1.7854,-1.934,-2.0514,-2.1177,-1.9688,-1.8318,-1.7033,-1.6952,0.0,0.0,-1.5755,-1.5867,-1.6323,-1.5317,-1.5537,-1.6096,-1.5708,-1.5667,-1.5624,-1.5267,-1.4927,-1.4662,-1.4579,-1.4073,-1.3592,-1.3551,-1.3232,-1.3009,-1.3009,-1.2976,-1.2943,-1.2943,-1.4177,-1.4821,-1.3978,-1.3853,-1.3556,-1.2782,-1.2666,-1.2403,-1.1765,0.0,0.0,-1.0922,-1.1112,-1.1263,-1.1263,-1.077,-1.0348,-0.9979,-0.8951,-0.8687,-0.922,-0.7516,-0.6832,-0.7178,-0.6392,-0.6103,-0.6342,-0.6006,-0.6195,0.0,0.0,0.0,0.0,0.0,0.0,0.0,0.0,0.0,0.0,0.0,0.0,0.0,0.0,0.0,-1.2969,-1.4476,-1.5396,-1.5504,-1.5406,-1.5826,-1.7041,-1.8018,-1.8612,-1.8687,-1.8962,-1.9074,-1.9148,-1.9422,-1.9497,-1.9497,-1.9497,-1.9588,-1.9852,-1.9579,-1.9579,-1.9852,-1.9647,-1.9423,-1.9148,0.0,0.0,-1.8679,-1.8321,-1.8312,-1.8554,-1.7879,-1.7796,-1.8045,-1.7598,-1.695,-1.6291,-1.7425,-1.804,-1.8031,-1.6884,-1.6157,-1.5549,-1.46,-1.4209,-1.3919,-1.3767,-1.3798,-1.3908,-1.3677,-1.4065,0.0,-1.4553,-1.4919,-1.5251,-1.4886,-1.4736,-1.4537,-1.3949,-1.37,-1.3526,-1.3174,-1.3058,-1.3009,-1.3009,-1.2837,-1.2697,-1.2697,-1.3109,-1.3228,-1.2458,-1.2338,-1.2064,-1.1319,-1.1225,-1.1174,-1.1015,-1.1015,-1.1082,-1.1331,-1.1052,-1.0864,-1.0969,-0.9813,-0.9108,-0.904,-0.8011,-0.7362,-0.741,-0.6709,-0.6334,-0.628,-0.6222,-0.6338,-0.6433,-0.6319,-0.635,0.0,0.0,0.0,0.0,0.0,0.0,0.0,0.0,0.0,0.0,0.0,-0.7064,-0.8459,0.0,-1.0685,-1.2216,-1.314,-1.3738,-1.3614,-1.3259,-1.3773,-1.5616,-1.6139,-1.6435,-1.6515,-1.668,-1.6913,-1.7244,-1.7333,-1.7497,-1.7654,-1.7662,-1.794,-1.8596,-1.7873,-1.7781,-1.8312,-1.8063,-1.7632,-1.7026,-1.7282,-1.7118,-1.6515,-1.6192,-1.6132,-1.6352,-1.586,-1.5808,-1.6034,-1.5786,-1.5292,-1.466,-1.5227,-1.5464,-1.5464,-1.5457,-1.494,-1.4207,-1.3581,-1.3333,-1.3213,-1.3213,-1.3106,-1.2979,-1.2979,-1.3141,-1.3259,-1.3259,-1.339,-1.3525,-1.3352,-1.3066,-1.2743,-1.2405,-1.221,-1.2044,-1.1824,-1.1787,-1.1735,-1.157,-1.1466,-1.13,-1.1143,-1.1248,-1.1414,-1.1658,-1.1685,-1.1486,-1.0887,-1.0813,-1.0661,-1.0364,-1.0312,-1.0236,-1.0151,-1.019,-1.0371,-1.0742,-0.9674,-0.9121,-0.925,-0.7807,-0.7007,-0.7072,-0.6506,-0.613,-0.6029,-0.621,-0.6338,-0.6426,-0.6312,-0.6443,0.0,0.0,0.0,0.0,0.0,0.0,0.0,-0.6407,-0.64,-0.6573,-0.6705,-0.7204,-0.8707,-0.9268,-0.9895,-1.1308,-1.1635,-1.1619,-1.1579,-1.1312,-1.1657,-1.3467,-1.3579,-1.3474,-1.3697,-1.3767,-1.4078,-1.4532,-1.4615,-1.4743,-1.4967,-1.498,-1.5538,-1.675,-1.5602,-1.5467,-1.6425,-1.6396,-1.5722,-1.4596,-1.549,-1.5348,-1.4429,-1.4195,-1.4088,-1.4082,-1.4021,-1.4001,-1.3995,-1.3941,-1.3774,-1.3561,-1.3561,-1.352,-1.3554,-1.4554,-1.4144,-1.312,-1.312,-1.3086,-1.3033,-1.3033,-1.2866,-1.2735,-1.2735,-1.2492,-1.2291,-1.2231,-1.2051,-1.1844,-1.173,-1.1349,-1.0982,-1.0922,-1.0728,-1.0611,-1.0551,-1.0474,-1.0388,-1.0087,-0.9987,-0.9873,-0.9639,-0.9552,-0.989,-1.0917,-1.1046,-1.0918,-1.0462,-1.0415,-1.0218,-0.9666,-0.9614,-0.9411,-0.9018,-0.9246,-0.9689,-1.0325,-0.9348,-0.8851,-0.9092,-0.7527,-0.6733,-0.6945,-0.635,-0.5979,-0.5979,-0.617,-0.6264,-0.6264,-0.6264,-0.6423,-0.3592,-0.3456,-0.3463,-0.3339,-0.3245,-0.3898,0.0,-0.6783,-0.6676,-0.695,-0.7007,-0.7489,-0.9003,-0.9255,-0.9795,-1.1273,-1.1492,-1.1425,-1.1225,-1.0973,-1.0823,-1.0879,-1.0931,-1.0966,-1.0992,-1.1268,-1.1499,-1.1552,-1.1834,-1.1962,-1.1989,-1.1994,-1.2545,-1.3659,-1.3544,-1.3532,-1.3616,-1.4432,-1.4193,-1.3027,-1.3906,-1.4298,-1.4135,-1.4102,-1.4088,-1.4075,-1.3808,-1.3694,-1.3674,-1.3414,-1.3293,-1.326,-1.326,-1.3093,-1.2956,-1.3311,-1.3216,-1.2876,-1.2876,-1.2625,-1.2405,-1.2405,-1.2378,-1.2351,-1.2351,-1.2325,-1.2245,-1.1991,-1.1897,-1.175,-1.1229,-1.1042,-1.0929,-1.0668,-1.0651,-1.0551,-1.0221,-1.0167,-1.008,-0.9786,-0.9519,-0.9269,-0.9236,-0.9078,-0.9032,-0.9419,-0.9453,-0.9343,-0.9049,-0.9008,-0.9008,-0.891,-0.891,-0.9126,-0.9539,-0.8833,-0.8651,-0.9418,-0.7716,-0.6817,-0.7003,-0.6184,-0.5734,-0.5818,-0.5901,-0.5979,-0.5979,-0.6203,-0.6278,-0.6278,-0.6278,-0.6352,-0.0648,-0.1292,-0.1289,-0.1311,-0.1244,-0.1432,-0.2701,-0.3984,-0.5251,-0.677,-0.7122,-0.7276,-0.7871,-0.8135,-0.8467,-0.9072,-0.9091,-0.9088,-0.8997,-0.8732,-0.8524,-0.8361,-0.8341,-0.8897,-1.0329,-1.0585,-1.0835,-1.1102,-1.121,-1.1318,-1.1446,-1.1548,-1.1731,-1.2193,-1.2062,-1.1986,-1.1986,-1.219,-1.1973,-1.1532,-1.1871,-1.2083,-1.2083,-1.2083,-1.2348,-1.2862,-1.3183,-1.3394,-1.3387,-1.326,-1.3106,-1.2939,-1.2939,-1.2752,-1.2525,-1.2826,-1.2752,-1.2485,-1.2485,-1.2405,-1.2305,-1.2305,-1.2305,-1.2271,-1.2098,-1.2051,-1.1984,-1.1697,-1.149,-1.1303,-1.1056,-1.0868,-1.0715,-1.0651,-1.0624,-1.0591,-1.0401,-1.0241,-1.0027,-0.974,-0.9446,-0.913,-0.9018,-0.8884,-0.8844,-0.8971,-0.8985,-0.8945,-0.8824,-0.8804,-0.8804,-0.8804,-0.8427,-0.8317,-0.8814,-0.8126,-0.7871,-0.8368,-0.7227,-0.6638,-0.6715,-0.5948,-0.5457,-0.5457,-0.5744,-0.5827,-0.5842,-0.616,-0.5653,-0.4457,-0.4462,-0.4462,0.2544,0.0886,-0.0,-0.0,-0.0,-0.0,-0.0,-0.1373,-0.3091,-0.4822,-0.567,-0.6174,-0.6174,-0.6332,-0.6471,-0.6397,-0.6888,-0.7282,-0.7358,-0.7131,-0.6967,-0.6878,-0.6763,-0.7091,-0.8303,-0.9008,-0.9586,-0.9939,-1.0004,-1.0061,-1.0262,-1.0276,-1.0453,-1.0729,-1.0582,-1.0499,-1.0499,-1.0517,-1.0438,-1.0096,-1.0438,-1.0575,-1.0514,-1.0544,-1.0847,-1.1501,-1.1988,-1.2201,-1.2195,-1.212,-1.2041,-1.1853,-1.1853,-1.1727,-1.1502,-1.1778,-1.2029,-1.2305,-1.2305,-1.2305,-1.2305,-1.2305,-1.2245,-1.2144,-1.1937,-1.1817,-1.1683,-1.139,-1.1156,-1.091,-1.0627,-1.0393,-1.0168,-0.9907,-0.9907,-0.9888,-0.9743,-0.9513,-0.9238,-0.8964,-0.8689,-0.844,-0.8246,-0.8209,-0.8209,-0.8209,-0.8209,-0.8321,-0.8752,-0.8646,-0.848,-0.848,-0.783,-0.7552,-0.7863,-0.7224,-0.6953,-0.7288,-0.6646,-0.623,-0.6326,-0.5752,-0.5428,-0.5432,-0.5597,-0.5447,-0.4896,-0.5835,-0.5497,-0.3993,-0.335,-0.3137,0.6073,0.3113,-0.0,-0.0,-0.0,-0.0,-0.0,-0.0084,-0.0168,-0.0168,-0.2096,-0.3695,-0.3695,-0.3699,-0.3729,-0.3723,-0.5664,-0.7083,-0.7083,-0.7123,-0.7017,-0.6759,-0.646,-0.5553,-0.3533,-0.5456,-0.6997,-0.7224,-0.7104,-0.709,-0.7231,-0.7241,-0.7768,-0.8907,-0.8986,-0.8986,-0.8986,-1.0009,-1.0009,-0.8978,-1.0096,-1.0494,-1.0439,-1.0234,-1.0217,-1.0196,-0.9968,-0.9792,-0.9776,-0.9561,-0.9387,-0.9382,-0.9382,-0.9377,-0.9377,-0.9382,-1.0657,-1.2305,-1.2305,-1.2305,-1.2305,-1.2305,-1.2111,-1.1877,-1.187,-1.167,-1.1376,-1.1089,-1.1002,-1.0725,-0.9608,-0.9344,-0.9139,-0.8285,-0.8091,-0.7965,-0.7684,-0.7461,-0.7293,-0.7011,-0.6799,-0.6647,-0.6642,-0.6642,-0.6642,-0.6642,-0.6642,-0.7182,-0.8593,-0.8156,-0.7723,-0.7723,-0.7074,-0.6788,-0.7125,-0.6161,-0.5796,-0.6412,-0.5497,-0.5123,-0.5415,-0.5428,-0.5432,-0.5379,-0.56,-0.476,-0.2795,-0.5117,-0.6257,-0.612,-0.4085,-0.3071,0.6078,0.4484,0.2697,0.2179,0.205,0.2076,0.2092,0.207,0.2038,0.1847,0.016,-0.1196,-0.1177,-0.1206,-0.124,-0.1182,-0.1887,-0.2947,-0.4513,-0.4746,-0.4782,-0.4627,-0.5597,-0.548,-0.3286,-0.5312,0.0,-0.6795,-0.6954,-0.7024,-0.7068,-0.7074,-0.7288,-0.7606,-0.7602,-0.7547,-0.7436,-0.785,-0.785,-0.7436,-0.785,-0.7983,-0.8002,-0.8469,-0.8777,-0.8763,-0.9271,-0.9407,-0.9402,-0.9327,-0.9296,-0.9296,-0.9296,-0.9296,-0.9296,-0.9296,-0.9649,-1.0273,-1.1027,-1.0825,-1.0323,-1.0985,-1.0581,-0.9833,-0.9599,-0.9491,-0.9372,-0.9057,-0.8989,-0.8907,-0.8506,-0.842,-0.8355,-0.8091,-0.8027,-0.7941,-0.7866,-0.7611,-0.7431,-0.7295,-0.7111,-0.6904,-0.6904,-0.6842,-0.6754,-0.6608,-0.6588,-0.6804,-0.7289,-0.7128,-0.6966,-0.6966,-0.6308,-0.5896,-0.6018,-0.5361,-0.5122,-0.5398,-0.5158,-0.5155,-0.5365,-0.5372,-0.5379,-0.5389,-0.545,-0.518,-0.4493,-0.2929,-0.2099,-0.2114,-0.141,-0.1047,0.5892,0.5339,0.4603,0.4139,0.4029,0.4075,0.4075,0.4135,0.4166,0.3838,0.2748,0.1594,0.1045,0.0987,0.1019,0.1231,0.1256,0.0765,-0.0776,-0.1037,-0.1376,-0.2207,-0.4656,-0.542,-0.3335,-0.3793,-0.4665,-0.5539,-0.5629,-0.5684,-0.5841,-0.6656,-0.7034,-0.696,-0.6868,-0.6814,-0.6705,-0.6622,-0.6702,-0.6702,-0.6644,-0.662,-0.6614,-0.7172,-0.7407,-0.7403,-0.7987,-0.8237,-0.8237,-0.8237,-0.8237,-0.8237,-0.8237,-0.8192,-0.8129,-0.8129,-0.8,-0.8147,-0.9674,-0.9677,-0.9124,-0.9773,-0.939,-0.861,-0.8466,-0.8302,-0.8205,-0.8067,-0.8027,-0.7897,-0.7632,-0.7502,-0.7437,-0.7116,-0.7055,-0.7055,-0.7055,-0.6834,-0.663,-0.663,-0.6476,-0.6289,-0.6289,-0.6243,-0.612,-0.6002,-0.5984,-0.6155,-0.6554,-0.6367,-0.6199,-0.6199,-0.5546,-0.5164,-0.5164,-0.4829,-0.4697,-0.4908,-0.4947,-0.5091,-0.5369,-0.4767,-0.4706,-0.5399,-0.541,-0.4772,-0.3462,-0.1118,-0.0,-0.0,-0.0,-0.0,0.5741,0.5682,0.5689,0.5775,0.5778,0.5778,0.5778,0.604,0.6179,0.5871,0.5321,0.4506,0.3112,0.2843,0.3043,0.3665,0.3732,0.3796,0.3791,0.3817,0.2948,0.0606,-0.3301,-0.5017,-0.2963,-0.0971,-0.0789,-0.3029,0.0,-0.3117,-0.3378,-0.5656,-0.6909,-0.692,-0.6656,-0.6469,-0.644,-0.6526,-0.6605,-0.6678,-0.6532,-0.6461,-0.6458,-0.6322,-0.6338,-0.6338,-0.6338,-0.6338,-0.6338,-0.6338,-0.6254,-0.6247,-0.6247,-0.6156,-0.6017,-0.6017,-0.5922,-0.6093,-0.8201,-0.8781,-0.8669,-0.8669,-0.8516,-0.827,-0.827,-0.8057,-0.7897,-0.7897,-0.7897,-0.7702,-0.685,-0.6654,-0.6396,-0.5624,-0.5428,-0.5428,-0.5428,-0.5247,-0.5142,-0.5142,-0.5033,-0.4938,-0.4931,-0.4928,-0.4928,-0.4921,-0.4918,-0.5285,-0.6385,-0.5887,-0.5441,-0.5433,-0.4897,-0.4519,-0.4519,-0.4525,-0.4602,-0.484,-0.4813,-0.5011,-0.5369,-0.3754,-0.3558,-0.5071,-0.5138,-0.3437,-0.0,-0.0,-0.0,-0.0,-0.0,0.0072,0.565,0.5728,0.581,0.5813,0.5813,0.5813,0.5813,0.5847,0.5906,0.5688,0.559,0.5278,0.4608,0.495,0.5435,0.559,0.5967,0.619,0.6174,0.6177,0.6019,0.5402,0.2808,0.133,0.1874,0.24,0.2396,0.0,0.0175,-0.0868,-0.0952,-0.321,-0.4522,-0.4508,-0.4419,-0.4297,-0.3978,-0.558,-0.639,-0.6386,-0.6339,-0.6315,-0.6315,-0.6355,-0.6338,-0.6338,-0.6338,-0.6338,-0.6338,-0.6338,-0.6193,-0.6088,-0.6088,-0.5996,-0.5861,-0.5861,-0.5769,-0.5717,-0.6312,-0.6437,-0.6537,-0.7289,-0.6886,-0.6144,-0.6144,-0.6113,-0.6079,-0.6079,-0.6079,-0.6013,-0.5815,-0.5752,-0.5686,-0.5425,-0.5428,-0.5428,-0.5428,-0.5332,-0.5304,-0.5304,-0.5274,-0.5213,-0.5098,-0.5077,-0.504,-0.4935,-0.4864,-0.4917,-0.517,-0.5026,-0.4865,-0.4746,-0.4577,-0.4473,-0.4473,-0.4472,-0.4559,-0.462,-0.4797,-0.5009,-0.5396,-0.4928,-0.3636,-0.1414,-0.1347,-0.0943,-0.0,-0.0,-0.0,-0.0,-0.0,0.1438,0.5508,0.5549,0.5579,0.5447,0.546,0.5508,0.5508,0.588,0.6124,0.5497,0.578,0.5892,0.5145,0.5555,0.6012,0.6146,0.6563,0.6991,0.7121,0.7119,0.7143,0.7078,0.596,0.508,0.4949,0.4944,0.4925,0.0,0.191,-0.0,-0.0,-0.1271,-0.1992,-0.1999,-0.1996,-0.1903,-0.172,-0.383,-0.5404,-0.6285,-0.6281,-0.6321,-0.6263,-0.6321,-0.6311,-0.6322,0.0,-0.6242,-0.6318,-0.6173,-0.6176,-0.6106,-0.5952,-0.5857,-0.5789,-0.5789,-0.5623,-0.5498,-0.5498,-0.5498,-0.563,-0.6158,-0.5896,-0.5428,-0.5428,-0.5428,-0.5428,-0.5428,-0.5428,-0.5428,-0.5428,-0.5428,-0.5428,-0.5428,-0.5428,-0.5428,-0.5369,-0.5432,-0.5428,-0.5369,-0.5372,-0.5348,-0.526,-0.5247,-0.522,-0.5138,-0.5071,-0.476,-0.3928,-0.4291,-0.4591,-0.4507,-0.4503,-0.421,-0.3558,-0.3502,-0.3467,-0.3513,-0.4293,-0.4922,-0.5406,-0.3845,-0.2088,-0.0067,-0.0,-0.0,-0.0,0.1616,0.2357,0.2357,0.1546,0.2284,0.5693,0.5643,0.556,0.5287,0.5333,0.5382,0.5255,0.6195,0.6743,0.5531,0.6032,0.6367,0.5326,0.5394,0.5715,0.6013,0.6576,0.6968,0.7099,0.7228,0.7323,0.7078,0.7064,0.7007,0.6721,0.6691,0.6714,0.6672,0.3063,0.0766,0.0417,0.041,0.0322,-0.0,-0.0,-0.0,-0.0,-0.1792,-0.3659,-0.5473,-0.577,-0.5857,-0.5901,-0.5857,-0.6069,-0.6254,0.0,0.0,-0.6169,-0.5805,-0.5748,-0.5823,-0.5528,-0.5361,-0.5365,-0.5579,-0.5566,-0.5379,-0.5106,-0.5036,-0.5103,-0.5299,-0.5428,-0.5428,-0.5428,-0.5428,-0.5428,-0.5428,-0.5432,-0.5432,-0.5432,-0.5432,-0.5432,-0.5432,-0.5432,-0.5369,-0.5379,-0.5372,-0.5299,-0.5103,-0.5046,-0.5052,-0.5052,-0.5052,-0.5052,-0.5052,-0.5259,-0.4809,-0.3249,-0.3793,-0.4221,-0.42,-0.439,-0.395,-0.2644,-0.216,-0.1939,-0.1925,-0.3176,-0.4151,-0.4657,-0.1683,0.0202,0.0741,0.0741,0.0606,0.0337,0.3502,0.5135,0.5343,0.3761,0.3082,0.7133,0.6997,0.6796,0.6727,0.6918,0.688,0.6191,0.6934,0.7536,0.662,0.6567,0.6637,0.6444,0.6017,0.5864,0.6169,0.7278,0.7871,0.7183,0.7929,0.8193,0.7234,0.7044,0.6877,0.6853,0.6736,0.6736,0.0,0.5961,0.4584,0.2686,0.2595,0.1763,0.0078,-0.0,-0.0,-0.0,-0.0384,-0.0759,-0.1139,-0.2825,-0.3674,-0.3661,-0.3674,-0.4638,-0.6266,-0.6262,0.0,-0.5735,-0.4227,-0.3659,-0.3661,-0.3589,-0.3459,-0.3374,-0.4879,-0.5416,-0.5186,-0.3687,-0.3147,-0.3416,-0.49,-0.5369,-0.5428,-0.5428,-0.5369,-0.5376,-0.5376,-0.5382,-0.5389,-0.5389,-0.5389,-0.5389,-0.5389,-0.5389,-0.5389,-0.5393,-0.5389,-0.4979,-0.3485,-0.3149,-0.3149,-0.3149,-0.3149,-0.3149,-0.3149,-0.4445,-0.5262,-0.4967,-0.3781,-0.291,-0.2651,-0.3768,-0.4399,-0.4148,-0.183,-0.0385,-0.0387,-0.066,-0.0804,-0.0943,-0.0337,0.1414,0.4389,0.4456,0.3703,0.221,0.2882,0.3964,0.5399,0.5055,0.4909,0.7195,0.7086,0.6982,0.6872,0.7002,0.7101,0.6685,0.739,0.7979,0.7173,0.7298,0.7484,0.7178,0.7017,0.6987,0.7245,0.8196,0.8761,0.8468,0.9101,0.9375,0.8952,0.8717,0.8569,0.8467,0.829,0.8142,0.8049,0.8051,0.71,0.5023,0.4813,0.3801,0.1641,0.1469,0.0923,-0.0,-0.0,-0.0,-0.0,-0.1024,-0.1516,-0.1498,-0.1516,-0.2019,-0.3065,-0.4141,0.0,-0.5958,-0.4795,-0.3192,-0.1507,-0.1507,-0.1425,-0.1405,-0.2278,-0.3763,-0.5266,-0.4375,-0.3491,-0.3019,-0.4779,-0.5389,-0.5379,-0.5379,-0.5382,-0.5183,-0.4292,-0.4025,-0.4028,-0.4028,-0.4028,-0.4028,-0.4028,-0.4715,-0.5129,-0.4167,-0.3226,-0.2893,-0.3902,-0.2552,-0.1276,-0.1276,-0.1276,-0.1276,-0.1276,-0.3643,-0.543,-0.543,-0.2998,-0.1245,-0.1099,-0.1745,-0.2135,-0.2135,-0.0852,-0.0,-0.0,-0.0,0.0876,0.2762,0.2831,0.3165,0.3966,0.4922,0.4989,0.4097,0.4092,0.4564,0.5386,0.5379,0.5376,0.7915,0.77,0.7522,0.7389,0.7427,0.7448,0.7323,0.806,0.8557,0.7779,0.8038,0.8257,0.7838,0.7858,0.7994,0.8205,0.8993,0.9589,0.9666,1.0223,1.0531,1.0585,1.0418,1.0191,0.9958,0.9662,0.9451,0.9311,0.9251,0.0,0.6918,0.6506,0.5479,0.3799,0.3505,0.2636,0.1198,0.0803,0.036,-0.0,-0.0,-0.0,-0.0,-0.0,-0.0,-0.0069,-0.1731,0.0,0.0,-0.443,-0.2559,-0.0,-0.0,-0.0,-0.0,-0.0,-0.1813,-0.4252,-0.4252,-0.3299,-0.2353,-0.3775,-0.4517,-0.4846,-0.4846,-0.5122,-0.5122,-0.3692,-0.2748,-0.2144,-0.2144,-0.2144,-0.2144,-0.2144,-0.3226,-0.3842,-0.2415,-0.1008,-0.0808,-0.3708,-0.1954,-0.0,-0.0,-0.0,-0.0,-0.0,-0.2432,-0.4274,-0.4274,-0.1755,-0.0,-0.0,-0.0,-0.0,-0.0,-0.0,0.0337,0.1078,0.1145,0.2288,0.4721,0.5202,0.4718,0.3284,0.4643,0.5393,0.5389,0.5379,0.5376,0.5376,0.5432,0.5428,1.1018,1.0227,0.9604,0.9872,0.968,0.9285,0.8733,0.9308,0.9698,0.8821,0.8514,0.8486,0.8659,0.8078,0.7757,0.828,0.9548,1.0289,0.9782,1.0881,1.1455,1.0671,1.0498,1.0269,0.9958,0.9746,0.9611,0.9316,0.9025,0.0,0.7723,0.6817,0.6136,0.5764,0.5613,0.5327,0.4907,0.3268,0.1611,-0.0,-0.0,-0.0,-0.0,-0.0,-0.0,-0.0,-0.0203,0.0,0.0,-0.054,-0.027,-0.0,-0.0,-0.0,-0.0,-0.0,-0.0202,-0.0472,-0.0472,-0.0404,-0.0269,-0.0472,-0.1612,-0.2947,-0.2947,-0.4102,-0.5343,-0.5205,-0.276,-0.0269,-0.0269,-0.0269,-0.0269,-0.0269,-0.0404,-0.0472,-0.0269,-0.0135,-0.0067,-0.0404,-0.0202,-0.0,-0.0,-0.0,-0.0,-0.0,-0.027,-0.0472,-0.0472,-0.0202,-0.0,-0.0,-0.0,-0.0,-0.0,-0.0,0.1414,0.473,0.4934,0.4314,0.3015,0.4506,0.5329,0.5189,0.5326,0.5386,0.5432,0.5428,0.5428,0.5428,0.5428,0.5428,1.1017,1.0724,1.0502,1.0905,1.0888,1.0799,1.0775,1.0544,1.0301,1.0124,0.9413,0.9023,0.9465,0.9303,0.9262,0.9892,1.0566,1.1125,1.1241,1.2103,1.2888,1.3378,1.3389,1.3434,1.3662,1.3515,1.3002,1.1983,0.0,0.0,0.8644,0.7438,0.6474,0.5901,0.5751,0.5616,0.556,0.4774,0.3956,0.3205,0.101,-0.0,-0.0,-0.0,-0.0,-0.0,-0.0,0.0,0.0,-0.0,-0.0,-0.0,-0.0,-0.0,-0.0,-0.0,-0.0,-0.0,-0.0,-0.0,-0.0,-0.0,-0.0471,-0.1075,-0.1075,-0.1547,-0.2155,-0.2155,-0.1145,-0.0,-0.0,-0.0,-0.0,-0.0,-0.0,-0.0,-0.0,-0.0,-0.0,-0.0,-0.0,-0.0,-0.0,-0.0,-0.0,-0.0,-0.0,0.0808,0.2965,0.3236,0.2827,0.1744,0.2624,0.3236,0.3236,0.2284,0.2214,0.3694,0.4785,0.5055,0.4359,0.5043,0.5382,0.5376,0.5376,0.5369,0.5428,0.5428,0.5428,0.5428,0.5428,0.5701,1.141,1.1361,1.1379,1.1814,1.1885,1.1897,1.228,1.1599,1.0918,1.0974,1.0214,0.9638,1.0007,1.0114,1.0281,1.0782,1.1182,1.163,1.2218,1.2826,1.3659,1.4844,1.4969,1.5035,1.5289,1.4989,1.4298,1.3266,0.0,0.0,0.8979,0.7925,0.6872,0.581,0.5644,0.5572,0.5607,0.5497,0.5379,0.5389,0.2813,0.1338,0.0803,0.0806,0.0807,0.074,0.0,0.0,0.0,0.1346,0.1279,0.0807,0.0807,0.0807,0.0807,0.0807,0.0807,0.0807,0.0807,0.0807,0.0807,0.0807,0.0807,0.0807,0.0807,0.0404,-0.0,-0.0,-0.0,-0.0,-0.0,-0.0,-0.0,-0.0,-0.0,0.027,0.1347,0.1616,0.1413,0.0875,0.0807,0.0807,0.0807,0.0807,0.0807,0.0807,0.0807,0.1747,0.4244,0.5065,0.4922,0.3623,0.4645,0.5403,0.5406,0.4239,0.3487,0.3482,0.4709,0.5389,0.5372,0.5372,0.5369,0.5428,0.5428,0.5428,0.5428,0.5634,0.5771,0.5771,0.6047,0.6511,1.2791,1.2664,1.2545,1.2815,1.2759,1.268,1.2918,1.2423,1.1769,1.1373,1.0755,1.0239,1.012,1.0114,1.0214,1.0577,1.1049,1.163,1.2218,1.2826,1.3427,1.4015,1.4082,1.3854,1.3267,1.2665,1.2184,0.0,0.0,0.0,0.8508,0.8154,0.7281,0.5655,0.5589,0.5518,0.5432,0.5428,0.5432,0.5379,0.5379,0.4428,0.2678,0.2678,0.2678,0.0,0.0,0.0,0.0,0.4584,0.4308,0.2678,0.2678,0.2678,0.2678,0.2678,0.2678,0.2678,0.2678,0.2678,0.2678,0.2678,0.2678,0.2678,0.2678,0.141,-0.0,-0.0,-0.0,-0.0,-0.0,-0.0,-0.0,-0.0,-0.0,0.101,0.4593,0.5343,0.4791,0.3015,0.2678,0.2678,0.2678,0.2678,0.2678,0.2678,0.2678,0.2678,0.2744,0.43,0.5396,0.5396,0.5386,0.5382,0.5396,0.5406,0.5403,0.5379,0.5389,0.5386,0.5428,0.5428,0.5428,0.5428,0.5428,0.5428,0.5428,0.6254,0.6672,0.6738,0.7579,0.7987,1.2536,1.3005,1.3541,1.424,1.438,1.4424,1.4788,1.3997,1.3011,1.2323,1.1523,1.0806,1.0201,1.0281,1.0648,1.1343,1.0962,1.1046,1.2652,1.2762,1.3176,1.4732,1.5245,1.5482,0.0,0.0,1.2948,0.0,0.0,0.0,0.8493,0.7551,0.6622,0.5497,0.5433,0.541,0.5428,0.5428,0.5428,0.5432,0.5376,0.5106,0.4561,0.457,0.0,0.0,0.0,0.0,0.0,0.4645,0.5055,0.4573,0.4573,0.4573,0.4573,0.4573,0.4573,0.4573,0.4573,0.4573,0.4573,0.4573,0.4573,0.4573,0.4573,0.3288,0.1877,0.1877,0.1877,0.1877,0.1877,0.1877,0.1877,0.1877,0.1877,0.2146,0.3288,0.4509,0.5262,0.4643,0.4573,0.4573,0.4573,0.4573,0.4573,0.4573,0.4573,0.457,0.4564,0.504,0.5379,0.5372,0.5369,0.5372,0.5382,0.5379,0.5376,0.5432,0.5369,0.5693,0.6268,0.6268,0.656,0.7158,0.7158,0.7158,0.7158,0.7442,0.7569,0.7614,0.8511,0.8901,1.2088,1.3044,1.389,1.456,1.4846,1.5039,1.5314,1.4583,1.3671,1.2738,1.2113,1.1443,1.0438,1.0434,1.084,1.143,1.1147,1.1321,1.2848,1.3041,1.351,1.4864,1.4649,0.0,0.0,1.38,0.0,0.0,0.0,0.0,0.7836,0.7109,0.6334,0.5428,0.5428,0.5428,0.5428,0.5428,0.5428,0.5428,0.5369,0.5372,0.5372,0.5379,0.0,0.0,0.0,0.0,0.0,0.4906,0.5386,0.5382,0.5382,0.5382,0.5382,0.5382,0.5382,0.5382,0.5382,0.5382,0.5382,0.5382,0.5382,0.5382,0.5382,0.4634,0.3689,0.3689,0.3689,0.3689,0.3689,0.3689,0.3689,0.3689,0.3689,0.3689,0.3687,0.4634,0.5386,0.5382,0.5382,0.5382,0.5382,0.5382,0.5382,0.5382,0.5382,0.5379,0.5372,0.5372,0.5369,0.5428,0.5428,0.5561,0.5892,0.5561,0.5557,0.5881,0.5877,0.6264,0.7177,0.719,0.7419,0.8002,0.7981,0.8027,0.8002,0.8354,0.8689,0.9006,0.956,0.9775,0.0,1.2668,1.3512,1.4032,1.4453,1.4736,1.4831,1.4492,0.0,1.268,1.2404,1.1983,1.087,1.0665,1.0708,1.0989,1.1431,1.1913,1.2566,1.3297,1.3926,1.4189,1.2533,0.0,1.2857,1.2378,0.0,0.0,0.0,0.0,0.6802,0.6654,0.6268,0.5428,0.5428,0.5428,0.5428,0.5428,0.5428,0.5428,0.5428,0.5428,0.5428,0.5428,0.0,0.0,0.0,0.0,0.0,0.5372,0.5372,0.5428,0.5428,0.5428,0.5428,0.5428,0.5428,0.5428,0.5428,0.5428,0.5428,0.5428,0.5428,0.5428,0.5428,0.5376,0.5393,0.5393,0.5393,0.5393,0.5393,0.5393,0.5393,0.5393,0.5393,0.5389,0.5379,0.5376,0.5372,0.5428,0.5428,0.5428,0.5428,0.5428,0.5428,0.5428,0.5428,0.5428,0.5428,0.5428,0.5428,0.5491,0.5491,0.5815,0.6719,0.6009,0.5881,0.6724,0.6772,0.7163,0.8032,0.8062,0.8127,0.8156,0.8199,0.8213,0.818,0.9006,0.9838,1.0624,1.0624,1.0624,0.8034,0.0,1.1984,1.3938,1.4311,1.4405,0.0,1.4809,1.3961,1.304,1.2393,1.1777,1.1322,1.1042,1.0933,1.1138,1.047,1.0162,1.0876,1.1248,1.1494,1.1629,1.0824,1.0359,1.051,0.9887,0.0,0.0,0.0,0.7272,0.6724,0.6075,0.562,0.5428,0.5428,0.5428,0.5428,0.5428,0.5428,0.5428,0.5428,0.5428,0.5428,0.5428,0.0,0.0,0.0,0.0,0.5428,0.5432,0.5428,0.5428,0.5428,0.5428,0.5428,0.5428,0.5428,0.5428,0.5428,0.5428,0.5428,0.5428,0.5428,0.5428,0.5428,0.5432,0.5369,0.5369,0.5369,0.5369,0.5369,0.5369,0.5369,0.5369,0.5369,0.5369,0.5432,0.5432,0.5432,0.5428,0.5428,0.5428,0.5428,0.5428,0.5428,0.5428,0.5428,0.5428,0.5428,0.5428,0.5686,0.6334,0.6396,0.6724,0.7632,0.6907,0.6785,0.7671,0.7707,0.8102,0.8939,0.9015,0.9321,0.997,1.0002,0.9989,0.9983,1.0199,1.0408,1.0624,1.0624,1.0624,0.6062,0.8243,1.0689,1.2647,1.292,1.3063,1.4096,1.3848,1.3118,1.2274,1.1974,1.1544,1.0721,1.0448,1.0363,1.0273,0.9797,0.9371,0.9132,0.8459,0.792,0.7763,0.7541,0.7613,0.0,0.0,0.0,0.0,0.0,0.6685,0.6145,0.5686,0.5428,0.5428,0.5428,0.5428,0.5428,0.5428,0.5428,0.5428,0.5428,0.5428,0.5428,0.5428,0.5428,0.0,0.0,0.0,0.5428,0.5428,0.5428,0.5428,0.5428,0.5428,0.5428,0.5428,0.5428,0.5428,0.5428,0.5428,0.5428,0.5428,0.5428,0.5428,0.5428,0.5686,0.5947,0.5491,0.5428,0.5428,0.5428,0.5428,0.5428,0.5428,0.5428,0.5428,0.5428,0.5428,0.5428,0.5428,0.5752,0.6009,0.6009,0.6338,0.6601,0.6601,0.6601,0.6601,0.6601,0.6601,0.6793,0.7242,0.7307,0.7632,0.8549,0.8156,0.8102,0.8592,0.8592,0.8981,0.9835,0.9899,1.0142,1.0561,1.0624,1.0624,1.0624,1.0624,1.0624,1.0624,1.0624,1.0624,0.4712,0.6974,0.9281,1.0778,1.1044,1.1217,1.2236,1.2185,1.1719,1.0977,1.1084,1.0894,0.9729,0.9533,0.9475,0.9182,0.8827,0.7907,0.6225,0.4875,0.3757,0.3079,0.3287,0.0,0.0,0.0,0.0,0.0,0.0,0.6435,0.5435,0.5428,0.5428,0.5428,0.5428,0.5428,0.5428,0.5428,0.5428,0.5428,0.5428,0.5428,0.5428,0.5428,0.5428,0.0,0.0,0.0,0.5428,0.5428,0.5428,0.5428,0.5428,0.5491,0.5624,0.5624,0.5686,0.5818,0.5818,0.5686,0.562,0.5752,0.5818,0.5818,0.5818,0.6334,0.6719,0.6013,0.5818,0.5752,0.562,0.5624,0.562,0.5752,0.569,0.562,0.5752,0.5818,0.5818,0.5818,0.64,0.6915,0.6915,0.7502,0.8027,0.8027,0.8027,0.8027,0.8027,0.8027,0.8027,0.8156,0.8221,0.8549,0.9402,0.9548,0.956,0.956,0.9526,0.9841,1.0561,1.0624,1.0624,1.0624,1.0624,1.0624,1.0624,1.0624,1.0624,1.0624,1.0624,1.0624,0.3666,0.5186,0.7041,0.9164,0.9538,0.9615,1.0722,1.0308,0.9693,0.9669,0.9185,0.8891,0.9412,0.9362,0.9154,0.9221,0.586,0.2282,0.0,0.0,-0.0757,-0.197,0.0,0.0,0.0,0.0,0.0,0.0,0.0,0.56,0.5376,0.5432,0.5428,0.5428,0.5428,0.5428,0.5428,0.5428,0.5428,0.5428,0.5428,0.5428,0.5428,0.5428,0.5428,0.0,0.0,0.5428,0.5428,0.5428,0.5428,0.5428,0.5428,0.5881,0.6527,0.6527,0.6981,0.7572,0.7572,0.7116,0.6588,0.7377,0.7572,0.7572,0.7572,0.7702,0.7762,0.7637,0.7572,0.7442,0.6724,0.6527,0.6658,0.7442,0.7051,0.6719,0.7442,0.7572,0.7572,0.7572,0.7697,0.7832,0.7832,0.7897,0.8027,0.8027,0.8027,0.8027,0.8027,0.8027,0.8285,0.9005,0.9075,0.946,1.0301,1.0581,1.0728,1.0728,1.0518,1.0441,1.0561,1.0624,1.0624,1.0624,1.0624,1.0624,1.0624,1.0624,1.0624,1.0624,1.0624,1.0624,0.3164,0.4968,0.6591,0.7628,0.8103,0.8605,0.9564,0.9417,0.9032,0.9143,0.8725,0.8418,0.8572,0.8447,0.7877,0.6402,0.2209,-0.1756,-0.4126,-0.6235,-0.75,0.0,0.0,0.0,0.0,0.0,0.0,0.0,0.0,0.0,0.5309,0.5372,0.5369,0.5428,0.5428,0.5428,0.5428,0.5428,0.5428,0.5428,0.5428,0.5428,0.5428,0.5428,0.5428,0.5428,0.0,0.5428,0.5428,0.5428,0.5428,0.5428,0.5947,0.6334,0.6785,0.7242,0.7632,0.8027,0.8027,0.7762,0.7437,0.7897,0.8027,0.8027,0.8027,0.835,0.8613,0.8156,0.8027,0.7897,0.7502,0.7372,0.7502,0.7897,0.7697,0.7502,0.7897,0.8027,0.8027,0.8027,0.8355,0.8683,0.8683,0.9069,0.939,0.939,0.939,0.939,0.939,0.939,0.9582,0.9977,0.9977,1.0174,1.0561,1.0841,1.105,1.1224,1.0974,1.0841,1.0841,1.0694,1.0694,1.0841,1.0694,1.0694,1.0841,1.0694,1.0624,1.0624,1.0624,1.0624,0.2281,0.4652,0.6645,0.6555,0.695,0.7557,0.8358,0.8336,0.8282,0.8353,0.8255,0.8012,0.7525,0.7566,0.6546,0.3322,-0.168,-0.5813,-0.7632,-1.0513,-1.2299,-1.1775,0.0,0.0,0.0,0.0,0.0,0.0,0.0,0.0,0.4018,0.4869,0.5321,0.5311,0.5308,0.5308,0.5308,0.5345,0.5428,0.5428,0.5624,0.5624,0.5428,0.562,0.5624,0.5428,0.562,0.5624,0.5428,0.562,0.5686,0.5752,0.6461,0.6981,0.7437,0.8285,0.8484,0.835,0.8544,0.8479,0.835,0.8544,0.8608,0.8608,0.8608,0.9069,0.946,0.8807,0.8608,0.8544,0.835,0.8291,0.835,0.8544,0.8479,0.835,0.8544,0.8608,0.8608,0.8608,0.9134,0.9594,0.9594,1.0226,1.0661,1.0661,1.0675,1.0688,1.0688,1.0688,1.0661,1.0631,1.0681,1.0813,1.0914,1.1097,1.135,1.1579,1.1381,1.1207,1.1073,1.0911,1.0911,1.1066,1.1113,1.1254,1.1468,1.1482,1.1383,1.1317,1.1317,1.1247,0.0205,0.3424,0.6653,0.6403,0.6099,0.6141,0.6704,0.6499,0.6318,0.6685,0.6771,0.6685,0.6466,0.6794,0.5596,0.1041,-0.5547,-1.0721,-1.2344,0.0,-1.2182,0.0,0.0,0.0,0.0,0.0,0.0,0.0,0.0,0.0,0.04,0.3392,0.5098,0.5098,0.5152,0.5145,0.5145,0.5291,0.5428,0.5428,0.6203,0.6203,0.5428,0.6268,0.6137,0.5428,0.6268,0.6137,0.5491,0.6268,0.6588,0.6588,0.6654,0.7697,0.9204,1.0104,0.9913,0.9338,1.011,0.9913,0.9332,1.0168,1.0428,1.0428,1.0428,1.0428,1.0491,1.0428,1.0428,1.0238,0.9402,0.9204,0.9402,1.0238,0.9786,0.9396,1.0231,1.0428,1.0428,1.0428,1.0428,1.0498,1.0498,1.0782,1.0962,1.0962,1.0963,1.0949,1.0949,1.0949,1.0883,1.0601,1.1042,1.1452,1.1791,1.1803,1.1949,1.2184,1.1972,1.169,1.1397,1.1347,1.1347,1.1354,1.2262,1.2773,1.2773,1.3595,1.3822,1.3353,1.3353,1.3197,-0.0,0.1268,0.314,0.5682,0.6023,0.596,0.6488,0.6573,0.6585,0.6863,0.6843,0.6235,0.4627,0.3388,0.1769,-0.0944,-0.6784,-1.1464,-1.2762,-1.3073,0.0,0.0,0.0,0.0,0.0,0.0,0.0,0.0,0.0,0.0,0.0,0.2315,0.3991,0.489,0.5162,0.5186,0.4999,0.524,0.5315,0.5216,0.6213,0.6523,0.6203,0.6527,0.6789,0.699,0.6785,0.6854,0.7055,0.7377,0.7502,0.7567,0.8091,0.9064,1.0174,1.0498,1.0364,1.0174,1.0498,1.0364,1.0174,1.0491,1.0624,1.0624,1.0624,1.0624,1.0624,1.0624,1.0624,1.0491,1.0174,1.011,1.0174,1.0491,1.0364,1.0174,1.0561,1.0624,1.0624,1.0624,1.0624,1.0678,1.0795,1.0918,1.103,1.1201,1.1223,1.1263,1.1265,1.1224,1.1228,1.1082,1.1253,1.1507,1.1895,1.1923,1.2242,1.311,1.2896,1.2687,1.262,1.2998,1.3279,1.3454,1.3684,1.3818,1.4046,1.4205,1.4238,1.404,1.4064,1.3939,0.2013,0.1048,0.0971,0.5081,0.597,0.555,0.4458,0.5527,0.6414,0.5196,0.4295,0.3153,0.1353,-0.0172,-0.1819,0.0,-0.8187,-1.1569,-1.2635,0.0,0.0,0.0,0.0,0.0,0.0,0.0,0.0,0.0,0.0,0.0,0.0,0.0862,0.274,0.4769,0.5047,0.5038,0.485,0.5142,0.5363,0.5508,0.6569,0.6981,0.6719,0.7242,0.7697,0.7962,0.7632,0.7697,0.8027,0.8285,0.842,0.8484,0.9396,1.0047,1.0624,1.0624,1.0624,1.0624,1.0624,1.0624,1.0624,1.0624,1.0624,1.0624,1.0624,1.0624,1.0624,1.0624,1.0624,1.0624,1.0624,1.0624,1.0624,1.0624,1.0624,1.0624,1.0624,1.0624,1.0715,1.1114,1.0951,1.089,1.1507,1.1673,1.1671,1.1579,1.2054,1.22,1.1618,1.21,1.2475,1.2611,1.2493,1.2606,1.2883,1.295,1.3275,1.4139,1.4294,1.4178,1.3917,1.4338,1.4687,1.4883,1.4968,1.5129,1.53,1.5399,1.5423,1.5288,1.5281,1.5205,0.6269,0.3221,0.095,0.4822,0.5739,0.4622,0.033,0.2928,0.5137,0.1179,-0.1487,-0.3204,-0.3537,-0.3657,-0.477,-0.8366,-1.0216,-1.1413,0.0,0.0,0.0,0.0,0.0,0.0,0.0,0.0,0.0,0.0,0.0,0.0,0.0,-0.0978,0.1523,0.4768,0.4629,0.455,0.4691,0.4982,0.5568,0.6383,0.7471,0.7567,0.6785,0.8484,0.8812,0.8091,0.8947,0.8812,0.8091,0.8941,0.9338,0.9402,1.0238,1.0624,1.0624,1.0624,1.0624,1.0624,1.0624,1.0624,1.0624,1.0624,1.0624,1.0624,1.0624,1.0624,1.0624,1.0624,1.0624,1.0624,1.0624,1.0624,1.0624,1.0624,1.0624,1.0624,1.0624,1.0624,1.096,1.2156,1.1638,1.1404,1.271,1.3119,1.3013,1.2088,1.3494,1.4007,1.2137,1.3564,1.4854,1.5145,1.4907,1.4836,1.5201,1.5207,1.5218,1.5201,1.6114,1.6156,1.5223,1.5215,1.5223,1.5223,1.6156,1.6597,1.6597,1.7561,1.7793,1.7393,1.7393,1.7158,0.6219,0.5419,0.4683,0.5585,0.3529,0.0166,-0.4189,-0.1624,0.1114,-0.0961,-0.3601,-0.5621,-0.5487,-0.5598,0.0,-0.9827,-0.9507,-0.9488,0.0,0.0,0.0,0.0,0.0,0.0,0.0,0.0,0.0,0.0,0.0,0.0,0.0,-0.1012,0.0922,0.0,0.4143,0.468,0.4531,0.4931,0.5513,0.625,0.7463,0.8156,0.8549,0.9075,0.946,0.9843,0.946,0.953,0.9843,1.0104,1.0238,1.0238,1.0498,1.0624,1.0624,1.0624,1.0624,1.0624,1.0624,1.0624,1.0624,1.0624,1.0624,1.0624,1.0624,1.0624,1.0624,1.0624,1.0624,1.0624,1.0624,1.1045,1.1288,1.0744,1.1045,1.1469,1.1469,1.2085,1.2846,1.3203,1.3292,1.3481,1.4087,1.4247,1.4303,1.4221,1.4728,1.4867,1.4266,1.4736,1.5055,1.5221,1.5091,1.5105,1.5217,1.5201,1.5505,1.6117,1.6471,1.6501,1.6233,1.6847,1.7194,1.7194,1.7464,1.7571,1.7571,1.7842,1.7949,1.7822,1.7822,1.7754,0.5863,0.6091,0.624,0.6044,0.1337,-0.3861,-0.6359,-0.4853,-0.3094,-0.3753,-0.5374,-0.6548,-0.6515,-0.6528,0.0,-0.9384,-0.8714,0.0,0.0,0.0,0.0,0.0,0.0,0.0,0.0,0.0,0.0,0.0,0.0,0.0,0.0,-0.1367,0.0425,0.0,0.353,0.4607,0.4525,0.4792,0.554,0.6708,0.7529,0.8579,0.9786,0.9786,1.011,1.0561,1.004,1.011,1.0624,1.0624,1.0624,1.0624,1.0624,1.0624,1.0624,1.0624,1.0624,1.0624,1.0624,1.0624,1.0624,1.0624,1.0807,1.1108,1.1108,1.1296,1.1538,1.1538,1.1538,1.1538,1.1538,1.1903,1.212,1.1453,1.1814,1.2398,1.2735,1.3235,1.381,1.4483,1.4535,1.4656,1.5368,1.5446,1.5402,1.5236,1.5209,1.5455,1.6243,1.5974,1.5898,1.6251,1.6327,1.6296,1.6298,1.6314,1.6558,1.7097,1.7179,1.7126,1.7126,1.7736,1.8008,1.8008,1.8008,1.8008,1.8008,1.8008,1.8008,1.8008,1.8008,1.8008,0.5475,0.575,0.6078,0.6023,-0.026,-0.6467,-0.6688,-0.6738,-0.6766,-0.6649,-0.6573,-0.6491,-0.6617,-0.6525,-0.6821,-0.7737,0.0,0.0,0.0,0.0,0.0,0.0,0.0,0.0,0.0,0.0,0.0,0.0,0.0,0.0,0.0,-0.1963,0.0,-0.0,0.2809,0.4336,0.448,0.4619,0.5631,0.0,0.7608,0.8646,1.0584,1.0611,1.0624,1.0624,1.0598,1.0598,1.0624,1.0624,1.0624,1.0624,1.0624,1.0624,1.0624,1.0624,1.0624,1.0624,1.0681,1.0681,1.0744,1.0807,1.1288,1.1888,1.1888,1.2451,1.3009,1.3009,1.3009,1.3009,1.3009,1.3094,1.3087,1.2757,1.2947,1.3434,1.4258,1.4174,1.4414,1.5903,1.5595,1.5343,1.651,1.6738,1.6471,1.5591,1.547,1.607,1.7755,1.729,1.703,1.792,1.8008,1.8008,1.8008,1.8008,1.8008,1.8008,1.8008,1.8008,1.8008,1.8008,1.8008,1.8008,1.8008,1.8008,1.8008,1.8008,1.8008,1.8008,1.8008,1.8008,0.5666,0.5425,0.4542,0.3926,0.1097,-0.2443,-0.5912,-0.6532,-0.6441,-0.6512,-0.641,-0.6281,-0.619,-0.6146,-0.6382,0.0,0.0,0.0,0.0,0.0,0.0,0.0,0.0,0.0,0.0,0.0,0.0,0.0,0.0,0.0,-0.5407,-0.1976,0.0,-0.0,0.1749,0.3263,0.448,0.4619,0.5509,0.0,0.7318,0.8391,1.0221,1.0454,1.0624,1.0611,1.0314,1.0347,1.0624,1.0624,1.0624,1.0624,1.0624,1.0624,1.0624,1.0624,1.0624,1.0681,1.1351,1.1531,1.1655,1.2274,1.2581,1.2757,1.2757,1.2887,1.3009,1.3009,1.3009,1.3009,1.3009,1.3716,1.4524,1.4786,1.4647,1.4622,1.5158,1.5975,1.6683,1.7062,1.7226,1.7387,1.7648,1.7706,1.7647,1.7406,1.7387,1.7561,1.793,1.7833,1.7755,1.8008,1.8008,1.8008,1.8008,1.8008,1.8008,1.8008,1.8008,1.8008,1.8008,1.8008,1.8008,1.8008,1.8008,1.8008,1.8008,1.8008,1.8008,1.8008,1.8008,1.8008,0.5714,0.5832,0.4744,0.2234,0.0831,-0.0574,-0.2975,-0.4953,-0.6266,-0.6162,-0.6095,-0.6017,-0.5935,-0.5922,-0.6037,0.0,0.0,0.0,0.0,0.0,0.0,0.0,0.0,0.0,0.0,0.0,0.0,0.0,0.0,-0.2826,-0.2826,-0.1019,0.0672,0.2127,0.2178,0.2959,0.448,0.4878,0.5741,0.7089,0.7548,0.8498,0.992,1.0214,1.0347,1.0341,1.018,1.0207,1.0361,1.0501,1.0624,1.0624,1.0624,1.0624,1.0624,1.0624,1.0863,1.1226,1.1648,1.2074,1.2451,1.2887,1.3252,1.3545,1.3545,1.3846,1.4154,1.4154,1.4154,1.4154,1.4154,1.4667,1.5294,1.5914,1.5895,1.5914,1.6581,1.7081,1.7441,1.7646,1.7861,1.8008,1.8008,1.8008,1.8008,1.8008,1.8008,1.8008,1.8008,1.8008,1.8008,1.8008,1.8008,1.8008,1.8008,1.8008,1.8008,1.8008,1.8008,1.8008,1.8008,1.8008,1.8008,1.8008,1.8008,1.8008,1.8008,1.8008,1.8008,1.8008,1.8008,1.8008,0.561,0.6364,0.5755,0.2058,0.0574,-0.0,-0.0,-0.2679,-0.5321,-0.5604,-0.5724,-0.5796,-0.5769,-0.5766,-0.5755,0.0,0.0,0.0,0.0,0.0,0.0,0.0,0.0,0.0,0.0,0.0,0.0,0.0,0.0,0.0224,0.0728,0.0784,0.1794,0.4051,0.3132,0.3183,0.448,0.5171,0.6009,0.7033,0.7919,0.8796,0.9619,0.9853,0.9993,1.004,0.9987,0.9993,1.0067,1.0361,1.0481,1.0488,1.0604,1.0681,1.0807,1.0807,1.1288,1.2012,1.2197,1.2634,1.3243,1.3373,1.3846,1.4392,1.4392,1.4864,1.541,1.541,1.541,1.541,1.541,1.5527,1.583,1.6562,1.6782,1.7148,1.7861,1.7734,1.7598,1.7939,1.8008,1.8008,1.8008,1.8008,1.8008,1.8008,1.8008,1.8008,1.8008,1.8008,1.8008,1.8008,1.8008,1.8008,1.8008,1.8008,1.8008,1.8008,1.8008,1.8008,1.8008,1.8008,1.8008,1.8008,1.8008,1.8008,1.8008,1.8008,1.8008,1.8008,1.8008,1.8008,0.5415,0.6104,0.6561,0.5984,0.2882,-0.0,-0.0,-0.0447,-0.1741,-0.5047,-0.5674,-0.5701,-0.5644,-0.5616,0.0,0.0,0.0,0.0,0.0,0.0,0.0,0.0,0.0,0.0,0.0,0.0,0.0,0.0,-0.0,0.1121,0.3772,0.3884,0.3482,0.2514,0.3577,0.4307,0.448,0.5171,0.5887,0.6688,0.8282,0.9147,0.9243,0.9283,0.9499,0.9726,0.9466,0.9506,0.9766,1.0053,1.0174,1.02,1.0461,1.1052,1.1648,1.1648,1.2143,1.2948,1.3666,1.3965,1.4145,1.4864,1.5167,1.5235,1.5235,1.5294,1.541,1.541,1.541,1.541,1.541,1.5977,1.6582,1.6636,1.7305,1.7871,1.7988,1.7969,1.7939,1.7998,1.8008,1.8008,1.8008,1.8008,1.8008,1.8008,1.8008,1.8008,1.8008,1.8008,1.8008,1.8008,1.8008,1.8008,1.8008,1.8008,1.8008,1.8008,1.8008,1.8008,1.8008,1.8008,1.8008,1.8008,1.8008,1.8008,1.8008,1.8008,1.8008,1.8008,1.8008,1.8008,0.3612,0.5151,0.6485,0.6499,0.4999,0.2877,0.0523,-0.0,-0.0503,-0.2138,-0.4102,-0.5542,-0.5471,-0.5396,0.0,0.0,0.0,0.0,0.0,0.0,0.0,0.0,0.0,0.0,0.0,0.0,0.0,0.0,-0.0,0.1289,0.434,0.4514,0.4163,0.3519,0.4141,0.4695,0.5066,0.5769,0.6691,0.7836,0.8603,0.8998,0.8998,0.8998,0.9158,0.9426,0.9236,0.9256,0.9466,0.9927,1.0349,1.0785,1.1167,1.1779,1.2451,1.2451,1.3,1.3726,1.4085,1.451,1.4932,1.5294,1.541,1.541,1.541,1.541,1.541,1.541,1.5586,1.5781,1.5781,1.625,1.6797,1.7041,1.7383,1.7725,1.7959,1.8008,1.8008,1.8008,1.8008,1.8008,1.8008,1.8008,1.8008,1.8008,1.8008,1.8008,1.8008,1.8008,1.8008,1.8008,1.8008,1.8008,1.8008,1.8008,1.8008,1.8008,1.8008,1.8008,1.8008,1.8008,1.8008,1.8008,1.8008,1.8008,1.8008,1.8203,1.8203,1.8008,1.8203,1.8203,0.1617,0.3354,0.4971,0.6017,0.6274,0.5189,0.0965,-0.0,-0.0,0.0,-0.2125,-0.427,-0.5186,-0.5196,0.0,0.0,0.0,0.0,0.0,0.0,0.0,0.0,0.0,0.0,0.0,0.0,0.0,0.0,0.1121,0.213,0.4389,0.4504,0.4497,0.4477,0.4473,0.4794,0.5487,0.6421,0.7509,0.8804,0.8804,0.8804,0.8804,0.8804,0.8925,0.9077,0.9077,0.9077,0.9172,0.9853,1.0564,1.124,1.176,1.2493,1.3312,1.3312,1.3786,1.451,1.451,1.4874,1.541,1.541,1.541,1.541,1.541,1.541,1.543,1.5547,1.5811,1.6154,1.6201,1.6562,1.6982,1.7305,1.7461,1.7627,1.7939,1.8008,1.8008,1.8008,1.8008,1.8008,1.8008,1.8008,1.8008,1.8008,1.8008,1.8008,1.8008,1.8008,1.8008,1.8008,1.8008,1.8008,1.8008,1.8008,1.8008,1.8008,1.8008,1.8008,1.8008,1.831,1.8496,1.8496,1.8859,1.8751,1.8183,1.8466,1.8518,1.8363,1.8764,1.8859,0.013,0.0263,0.1261,0.5282,0.627,0.5179,0.0983,-0.0,-0.0,-0.0,-0.0137,-0.1262,-0.4505,0.0,0.0,0.0,0.0,0.0,0.0,0.0,0.0,0.0,0.0,0.0,0.0,0.0,0.0,0.0,0.4284,0.4333,0.4484,0.448,0.4477,0.4519,0.4519,0.4842,0.5487,0.6902,0.8049,0.8804,0.8804,0.8804,0.8804,0.8804,0.8818,0.8831,0.8831,0.8831,0.8904,0.9901,1.0539,1.1016,1.2009,1.3067,1.4145,1.4145,1.4628,1.5352,1.5352,1.5352,1.541,1.541,1.541,1.541,1.541,1.541,1.5498,1.5918,1.6105,1.6162,1.6592,1.7021,1.7353,1.7373,1.7686,1.7978,1.8008,1.8008,1.8008,1.8008,1.8008,1.8008,1.8008,1.8008,1.8008,1.8008,1.8008,1.8008,1.8008,1.8008,1.8008,1.8008,1.8008,1.8008,1.8008,1.8008,1.8008,1.8008,1.8008,1.8008,1.8008,1.9254,2.0018,2.0018,2.127,2.0856,1.8564,1.8574,1.8838,1.9257,1.9626,2.0128,-0.0,-0.0,0.0394,0.1844,0.2266,0.1847,0.0369,-0.0,-0.0,-0.0,-0.0,-0.0389,-0.1574,0.0,0.0,0.0,0.0,0.0,0.0,0.0,0.0,0.0,0.0,0.0,0.0,0.0,0.0,0.0,0.0,0.4504,0.448,0.448,0.4473,0.4519,0.4519,0.5062,0.6199,0.7664,0.8533,0.8804,0.8804,0.8804,0.8804,0.8804,0.9061,0.9465,0.9465,0.9465,0.9487,1.0073,1.1099,1.2398,1.2963,1.3929,1.4991,1.4991,1.5167,1.541,1.541,1.541,1.541,1.541,1.541,1.541,1.541,1.541,1.5449,1.5596,1.6055,1.6533,1.6626,1.7256,1.7793,1.7793,1.79,1.8008,1.8008,1.8008,1.8008,1.8008,1.8008,1.8008,1.8008,1.8008,1.8008,1.8008,1.8008,1.8008,1.8008,1.8008,1.8008,1.8008,1.8008,1.8008,1.8008,1.8008,1.8008,1.8008,1.8529,1.8844,1.8844,1.9828,2.0552,2.0942,2.1459,2.1426,2.0934,2.1197,2.1292,2.1161,2.158,2.1745,-0.0784,-0.0744,-0.0775,-0.0966,-0.049,-0.0,-0.0,-0.0,-0.0,-0.0,-0.0,-0.0,-0.0,-0.1722,0.0,0.0,0.0,0.0,0.0,0.0,0.0,0.0,0.0,0.0,0.0,0.0,0.0,0.0,0.0,0.0,0.4473,0.4473,0.4581,0.4842,0.5332,0.6041,0.6966,0.8209,0.8804,0.8804,0.8804,0.8804,0.8811,0.9008,0.9361,0.9814,1.0064,1.0167,1.0182,1.0617,1.162,1.2932,1.3553,1.4364,1.5215,1.5361,1.541,1.541,1.541,1.541,1.541,1.541,1.541,1.541,1.541,1.541,1.5478,1.5771,1.6279,1.6797,1.709,1.7588,1.8008,1.8008,1.8008,1.8008,1.8008,1.8008,1.8008,1.8008,1.8008,1.8008,1.8008,1.8008,1.8008,1.8008,1.8008,1.8008,1.8008,1.8008,1.8008,1.8008,1.8008,1.8008,1.8008,1.8008,1.8134,1.8395,1.8977,1.9431,1.9694,2.0917,2.174,2.2083,2.2765,2.327,2.3614,2.3173,2.2777,2.2649,2.3088,2.3151,0.0,0.0,0.0,-0.3003,-0.1605,-0.0133,-0.0,-0.0,-0.0,-0.0,-0.0,-0.0,-0.0,0.0062,0.0,0.0,0.0,0.0,0.0,0.0,0.0,0.0,0.0,0.0,0.0,0.0,0.0,0.0,0.448,0.4529,0.4519,0.4574,0.4842,0.5487,0.6956,0.7723,0.7723,0.8427,0.8804,0.8804,0.8804,0.8804,0.8857,0.951,0.9865,0.9917,1.0568,1.0864,1.0914,1.1566,1.2067,1.2647,1.37,1.4404,1.4834,1.5254,1.541,1.541,1.541,1.541,1.541,1.541,1.541,1.541,1.541,1.542,1.5605,1.6465,1.6665,1.6943,1.7793,1.8008,1.8008,1.8008,1.8008,1.8008,1.8008,1.8008,1.8008,1.8008,1.8008,1.8008,1.8008,1.8008,1.8008,1.8008,1.8008,1.8008,1.8008,1.8008,1.8008,1.8008,1.8008,1.8008,1.8008,1.8076,1.8462,1.9299,1.9365,1.9759,2.059,2.2474,2.3484,2.3484,2.548,2.6471,2.6452,2.416,2.3201,2.3616,2.4056,2.4148,-0.4479,0.0,0.0,0.0,0.0,0.0,0.0,0.0,-0.0,-0.0,-0.0,-0.0,-0.0,0.1754,0.0,0.0,0.0,0.0,0.0,0.0,0.0,0.0,0.0,0.0,0.0,0.0,0.0,0.0,0.4473,0.4691,0.5218,0.5714,0.6095,0.6312,0.723,0.7723,0.7723,0.8427,0.8804,0.8811,0.9309,0.951,0.9562,1.0218,1.0762,1.1266,1.1466,1.1832,1.2304,1.1922,1.2369,1.3279,1.3859,1.4404,1.4834,1.5254,1.541,1.541,1.541,1.541,1.541,1.541,1.541,1.541,1.541,1.5635,1.5928,1.6182,1.6709,1.7324,1.7871,1.8008,1.8008,1.8008,1.8008,1.8008,1.8008,1.8008,1.8008,1.8008,1.8008,1.8008,1.8008,1.8008,1.8008,1.8008,1.8008,1.8008,1.8008,1.8008,1.8008,1.8008,1.8596,1.8911,1.8911,1.9497,2.0009,2.0204,2.0846,2.1273,2.1533,2.3009,2.3852,2.3852,2.5161,2.5846,2.5847,2.5623,2.5529,2.5635,2.5387,2.5004,-0.5185,-0.5106,-0.4951,-0.4868,0.0,0.0,-0.2691,-0.1639,-0.1156,0.0,-0.0537,-0.0,-0.0,0.2485,0.0,0.0,0.0,0.0,0.0,0.0,0.0,0.0,0.0,0.0,0.0,0.448,0.4477,0.4519,0.4739,0.523,0.5928,0.6637,0.7074,0.7074,0.7777,0.8156,0.8156,0.8593,0.8962,0.9211,0.9614,0.9969,1.0269,1.0914,1.1416,1.1832,1.2138,1.2501,1.2881,1.2452,1.2643,1.3301,1.3896,1.4287,1.459,1.5186,1.541,1.541,1.541,1.541,1.541,1.541,1.541,1.541,1.541,1.5586,1.5869,1.624,1.6973,1.7705,1.7949,1.8008,1.8008,1.8008,1.8008,1.8008,1.8008,1.8269,1.8462,1.8076,1.8008,1.8008,1.8008,1.8269,1.8519,1.8519,1.8854,1.911,1.911,1.911,1.911,1.911,1.9562,1.9814,1.9814,2.0333,2.0782,2.1101,2.1616,2.2037,2.2407,2.3672,2.4322,2.4322,2.5408,2.5994,2.5977,2.6321,2.6533,2.6452,2.5635,2.5131,-0.5087,-0.5108,-0.523,-0.5335,-0.5014,0.0,-0.5215,-0.4102,-0.2933,0.0,-0.1654,-0.0459,-0.0064,0.2178,0.0,0.0,0.0,0.0,0.0,0.0,0.0,0.0,0.0,0.0,0.4477,0.4522,0.4515,0.4625,0.5328,0.6032,0.6696,0.7402,0.783,0.783,0.8533,0.8903,0.8903,0.9008,0.9309,0.9909,0.9969,1.0312,1.0914,1.1616,1.1931,1.1959,1.2627,1.2881,1.2881,1.2881,1.2881,1.2969,1.3809,1.4077,1.4184,1.5098,1.541,1.541,1.541,1.541,1.541,1.541,1.541,1.541,1.541,1.5459,1.5713,1.6621,1.7422,1.8008,1.8008,1.8008,1.8008,1.8144,1.8076,1.8076,1.8269,1.8854,1.911,1.8395,1.8269,1.8269,1.8269,1.8921,1.9431,1.9431,2.0074,2.059,2.059,2.059,2.059,2.059,2.0719,2.0719,2.0719,2.0846,2.1227,2.2002,2.2002,2.2384,2.3078,2.4111,2.4736,2.4696,2.5805,2.6411,2.6533,2.6533,2.6533,2.6452,2.5306,2.4822,-0.5644,-0.565,-0.562,-0.5413,-0.5389,0.0,-0.4795,-0.4556,-0.4393,0.0,-0.4192,-0.316,-0.0495,0.0486,0.0,0.0,0.0,0.0,0.0,0.0,0.0,0.0,0.0,0.0,0.4522,0.4519,0.4732,0.5273,0.6524,0.7343,0.745,0.8209,0.8593,0.8593,0.9256,0.9614,0.9614,1.0167,1.0466,1.061,1.1166,1.1466,1.1616,1.2353,1.2676,1.2676,1.2832,1.2881,1.2881,1.2881,1.2881,1.2969,1.3809,1.4077,1.4184,1.5098,1.541,1.541,1.541,1.541,1.541,1.541,1.541,1.541,1.541,1.59,1.6602,1.7527,1.7881,1.8008,1.8008,1.8008,1.8212,1.8844,1.8529,1.8395,1.9814,1.9694,1.9431,2.0009,2.0074,2.0074,2.0074,2.0204,2.0333,2.0333,2.0462,2.059,2.059,2.059,2.059,2.059,2.1239,2.1628,2.1628,2.2249,2.2689,2.2884,2.2884,2.2944,2.3065,2.3777,2.4179,2.4183,2.5227,2.6,2.6533,2.6533,2.6533,2.6452,2.5306,2.5028,-0.5823,-0.58,-0.5766,-0.562,0.0,0.0,0.0,-0.4958,-0.4931,-0.5223,-0.5036,-0.4342,-0.2675,0.0,0.06,0.0,0.0,0.0,0.0,0.0,0.0,0.0,0.0,0.0,0.4525,0.4787,0.5437,0.6519,0.7283,0.7883,0.8209,0.8896,0.9309,0.9309,0.9969,1.0312,1.0312,1.061,1.0965,1.1316,1.1665,1.1972,1.2344,1.2715,1.2881,1.2881,1.2881,1.2881,1.2881,1.2881,1.2881,1.2969,1.3809,1.4077,1.4184,1.5098,1.541,1.541,1.541,1.541,1.541,1.541,1.541,1.541,1.541,1.5989,1.6792,1.7249,1.7687,1.8008,1.8008,1.8337,1.8787,1.9177,1.9299,1.9562,2.0398,2.059,2.0719,2.1164,2.1553,2.1604,2.0719,2.0974,2.1239,2.1239,2.1616,2.1865,2.1865,2.1865,2.1865,2.1865,2.2249,2.2506,2.2506,2.2884,2.3078,2.3078,2.3078,2.3078,2.3078,2.3974,2.4646,2.5245,2.5753,2.6202,2.6533,2.6533,2.6533,2.6452,2.5623,2.5363,-0.5922,0.0,0.0,0.0,0.0,-0.5494,0.0,0.0,0.0,-0.5396,-0.5091,0.0,0.0,0.0,0.0,0.0,0.0,0.0,0.0,0.0,0.0,0.0,0.0,0.0,0.0,0.5437,0.6411,0.761,0.783,0.8203,0.8956,0.9517,0.9865,0.9969,1.0669,1.1015,1.1015,1.1124,1.1475,1.2021,1.2021,1.2344,1.2881,1.2881,1.2968,1.3065,1.3065,1.3152,1.3248,1.3248,1.3248,1.328,1.3814,1.4009,1.4175,1.501,1.5342,1.541,1.541,1.541,1.541,1.541,1.541,1.5439,1.5615,1.6147,1.6753,1.6867,1.7464,1.8066,1.8182,1.8777,1.9365,1.9694,2.0204,2.0719,2.1037,2.1491,2.1951,2.2125,2.2628,2.2689,2.129,2.1678,2.2137,2.2137,2.2689,2.3078,2.3078,2.3078,2.3078,2.3078,2.3078,2.3078,2.3078,2.3078,2.3078,2.3078,2.3078,2.3078,2.3078,2.4198,2.5282,2.6296,2.644,2.6533,2.6533,2.6533,2.6533,2.6452,2.5859,2.5693,0.0,0.0,0.0,0.0,-0.5961,0.0,0.0,0.0,-0.525,-0.504,0.0,0.0,0.0,0.0,0.0,0.0,0.0,0.0,0.0,0.0,0.0,0.0,0.0,0.0,0.0,0.6627,0.7503,0.767,0.8315,0.8949,0.9658,0.9762,1.0064,1.0669,1.1366,1.1665,1.1665,1.2353,1.2715,1.2774,1.2774,1.2822,1.2881,1.2881,1.319,1.3684,1.3684,1.4014,1.4479,1.4479,1.4479,1.4441,1.3821,1.3809,1.4136,1.4678,1.5088,1.541,1.541,1.541,1.541,1.541,1.541,1.5518,1.6346,1.6636,1.6852,1.7617,1.7949,1.8192,1.8951,1.9246,1.9694,2.1239,2.1101,2.1037,2.2506,2.231,2.2125,2.2823,2.3017,2.3065,2.2884,2.2884,2.2944,2.2944,2.3065,2.3078,2.3078,2.3078,2.3078,2.3078,2.3078,2.3078,2.3078,2.3078,2.3078,2.3078,2.3078,2.3078,2.3078,2.4165,2.5061,2.5716,2.6214,2.6533,2.6533,2.6533,2.6533,2.6452,2.5859,2.5853,0.0,0.0,0.0,0.0,0.0,0.0,-0.5413,0.0,-0.5145,0.0,0.0,0.0,0.0,0.0,0.0,0.0,-0.2991,0.0,0.0,0.0,0.0,0.0,0.0,0.0,0.0,0.0,0.0,0.0,0.9308,0.9892,1.0105,1.089,1.1353,1.1375,1.2089,1.2452,1.2452,1.2774,1.2881,1.2881,1.2881,1.3055,1.342,1.342,1.3742,1.4329,1.4329,1.4468,1.4698,1.4698,1.4698,1.4708,1.4672,1.4956,1.5352,1.5663,1.5873,1.6036,1.6036,1.6036,1.6083,1.6528,1.6687,1.6825,1.7546,1.7941,1.8207,1.8912,1.9274,1.9609,1.9933,2.0429,2.0974,2.1753,2.2002,2.2249,2.2944,2.2823,2.2702,2.3005,2.3078,2.3078,2.3078,2.3078,2.3078,2.3078,2.3078,2.3078,2.3078,2.3078,2.3078,2.3078,2.3078,2.3078,2.3078,2.3078,2.3078,2.3078,2.3441,2.3727,2.4099,2.4834,2.5517,2.6096,2.6333,2.6533,2.6533,2.6998,2.7169,2.7169,2.6917,2.6929,-0.5416,0.0,0.0,0.0,0.0,0.0,0.0,0.0,0.0,0.0,0.0,0.0,0.0,0.0,-0.4524,-0.4487,0.0,-0.3754,0.0,0.0,0.0,0.0,0.0,0.0,0.0,0.0,0.0,0.0,0.0,0.0,1.1036,1.1973,1.2413,1.2254,1.2675,1.2968,1.3152,1.3152,1.3248,1.3382,1.3382,1.361,1.405,1.405,1.4376,1.4971,1.4971,1.5017,1.5197,1.5197,1.5197,1.5267,1.5974,1.6451,1.6742,1.6656,1.6714,1.681,1.681,1.681,1.6866,1.7413,1.7723,1.7969,1.8489,1.8967,1.9423,1.9943,2.0362,2.0676,2.0876,2.1428,2.1951,2.2199,2.2702,2.3078,2.3078,2.3078,2.3078,2.3078,2.3078,2.3078,2.3078,2.3078,2.3078,2.3078,2.3078,2.3078,2.3078,2.3078,2.3078,2.3078,2.3078,2.3078,2.3078,2.3078,2.3078,2.3078,2.3528,2.4113,2.487,2.5401,2.6096,2.6904,2.7118,2.7169,2.7169,2.7756,2.8061,2.8092,2.8088,2.8048,0.0,0.0,0.0,-0.5405,0.0,0.0,0.0,0.0,-0.5488,0.0,0.0,0.0,0.0,-0.4792,-0.464,-0.4501,-0.4494,0.0,0.0,0.0,0.0,0.0,0.0,0.0,0.0,0.0,0.0,0.0,0.0,0.0,1.2932,1.2715,1.2818,1.3435,1.3096,1.32,1.3779,1.3768,1.405,1.4652,1.4652,1.4652,1.4652,1.4652,1.5005,1.5588,1.5588,1.5908,1.6423,1.6423,1.6423,1.6535,1.7693,1.8131,1.8016,1.7277,1.723,1.7578,1.7578,1.7578,1.7578,1.7578,1.8025,1.8519,1.8955,1.9448,1.9941,2.0434,2.0579,2.0771,2.1628,2.1877,2.2125,2.2884,2.3065,2.3078,2.3078,2.3078,2.3078,2.3078,2.3078,2.3078,2.3078,2.3078,2.3078,2.3078,2.3078,2.3078,2.3078,2.3078,2.3078,2.3078,2.3078,2.3078,2.3078,2.3078,2.3078,2.3078,2.3103,2.3704,2.5056,2.5724,2.6665,2.789,2.8602,2.8884,2.8884,2.8966,2.895,2.8943,2.8967,2.8975,0.0,0.0,-0.1183,-0.1786,0.0,0.0,0.0,0.0,0.0,0.0,0.0,0.0,0.0,-0.4743,-0.4545,-0.4504,-0.4494,-0.4507,0.0,0.0,0.0,0.0,0.0,0.0,0.0,0.0,0.0,0.0,1.1241,0.0,0.0,1.3811,1.3878,1.3525,1.3741,1.3841,1.3779,1.419,1.4514,1.4698,1.4698,1.4926,1.5276,1.5276,1.5632,1.6194,1.6194,1.6293,1.6522,1.6522,1.6522,1.6622,1.7765,1.8204,1.8209,1.8144,1.8189,1.834,1.834,1.8661,1.9044,1.9044,1.9473,2.0031,2.0552,2.1086,2.1619,2.2091,2.2249,2.231,2.2628,2.2689,2.2763,2.3017,2.3078,2.3078,2.3078,2.3078,2.3078,2.3078,2.3078,2.3078,2.3078,2.3078,2.3078,2.3078,2.3078,2.3078,2.3078,2.3078,2.3078,2.3078,2.3078,2.3078,2.3078,2.3078,2.3078,2.3078,2.3901,2.4632,2.5069,2.653,2.755,2.7982,2.8669,2.8974,2.8974,2.9577,2.986,2.9856,3.0433,3.036,-0.0,-0.0,0.0,-0.0,-0.1724,0.0,-0.4294,0.0,0.0,0.0,0.0,0.0,0.0,-0.4403,-0.4634,-0.4539,-0.4482,-0.394,0.0,0.1729,0.0,0.0,0.0,0.0,0.0,0.0,0.9524,1.1191,1.1807,0.0,0.0,0.0,1.4531,1.3975,1.4236,1.4401,1.4344,1.4776,1.5152,1.5344,1.5344,1.5555,1.5908,1.5908,1.6151,1.6522,1.6522,1.6522,1.6522,1.6522,1.6522,1.6622,1.7765,1.8204,1.8282,1.8875,1.9097,1.9097,1.9097,1.9423,1.9798,1.9798,2.0188,2.0819,2.133,2.187,2.2422,2.2975,2.3078,2.3078,2.3078,2.3078,2.3078,2.3078,2.3078,2.3078,2.3078,2.3078,2.3078,2.3078,2.3078,2.3078,2.3078,2.3078,2.3078,2.3078,2.3078,2.3078,2.3078,2.3078,2.3078,2.3078,2.3078,2.3078,2.3078,2.3359,2.3555,2.3555,2.4606,2.5308,2.5586,2.7248,2.826,2.8569,2.9435,2.9914,2.9914,3.0468,3.0746,3.0746,3.1275,3.1202]},{"header":{"parameterUnit":"m.s-1","parameterCategory":1,"la1":30.6,"la2":29.2853,"lo1":-89.7004,"lo2":-87.6739,"dy":0.0162,"dx":0.0183,"nx":112,"ny":82,"refTime":"2024-09-14T12:00:00:Z","depth":0,"parameterNumber":3,"parameterNumberName":"V-component_of_WINDS"},"data":[0.0,0.0,0.0,0.0,0.0,0.0,0.0,0.0,0.0,0.0,0.0,0.0,0.0,0.0,0.0,0.0,0.0,0.0,0.0,0.0,0.0,0.0,0.0,0.0,0.0,0.0,0.0,0.0,0.0,0.0,0.0,0.0,0.0,0.0,0.0,0.0,0.0,0.0,0.0,0.0,0.0,0.0,0.0,0.0,0.0,0.0,0.0,0.0,0.0,0.0,0.0,0.0,0.0,0.0,0.0,0.0,0.0,0.0,0.0,0.0,0.0,0.0,0.0,0.0,0.0,0.0,0.0,0.0,0.0,0.0,0.0,0.0,0.0,0.0,0.0,0.0,0.0,0.0,0.0,0.0,0.0,0.0,0.0,0.0,0.0,0.0,0.0,0.0,0.0,0.0,-1.4744,-1.2849,-1.1774,-1.1328,-1.1538,-1.3971,-1.5858,-1.674,0.0,0.0,0.0,0.0,0.0,0.0,0.0,0.0,0.0,0.0,0.0,0.0,0.0,0.0,0.0,0.0,0.0,0.0,0.0,0.0,0.0,0.0,0.0,0.0,0.0,0.0,0.0,0.0,0.0,0.0,0.0,0.0,0.0,0.0,0.0,0.0,0.0,0.0,0.0,0.0,0.0,0.0,0.0,0.0,0.0,0.0,0.0,0.0,0.0,0.0,0.0,0.0,0.0,0.0,0.0,0.0,0.0,0.0,0.0,0.0,0.0,0.0,0.0,0.0,0.0,0.0,0.0,0.0,0.0,0.0,0.0,0.0,0.0,0.0,0.0,0.0,0.0,0.0,0.0,0.0,0.0,0.0,0.0,0.0,0.0,0.0,0.0,0.0,0.0,0.0,0.0,0.0,0.0,0.0,0.0,0.0,0.0,0.0,0.0,0.0,0.0,0.0,0.0,0.0,-1.4601,-1.1466,-1.0989,-1.1099,-1.1704,-1.4042,-1.5753,-1.6361,0.0,0.0,0.0,0.0,0.0,0.0,0.0,0.0,0.0,0.0,0.0,0.0,0.0,0.0,0.0,0.0,0.0,0.0,0.0,0.0,0.0,0.0,0.0,0.0,0.0,0.0,0.0,0.0,0.0,0.0,0.0,0.0,0.0,0.0,0.0,0.0,0.0,0.0,0.0,0.0,0.0,0.0,0.0,0.0,0.0,0.0,0.0,0.0,0.0,0.0,0.0,0.0,0.0,0.0,0.0,0.0,0.0,0.0,0.0,0.0,0.0,0.0,0.0,0.0,0.0,0.0,0.0,0.0,0.0,0.0,0.0,0.0,0.0,0.0,0.0,0.0,0.0,0.0,0.0,0.0,0.0,0.0,0.0,0.0,0.0,0.0,0.0,0.0,0.0,0.0,0.0,0.0,0.0,0.0,0.0,0.0,0.0,0.0,0.0,0.0,0.0,0.0,0.0,-1.4627,-1.2956,-1.099,-1.1116,-1.1466,-1.1765,-1.4059,-1.573,-1.6291,-1.838,0.0,0.0,0.0,0.0,0.0,0.0,0.0,0.0,0.0,0.0,0.0,0.0,0.0,0.0,0.0,0.0,0.0,0.0,0.0,0.0,0.0,0.0,0.0,0.0,0.0,0.0,0.0,0.0,0.0,0.0,0.0,0.0,0.0,0.0,0.0,0.0,0.0,0.0,0.0,0.0,0.0,0.0,0.0,0.0,0.0,0.0,0.0,0.0,0.0,0.0,0.0,0.0,0.0,0.0,0.0,0.0,0.0,0.0,0.0,0.0,0.0,0.0,0.0,0.0,0.0,0.0,0.0,0.0,0.0,0.0,0.0,0.0,0.0,0.0,0.0,0.0,0.0,0.0,0.0,0.0,0.0,0.0,0.0,0.0,0.0,0.0,0.0,0.0,0.0,0.0,0.0,0.0,0.0,0.0,0.0,0.0,0.0,0.0,0.0,0.0,0.0,0.0,-1.3252,-1.1607,-1.1116,-1.1516,-1.1864,-1.203,-1.4073,-1.5602,-1.6278,-1.7949,0.0,0.0,0.0,0.0,0.0,0.0,0.0,0.0,0.0,0.0,0.0,0.0,0.0,0.0,0.0,0.0,0.0,0.0,0.0,0.0,0.0,0.0,0.0,0.0,0.0,0.0,0.0,0.0,0.0,0.0,0.0,0.0,0.0,0.0,0.0,0.0,0.0,0.0,0.0,0.0,0.0,0.0,0.0,0.0,0.0,0.0,0.0,0.0,0.0,0.0,0.0,0.0,0.0,0.0,0.0,0.0,0.0,0.0,0.0,0.0,0.0,0.0,0.0,0.0,0.0,0.0,0.0,0.0,0.0,0.0,0.0,0.0,0.0,0.0,0.0,0.0,0.0,0.0,0.0,0.0,0.0,0.0,0.0,0.0,0.0,0.0,0.0,0.0,0.0,0.0,0.0,0.0,0.0,0.0,0.0,0.0,0.0,0.0,0.0,0.0,0.0,0.0,-1.3222,-1.172,-1.1715,-1.1765,-1.208,-1.2774,-1.3999,-1.5174,-1.6253,-1.7581,0.0,0.0,0.0,0.0,0.0,0.0,0.0,0.0,0.0,0.0,0.0,0.0,0.0,0.0,0.0,0.0,0.0,0.0,0.0,0.0,0.0,0.0,0.0,0.0,0.0,0.0,0.0,0.0,0.0,0.0,0.0,0.0,0.0,0.0,0.0,0.0,0.0,0.0,0.0,0.0,0.0,0.0,0.0,0.0,0.0,0.0,0.0,0.0,0.0,0.0,0.0,0.0,0.0,0.0,0.0,0.0,0.0,0.0,0.0,0.0,0.0,0.0,0.0,0.0,0.0,0.0,0.0,0.0,0.0,0.0,0.0,0.0,0.0,0.0,0.0,0.0,0.0,0.0,0.0,0.0,0.0,0.0,0.0,0.0,0.0,0.0,0.0,0.0,0.0,0.0,0.0,0.0,0.0,0.0,0.0,0.0,0.0,0.0,0.0,0.0,0.0,0.0,-1.4383,-1.289,0.0,-1.2501,-1.2745,-1.342,-1.4247,-1.533,-1.6767,0.0,0.0,0.0,0.0,0.0,0.0,0.0,0.0,0.0,0.0,0.0,0.0,0.0,0.0,0.0,0.0,0.0,0.0,0.0,0.0,0.0,0.0,0.0,0.0,0.0,0.0,0.0,0.0,0.0,0.0,0.0,0.0,0.0,0.0,0.0,0.0,0.0,0.0,0.0,0.0,0.0,0.0,0.0,0.0,0.0,0.0,0.0,0.0,0.0,0.0,0.0,0.0,0.0,0.0,0.0,0.0,0.0,0.0,0.0,0.0,0.0,0.0,0.0,0.0,0.0,0.0,0.0,0.0,0.0,0.0,0.0,0.0,0.0,0.0,0.0,0.0,0.0,0.0,0.0,0.0,0.0,0.0,0.0,0.0,0.0,0.0,0.0,0.0,0.0,0.0,0.0,0.0,0.0,0.0,0.0,0.0,0.0,0.0,0.0,0.0,0.0,0.0,-1.7036,-1.5233,-1.3789,0.0,-1.3065,-1.3324,-1.3779,-1.4549,-1.5552,-1.686,0.0,0.0,0.0,0.0,0.0,0.0,0.0,0.0,0.0,0.0,0.0,0.0,0.0,0.0,0.0,0.0,0.0,0.0,0.0,0.0,0.0,0.0,0.0,0.0,0.0,0.0,0.0,0.0,0.0,0.0,0.0,0.0,0.0,0.0,0.0,0.0,0.0,0.0,0.0,0.0,0.0,0.0,0.0,0.0,0.0,0.0,0.0,0.0,0.0,0.0,0.0,0.0,0.0,0.0,0.0,0.0,0.0,0.0,0.0,0.0,0.0,0.0,0.0,0.0,0.0,0.0,0.0,0.0,0.0,0.0,0.0,0.0,0.0,0.0,0.0,0.0,0.0,0.0,0.0,0.0,0.0,0.0,0.0,0.0,0.0,0.0,0.0,0.0,0.0,0.0,0.0,0.0,0.0,0.0,0.0,0.0,0.0,0.0,0.0,0.0,0.0,0.0,-1.7195,-1.5651,-1.4247,-1.3065,-1.3467,-1.3826,-1.3815,-1.4903,-1.584,0.0,0.0,0.0,0.0,0.0,0.0,0.0,0.0,0.0,0.0,0.0,0.0,0.0,0.0,0.0,0.0,0.0,0.0,0.0,0.0,0.0,0.0,0.0,0.0,0.0,0.0,0.0,0.0,0.0,0.0,0.0,0.0,0.0,0.0,0.0,0.0,0.0,0.0,0.0,0.0,0.0,0.0,0.0,0.0,0.0,0.0,0.0,0.0,0.0,0.0,0.0,0.0,0.0,0.0,0.0,0.0,0.0,0.0,0.0,0.0,0.0,0.0,0.0,0.0,0.0,0.0,0.0,0.0,0.0,0.0,0.0,0.0,0.0,0.0,0.0,0.0,0.0,0.0,0.0,0.0,0.0,0.0,0.0,0.0,0.0,0.0,0.0,0.0,0.0,0.0,0.0,0.0,0.0,0.0,0.0,0.0,0.0,0.0,0.0,0.0,0.0,0.0,0.0,-1.8613,-1.6548,-1.4959,-1.4247,-1.3967,-1.4133,-1.5005,-1.541,-1.6176,-1.7518,0.0,0.0,0.0,0.0,0.0,0.0,0.0,0.0,0.0,0.0,0.0,0.0,0.0,0.0,0.0,0.0,0.0,0.0,0.0,0.0,0.0,0.0,0.0,0.0,0.0,0.0,0.0,0.0,0.0,0.0,0.0,0.0,0.0,0.0,0.0,0.0,0.0,0.0,0.0,0.0,0.0,0.0,0.0,0.0,0.0,0.0,0.0,0.0,0.0,0.0,0.0,0.0,0.0,0.0,0.0,0.0,0.0,0.0,0.0,0.0,0.0,0.0,0.0,0.0,0.0,0.0,0.0,0.0,0.0,0.0,0.0,0.0,0.0,0.0,0.0,0.0,0.0,0.0,0.0,0.0,0.0,0.0,0.0,0.0,0.0,0.0,0.0,0.0,0.0,0.0,0.0,0.0,0.0,0.0,0.0,0.0,0.0,0.0,0.0,0.0,0.0,0.0,-1.9011,-1.7063,-1.5584,-1.4789,-1.4595,-1.4812,-1.5543,-1.6015,-1.6689,-1.7706,0.0,0.0,0.0,0.0,0.0,0.0,0.0,0.0,0.0,0.0,0.0,0.0,0.0,0.0,0.0,0.0,0.0,0.0,0.0,0.0,0.0,0.0,0.0,0.0,0.0,0.0,0.0,0.0,0.0,0.0,0.0,0.0,0.0,0.0,0.0,0.0,0.0,0.0,0.0,0.0,0.0,0.0,0.0,0.0,0.0,0.0,0.0,0.0,0.0,0.0,0.0,0.0,0.0,0.0,0.0,0.0,0.0,0.0,0.0,0.0,0.0,0.0,0.0,0.0,0.0,0.0,0.0,0.0,0.0,0.0,0.0,0.0,0.0,0.0,0.0,0.0,0.0,0.0,0.0,0.0,0.0,0.0,0.0,0.0,0.0,0.0,0.0,0.0,0.0,0.0,0.0,0.0,0.0,0.0,0.0,0.0,0.0,0.0,0.0,0.0,0.0,0.0,-1.8939,-1.7437,-1.6151,-1.5129,-1.5443,-1.5752,-1.584,-1.6786,-1.7394,-1.7463,0.0,0.0,0.0,0.0,0.0,0.0,0.0,0.0,0.0,0.0,0.0,0.0,0.0,0.0,0.0,0.0,0.0,0.0,0.0,0.0,0.0,0.0,0.0,0.0,0.0,0.0,0.0,0.0,0.0,0.0,0.0,0.0,0.0,0.0,0.0,0.0,0.0,0.0,0.0,0.0,0.0,0.0,0.0,0.0,0.0,0.0,0.0,0.0,0.0,0.0,0.0,0.0,0.0,0.0,0.0,0.0,0.0,0.0,0.0,0.0,-2.7953,0.0,0.0,0.0,0.0,0.0,0.0,0.0,0.0,0.0,0.0,0.0,0.0,0.0,0.0,0.0,0.0,0.0,0.0,0.0,0.0,0.0,0.0,0.0,0.0,0.0,0.0,0.0,0.0,0.0,0.0,0.0,0.0,0.0,0.0,0.0,0.0,0.0,0.0,0.0,0.0,0.0,-2.0351,-1.8745,-1.7585,-1.7369,-1.7068,-1.7068,-1.7518,-1.7773,-1.8106,-1.8535,-1.9111,0.0,0.0,0.0,0.0,0.0,0.0,0.0,0.0,0.0,0.0,0.0,0.0,0.0,0.0,0.0,0.0,0.0,0.0,0.0,0.0,0.0,0.0,0.0,0.0,0.0,0.0,0.0,0.0,0.0,0.0,0.0,0.0,0.0,0.0,0.0,0.0,0.0,0.0,0.0,0.0,0.0,0.0,0.0,0.0,0.0,0.0,0.0,0.0,0.0,0.0,0.0,0.0,0.0,0.0,0.0,0.0,0.0,0.0,0.0,0.0,-2.9225,0.0,0.0,0.0,0.0,0.0,0.0,0.0,0.0,0.0,0.0,0.0,0.0,0.0,0.0,0.0,0.0,0.0,0.0,0.0,0.0,0.0,0.0,0.0,0.0,0.0,0.0,0.0,0.0,0.0,0.0,0.0,0.0,0.0,0.0,0.0,0.0,0.0,0.0,0.0,0.0,-2.0278,-1.9156,-1.8338,-1.8131,-1.784,-1.7746,-1.8052,-1.8341,-1.8612,-1.8893,-1.9549,0.0,0.0,0.0,0.0,0.0,0.0,0.0,0.0,0.0,0.0,0.0,0.0,0.0,0.0,0.0,0.0,0.0,0.0,0.0,0.0,0.0,0.0,0.0,0.0,0.0,0.0,0.0,0.0,0.0,0.0,0.0,0.0,0.0,0.0,0.0,0.0,0.0,0.0,0.0,0.0,0.0,0.0,0.0,0.0,0.0,0.0,0.0,0.0,0.0,0.0,0.0,0.0,0.0,-3.293,-3.2751,-3.2243,-3.2781,-3.3036,-3.2976,-3.1854,-3.1509,-3.1569,-2.9834,0.0,0.0,0.0,0.0,0.0,0.0,0.0,0.0,0.0,0.0,0.0,0.0,0.0,0.0,0.0,0.0,0.0,0.0,0.0,0.0,0.0,0.0,0.0,0.0,-3.0438,-2.9996,0.0,0.0,0.0,0.0,0.0,0.0,0.0,0.0,0.0,0.0,0.0,0.0,-1.9993,-1.9528,-1.9051,-1.8545,-1.8468,-1.8482,-1.8366,-1.8779,-1.908,-1.914,-1.9889,-2.0585,0.0,0.0,0.0,0.0,0.0,0.0,0.0,0.0,0.0,0.0,0.0,0.0,0.0,0.0,0.0,0.0,0.0,0.0,0.0,0.0,0.0,0.0,0.0,0.0,0.0,0.0,0.0,0.0,0.0,0.0,0.0,0.0,-3.6638,-3.7648,0.0,0.0,0.0,0.0,0.0,0.0,0.0,0.0,0.0,0.0,0.0,0.0,0.0,-3.4048,-3.3382,-3.45,-3.4819,-3.4207,-3.4835,-3.507,-3.4996,-3.507,-3.5115,-3.51,-3.4921,0.0,-3.2317,-3.148,0.0,0.0,0.0,0.0,0.0,0.0,0.0,0.0,0.0,0.0,0.0,0.0,0.0,0.0,0.0,0.0,0.0,0.0,0.0,0.0,0.0,0.0,-3.2866,-3.2336,-3.1758,-3.1373,0.0,-2.9253,-2.7357,-2.7723,-2.633,0.0,0.0,0.0,0.0,0.0,0.0,0.0,-2.0878,-2.0748,-2.0534,-2.0058,-2.0024,-1.9864,-1.9515,-1.9566,-1.9752,-2.0108,-2.0409,-2.0863,-2.1491,-2.2785,0.0,0.0,0.0,0.0,0.0,0.0,0.0,0.0,0.0,0.0,0.0,0.0,0.0,0.0,0.0,0.0,0.0,0.0,0.0,0.0,0.0,0.0,0.0,0.0,0.0,0.0,0.0,0.0,0.0,-3.5283,-3.7252,-3.7825,-3.8376,-3.7902,0.0,0.0,0.0,0.0,0.0,0.0,0.0,0.0,0.0,-3.4209,-3.476,-3.4895,-3.4576,-3.5167,-3.5344,-3.5055,-3.5355,-3.5504,-3.5504,-3.5958,-3.6117,-3.6165,-3.66,-3.6315,-3.5338,-3.338,-3.2863,-3.313,0.0,0.0,0.0,0.0,-3.4742,-3.4776,-3.5723,-3.5291,0.0,-3.3913,0.0,0.0,0.0,0.0,0.0,0.0,0.0,0.0,0.0,0.0,0.0,-3.3743,-3.3412,-3.311,-3.2967,-3.1491,-3.0026,0.0,-2.885,-2.79,-2.6032,0.0,0.0,0.0,0.0,-2.2081,-2.1665,-2.1263,-2.0926,-2.0731,-2.0682,-2.0632,-2.0447,-2.0447,-2.0514,-2.0682,-2.0974,-2.1287,-2.1582,-2.2878,-2.354,0.0,0.0,0.0,0.0,0.0,0.0,0.0,0.0,0.0,0.0,0.0,0.0,0.0,0.0,0.0,0.0,0.0,0.0,0.0,0.0,0.0,0.0,0.0,0.0,0.0,0.0,0.0,0.0,-3.6496,-3.7982,-3.8479,-3.9756,-3.9442,0.0,0.0,0.0,0.0,0.0,0.0,-3.581,-3.5843,-3.561,-3.4963,-3.5323,-3.5505,-3.5504,-3.5504,-3.5504,-3.5504,-3.5668,-3.5782,-3.5782,-3.6569,-3.6904,-3.6904,-3.7515,-3.7822,-3.761,-3.5285,-3.4654,-3.5086,-3.4591,-3.5038,-3.6001,-3.6793,-3.6823,-3.6705,-3.8193,-3.7767,-3.6538,-3.6514,0.0,-3.3765,-3.2454,0.0,0.0,0.0,0.0,-3.3102,-3.4201,-3.4489,-3.4438,-3.4252,-3.4066,-3.3778,-3.3237,-3.2527,-3.1732,0.0,-3.0801,-3.0074,-2.7435,0.0,0.0,0.0,0.0,-2.2714,-2.2313,-2.1713,-2.1291,-2.115,-2.115,-2.1118,-2.1007,-2.0991,-2.1023,-2.115,-2.1413,-2.1625,-2.1764,-2.3257,-2.4136,-2.4292,0.0,0.0,0.0,0.0,0.0,0.0,0.0,0.0,0.0,0.0,0.0,0.0,0.0,0.0,0.0,0.0,0.0,0.0,0.0,0.0,0.0,0.0,0.0,0.0,0.0,0.0,0.0,0.0,0.0,-4.1035,-4.1575,0.0,0.0,0.0,0.0,-3.8474,-3.7782,-3.745,-3.7642,-3.7009,-3.6616,-3.6476,-3.5819,-3.5524,-3.5504,-3.5504,-3.5504,-3.5504,-3.6228,-3.6554,-3.6554,-3.7397,-3.7748,-3.7748,-3.7748,-3.7822,-3.7758,-3.6933,-3.6654,-3.6708,-3.664,-3.6686,-3.6854,-3.7547,-3.8261,-3.8751,-3.8159,-3.8362,-3.8821,-3.8836,-3.7347,-3.5357,-3.4573,-3.3339,0.0,0.0,-3.4387,-3.4404,-3.4472,-3.4489,-3.432,-3.3626,-3.2916,-3.2374,-3.2341,-3.1765,-3.1427,0.0,-3.1089,-2.9651,-2.8009,0.0,-2.6051,-2.4183,-2.3575,-2.321,-2.2745,-2.2408,-2.2061,-2.1628,-2.1552,-2.1399,-2.1023,-2.0991,-2.115,-2.1552,-2.1469,-2.1665,-2.2237,-2.4596,-2.5272,-2.405,-2.5269,0.0,0.0,0.0,0.0,0.0,0.0,0.0,0.0,0.0,0.0,0.0,0.0,0.0,0.0,0.0,0.0,0.0,0.0,0.0,0.0,0.0,0.0,0.0,0.0,0.0,0.0,0.0,0.0,-4.061,-4.1437,0.0,-3.9087,-3.8938,-3.8872,-3.8579,-3.8756,-3.8768,-3.8533,-3.8259,-3.7858,-3.7381,-3.7115,-3.6951,-3.6951,-3.6951,-3.6951,-3.7011,-3.7219,-3.7397,-3.7397,-3.8189,-3.8525,-3.8525,-3.9049,-3.9279,-3.9262,-3.9049,-3.8636,-3.8155,-3.8179,-3.8482,-3.8942,-3.9243,-3.9462,-3.958,-3.8853,-3.8768,-3.8836,-3.7872,-3.6688,-3.5571,-3.5301,-3.4844,-3.4539,-3.5064,-3.4861,-3.4489,-3.4489,-3.415,-3.3609,-3.2865,-3.2476,-3.2154,-3.1681,-3.1004,-3.0581,-3.0835,-3.0463,-2.9786,-2.8738,-2.7926,-2.7012,-2.5883,-2.4801,-2.4056,-2.3869,-2.295,-2.2237,-2.2077,-2.2032,-2.2003,-2.1857,-2.1857,-2.1915,-2.2032,-2.2158,-2.2317,-2.2563,-2.4077,-2.5057,-2.5354,-2.5793,-2.6055,0.0,0.0,0.0,0.0,0.0,0.0,0.0,0.0,0.0,0.0,0.0,0.0,0.0,0.0,0.0,0.0,0.0,0.0,0.0,0.0,0.0,0.0,0.0,0.0,0.0,-3.9339,-4.0298,-4.0426,-4.1309,-4.1089,-3.8957,-3.9451,-3.9748,-3.9368,-3.964,-3.9659,-3.9335,-3.9032,-3.869,-3.8206,-3.7921,-3.7822,-3.7822,-3.7822,-3.7822,-3.7822,-3.8035,-3.8149,-3.8206,-3.8978,-3.9315,-3.9315,-3.985,-4.007,-4.0054,-3.9817,-3.9412,-3.8983,-3.9215,-3.961,-4.0054,-3.98,-3.9715,-3.9597,-3.887,-3.8633,-3.8461,-3.7376,-3.6582,-3.6005,-3.5895,-3.5739,-3.5571,-3.5318,-3.4878,-3.4387,-3.388,-3.3389,-3.2831,-3.2087,-3.1732,-3.141,-3.0937,-3.0243,-2.9736,-2.9736,-2.9736,-2.9482,-2.8721,-2.8163,-2.7486,-2.6488,-2.527,-2.4421,-2.4154,-2.3054,-2.231,-2.231,-2.231,-2.231,-2.231,-2.231,-2.231,-2.231,-2.2563,-2.2695,-2.2695,-2.3851,-2.4867,-2.5682,-2.5837,-2.6174,-2.6654,0.0,0.0,0.0,0.0,0.0,0.0,0.0,0.0,0.0,0.0,0.0,0.0,0.0,0.0,0.0,0.0,0.0,0.0,0.0,0.0,0.0,0.0,0.0,-3.8987,-3.9935,-4.0653,-4.0741,-4.1363,-4.1467,-4.0683,-4.0742,-4.0874,-4.0874,-4.0417,-4.007,-4.007,-3.9368,-3.8908,-3.8908,-3.8246,-3.7863,-3.7863,-3.7863,-3.7863,-3.7863,-3.858,-3.8908,-3.8962,-3.9697,-4.0054,-4.007,-4.002,-4.002,-3.9986,-3.9259,-3.8954,-3.9039,-3.9732,-4.0003,-3.9918,-3.9225,-3.8937,-3.8868,-3.8156,-3.7902,-3.7844,-3.7594,-3.7195,-3.6769,-3.649,-3.6037,-3.5419,-3.4735,-3.4498,-3.4083,-3.2645,-3.2256,-3.207,-3.1326,-3.0615,-3.0108,-3.0074,-2.9482,-2.8941,-2.8941,-2.8924,-2.8687,-2.7943,-2.7772,-2.7249,-2.5828,-2.4966,0.0,-2.3477,-2.2767,-2.231,-2.231,-2.231,-2.2327,-2.2344,-2.2344,-2.2344,-2.2344,-2.2624,-2.2781,-2.2781,-2.4135,-2.4942,-2.5,-2.5611,-2.6039,-2.6301,0.0,0.0,0.0,0.0,0.0,0.0,0.0,0.0,0.0,0.0,0.0,0.0,0.0,0.0,0.0,0.0,0.0,0.0,0.0,0.0,0.0,-3.9122,-4.0874,-4.0874,-4.1254,-4.1697,-4.2086,-4.1587,-4.108,-4.0837,-4.0504,-4.0336,-4.0336,-4.0154,-4.007,-4.007,-3.9901,-3.9782,-3.9782,-3.9558,-3.9454,-3.9454,-3.9454,-3.9454,-3.9454,-3.9662,-3.9782,-3.9765,-3.9479,-3.958,-4.002,-3.8954,-3.8802,-3.9242,-3.8514,-3.821,-3.8227,-3.843,-3.8497,-3.8481,-3.8278,-3.8086,-3.7929,-3.8111,-3.7825,-3.7358,-3.7308,-3.7198,-3.7084,-3.7013,-3.6242,-3.5346,-3.5139,-3.4028,-3.2797,-3.2432,-3.1884,-3.1309,-3.0581,-3.026,-2.9956,-2.9414,-2.8687,-2.8146,-2.8146,-2.7706,-2.7435,-2.7774,-2.7368,-2.6691,-2.5744,-2.4966,0.0,-2.3477,-2.2767,-2.231,-2.231,-2.231,-2.253,-2.3054,-2.3356,-2.3522,-2.345,-2.3975,-2.4313,-2.4313,-2.4925,-2.5878,-2.7187,-2.8234,-2.8768,0.0,0.0,0.0,0.0,0.0,0.0,0.0,0.0,0.0,0.0,0.0,0.0,0.0,0.0,0.0,0.0,0.0,0.0,0.0,0.0,0.0,0.0,-4.0391,-4.2169,-4.2368,-4.1991,-4.1796,-4.2136,-4.1091,-4.0464,-4.0761,-4.0516,-4.044,-4.0797,-4.0814,-4.0814,-4.0814,-4.0814,-4.0672,-4.0449,-4.0672,-4.0672,-4.0449,-4.0466,-4.0546,-4.0814,-4.0237,-4.0083,-4.0284,-3.9526,-3.9422,0.0,-3.8922,-3.8784,-3.9129,-3.8387,-3.8077,0.0,0.0,0.0,0.0,0.0,-3.7577,-3.7411,-3.7747,-3.7562,-3.721,-3.7433,-3.7128,-3.6714,-3.6916,-3.6091,-3.4993,-3.4679,-3.3737,-3.2748,-3.2438,-3.1817,-3.1127,-3.0696,-3.011,-2.9541,-2.9092,-2.8385,-2.7833,-2.7833,-2.752,0.0,-2.7764,-2.7196,-2.6336,-2.5304,-2.4763,-2.4133,-2.3071,-2.2581,-2.2349,-2.2463,-2.2463,-2.2716,-2.3264,-2.3833,0.0,0.0,0.0,-2.562,-2.6099,-2.6399,0.0,0.0,0.0,0.0,0.0,0.0,0.0,0.0,-3.161,-3.2545,0.0,0.0,0.0,0.0,0.0,0.0,0.0,0.0,0.0,0.0,0.0,0.0,0.0,0.0,0.0,0.0,-4.133,-4.2989,-4.3327,-4.2213,-4.1359,-4.1412,-4.0232,-3.9676,-4.0382,-4.0541,-4.0901,-4.1616,-4.1757,-4.181,-4.181,0.0,0.0,0.0,0.0,-4.1534,-4.0995,-4.0909,-4.1128,-4.1669,-4.0333,-3.9966,-4.0418,-3.964,-3.9323,-3.9393,-3.9217,-3.9199,-3.9217,-3.8496,-3.8217,-3.8288,-3.837,-3.8178,-3.7814,-3.762,-3.7351,-3.7161,-3.7198,0.0,0.0,-3.7572,-3.6931,-3.6025,-3.6528,-3.5733,-3.4518,-3.3879,-3.3597,-3.3315,-3.2555,-3.183,-3.1264,-3.1087,-3.0008,-2.8983,-2.8894,-2.8375,-2.7897,-2.7897,-2.7826,-2.7756,-2.7756,-2.7234,-2.633,-2.4832,-2.4611,-2.4083,-2.2592,-2.2388,-2.249,-2.2721,0.0,0.0,-2.3289,-2.4105,-2.4573,-2.4573,-2.5685,-2.6781,-2.7794,-2.8388,-2.9326,-3.0635,-2.9063,-2.9593,-3.2378,-3.4491,-3.5515,-3.5512,-3.5888,-3.6054,0.0,0.0,0.0,0.0,0.0,0.0,0.0,0.0,0.0,0.0,0.0,0.0,0.0,0.0,0.0,-4.0821,-4.234,-4.3177,-4.2598,-4.176,-4.1227,-4.1395,-4.0232,-3.9464,-3.9623,-4.0206,-4.0671,-4.0831,-4.1414,-4.181,-4.181,-4.181,-4.1768,-4.1621,-4.175,-4.175,-4.1621,-4.0961,-4.0722,-4.0831,0.0,0.0,-3.9605,-3.8846,-3.8828,-3.934,-3.8125,-3.7948,-3.8479,-3.7739,-3.7628,-3.7918,-3.7583,-3.74,-3.7382,-3.77,-3.738,-3.6854,-3.7303,-3.7015,-3.6498,-3.6577,-3.6419,-3.6231,-3.6339,-3.5478,0.0,-3.4285,-3.3508,-3.2519,-3.1741,-3.1423,-3.0999,-2.9743,-2.9213,-2.8841,-2.8251,-2.8003,-2.7897,-2.7897,-2.7374,-2.6922,-2.6922,-2.7331,-2.7122,-2.5542,-2.5296,-2.4734,-2.3207,-2.3014,-2.3038,-2.3093,-2.3093,-2.3364,-2.4025,-2.5117,-2.5751,-2.5685,-2.6961,-2.7825,-2.8031,-3.0428,-3.1575,-3.1162,-3.2977,-3.3766,-3.3478,-3.4839,-3.5493,-3.5575,-3.8271,-3.9532,0.0,0.0,0.0,0.0,0.0,0.0,0.0,0.0,0.0,0.0,0.0,-3.7206,-3.8555,0.0,-4.1316,-4.2254,-4.2978,-4.3241,-4.285,-4.1733,-4.0866,-4.068,-3.9696,-3.9193,-3.9626,-4.0022,-4.0581,-4.1375,-4.1845,-4.2242,-4.2621,-4.2639,-4.2523,-4.2262,-4.2106,-4.189,-4.1618,-4.081,-4.0551,-4.0852,-3.9745,-3.9369,-3.9626,-3.8851,-3.8706,-3.8995,-3.829,-3.8164,-3.8472,-3.811,-3.7848,-3.7699,-3.7453,-3.7334,-3.7334,-3.7316,-3.6979,-3.6534,-3.6813,-3.6633,-3.6303,-3.6303,-3.6009,-3.5661,-3.5661,-3.4914,-3.4095,-3.4095,-3.335,-3.2451,-3.2036,-3.1351,-3.0576,-2.9764,-2.9296,-2.8899,-2.8546,-2.8456,-2.833,-2.7933,-2.7511,-2.7114,-2.6736,-2.6988,-2.6727,-2.5144,-2.4916,-2.4491,-2.3348,-2.3189,-2.3259,-2.3414,-2.3437,-2.3683,-2.4208,-2.5542,-2.6668,-2.7445,-2.8294,-2.8928,-2.9338,-3.1025,-3.1936,-3.1901,-3.4271,-3.5213,-3.4635,-3.5218,-3.5493,-3.5537,-3.7222,-3.7993,0.0,0.0,0.0,0.0,0.0,0.0,0.0,-3.5878,-3.6295,-3.7276,-3.8027,-3.8869,-4.0101,-4.1377,-4.2436,-4.295,-4.3045,-4.2989,-4.2838,-4.1493,-4.0321,-3.9671,-3.9158,-3.9132,-3.9778,-3.9981,-4.0597,-4.1907,-4.2147,-4.2516,-4.3162,-4.3199,-4.2981,-4.2523,-4.2292,-4.1925,-4.1433,-4.0582,-4.0429,-4.0933,-3.9577,-3.9213,-3.9643,-3.9001,-3.8707,-3.8689,-3.8524,-3.8469,-3.845,-3.8303,-3.7845,-3.7257,-3.7257,-3.7147,-3.6989,-3.6712,-3.637,-3.6046,-3.6046,-3.5954,-3.5807,-3.5807,-3.5349,-3.4752,-3.4752,-3.4321,-3.377,-3.3605,-3.3109,-3.254,-3.2228,-3.1182,-3.0173,-3.0008,-2.9475,-2.8957,-2.8792,-2.8778,-2.8539,-2.7714,-2.7438,-2.7126,-2.6484,-2.6245,-2.5765,-2.4665,-2.4521,-2.4236,-2.3499,-2.3392,-2.35,-2.3774,-2.3795,-2.4044,-2.4611,-2.5754,-2.7172,-2.8956,-2.9204,-2.9644,-3.0449,-3.1054,-3.1675,-3.2329,-3.426,-3.5258,-3.5258,-3.5443,-3.5526,-3.5526,-3.5526,-3.5518,-3.7308,-3.5889,-3.5162,-3.7233,-3.6183,-3.5588,0.0,-3.8965,-3.8349,-3.9927,-4.0254,-4.0406,-4.1036,-4.132,-4.1597,-4.207,-4.2153,-4.1908,-4.1173,-4.025,-3.9359,-3.8573,-3.9086,-3.9543,-3.9637,-4.029,-4.0773,-4.0961,-4.1612,-4.2063,-4.2156,-4.2175,-4.2015,-4.1728,-4.1683,-4.1646,-4.1598,-4.0473,-4.0081,-4.0393,-3.9271,-3.8755,-3.8836,-3.8744,-3.8707,-3.867,-3.7936,-3.7624,-3.7569,-3.6853,-3.6523,-3.6431,-3.6431,-3.5973,-3.5357,-3.608,-3.5823,-3.5137,-3.5137,-3.4688,-3.4082,-3.4082,-3.4009,-3.3935,-3.3935,-3.3862,-3.3642,-3.2944,-3.2687,-3.2284,-3.0852,-3.0338,-3.0026,-2.931,-2.9067,-2.8792,-2.8081,-2.7934,-2.7695,-2.6888,-2.6153,-2.5642,-2.555,-2.4942,-2.4647,-2.5191,-2.5283,-2.499,-2.4203,-2.4094,-2.4094,-2.4151,-2.4151,-2.4737,-2.6209,-2.6022,-2.6823,-2.9202,-2.9051,-2.9235,-3.0034,-3.109,-3.1712,-3.1776,-3.3468,-3.4347,-3.4347,-3.518,-3.5603,-3.5603,-3.5603,-3.557,-3.7143,-3.6989,-3.6911,-3.7555,-3.8007,-3.8606,-3.9869,-3.9565,-3.922,-3.9918,-4.0392,-4.0742,-4.0969,-4.1853,-4.2564,-4.2679,-4.2316,-4.1857,-4.1437,-4.0215,-3.9261,-3.8917,-3.924,-3.9318,-3.8886,-3.9161,-3.9741,-4.0721,-4.1116,-4.1512,-4.1983,-4.1996,-4.1945,-4.1833,-4.1383,-4.1121,-4.1121,-4.0184,-3.978,-3.989,-3.9444,-3.9216,-3.9216,-3.9216,-3.8867,-3.8164,-3.7227,-3.6798,-3.678,-3.6431,-3.6009,-3.555,-3.555,-3.5037,-3.4412,-3.5238,-3.5037,-3.4302,-3.4302,-3.4082,-3.3807,-3.3807,-3.3807,-3.3715,-3.3238,-3.3109,-3.2926,-3.2137,-3.1568,-3.1054,-3.0375,-2.9861,-2.9439,-2.9067,-2.8994,-2.8902,-2.8576,-2.8136,-2.7548,-2.6759,-2.5952,-2.5256,-2.4777,-2.441,-2.43,-2.4649,-2.4685,-2.4575,-2.4245,-2.419,-2.419,-2.419,-2.4303,-2.4856,-2.5967,-2.6374,-2.7225,-2.8708,-2.9257,-2.9637,-2.998,-3.0599,-3.0948,-3.0948,-3.2167,-3.3045,-3.3558,-3.4493,-3.5193,-3.566,-3.5699,-3.5699,-3.6376,-3.6903,-3.7344,-3.7305,-3.8652,-3.9883,-3.9492,-3.9331,-3.9273,-3.9275,-3.9714,-4.0113,-4.0113,-4.1137,-4.2044,-4.2174,-4.172,-4.1296,-4.1204,-3.9935,-3.9012,-3.9008,-3.8849,-3.8731,-3.8649,-3.8632,-3.9176,-4.0618,-4.0501,-4.0729,-4.1544,-4.1601,-4.1537,-4.1487,-4.0919,-4.0598,-4.0598,-3.9947,-3.9645,-3.9754,-3.9645,-3.9467,-3.9241,-3.901,-3.8461,-3.7617,-3.6623,-3.6202,-3.6184,-3.5962,-3.5473,-3.4918,-3.4918,-3.4548,-3.4129,-3.4696,-3.4444,-3.3807,-3.3807,-3.3807,-3.3807,-3.3807,-3.3642,-3.3366,-3.2797,-3.2467,-3.21,-3.1292,-3.065,-3.0178,-3.001,-2.9554,-2.9115,-2.9185,-2.9185,-2.9129,-2.891,-2.8225,-2.7411,-2.6596,-2.5782,-2.5042,-2.4468,-2.4357,-2.4357,-2.4357,-2.4357,-2.4339,-2.4209,-2.4247,-2.4284,-2.4284,-2.4461,-2.4895,-2.5719,-2.6271,-2.7131,-2.8436,-2.9074,-2.9625,-3.0084,-3.0299,-3.0398,-3.0417,-3.134,-3.2119,-3.2761,-3.3955,-3.4704,-3.5047,-3.5604,-3.5859,-3.4885,-3.4704,-3.5137,-3.6875,-3.7363,-3.7637,-3.8457,-3.8535,-3.8437,-3.8437,-3.84,-3.8377,-3.8377,-3.8416,-3.8727,-3.9571,-3.9676,-3.9665,-3.9665,-3.8904,-3.8328,-3.8334,-3.7593,-3.7718,-3.9393,-3.9449,-3.9681,-4.0454,-3.9781,-3.9704,-4.0492,-4.055,-4.0432,-4.0177,-4.0119,-4.0119,-4.0119,-3.9775,-3.9775,-4.0081,-3.9754,-3.9165,-3.829,-3.7536,-3.7156,-3.7081,-3.6252,-3.5916,-3.5859,-3.5068,-3.473,-3.4711,-3.4711,-3.4693,-3.4693,-3.4711,-3.4321,-3.3807,-3.3807,-3.3807,-3.3807,-3.3807,-3.3275,-3.2632,-3.2614,-3.2063,-3.1256,-3.0467,-3.0228,-3.0079,-2.9572,-2.9411,-2.9434,-2.9625,-2.9678,-2.947,-2.8676,-2.7846,-2.6981,-2.6167,-2.5374,-2.4808,-2.479,-2.479,-2.479,-2.479,-2.479,-2.4639,-2.4266,-2.4375,-2.4495,-2.4495,-2.467,-2.5114,-2.5913,-2.5416,-2.6143,-2.8627,-2.8279,-2.8687,-3.0321,-3.0398,-3.0417,-3.0506,-3.1359,-3.1853,-3.1948,-3.3735,-3.4178,-3.3429,-3.5174,-3.6002,-3.4468,-3.5243,-3.6287,-3.6947,-3.7542,-3.8029,-3.8322,-3.7912,-3.7327,-3.677,-3.6699,-3.6523,-3.5957,-3.6836,-3.789,-3.8673,-3.9291,-3.9656,-3.9607,-3.9363,-3.8946,-3.8374,-3.86,-3.8992,-3.9551,-3.9035,0.0,-4.0607,-3.9946,-3.9835,-4.06,-4.0639,-4.0303,-3.9588,-3.9569,-3.9282,-3.8706,-3.8584,-3.8584,-3.8706,-3.8584,-3.8378,-3.8054,-3.7052,-3.6559,-3.6502,-3.5529,-3.5109,-3.509,-3.4807,-3.4694,-3.4694,-3.4694,-3.4694,-3.4694,-3.4694,-3.4212,-3.3601,-3.3937,-3.3817,-3.3504,-3.3314,-3.2809,-3.2163,-3.1643,-3.1287,-3.0895,-3.0092,-2.9868,-2.9831,-2.9664,-2.9607,-2.9626,-2.9678,-2.9696,-2.9638,-2.9355,-2.8655,-2.7975,-2.7708,-2.7009,-2.6458,-2.6458,-2.5989,-2.5427,-2.4879,-2.4804,-2.4746,-2.4607,-2.4654,-2.47,-2.47,-2.4836,-2.5038,-2.531,-2.5776,-2.6661,-2.8099,-2.8522,-2.9236,-3.0429,-3.0467,-3.0506,-3.0564,-3.091,-3.1372,-3.1971,-3.2662,-3.3137,-3.3371,-3.3994,-3.4261,-3.3846,-3.4689,-3.5563,-3.5639,-3.6065,-3.6472,-3.6472,-3.6289,-3.5872,-3.5044,-3.4911,-3.4768,-3.4203,-3.4791,-3.5923,-3.7616,-3.8378,-3.8938,-3.9524,-3.9596,-3.939,-3.8863,-3.9335,-3.9828,-4.0135,-3.9388,-3.9412,-4.0699,-4.0055,-3.9811,-4.0282,-4.0314,-3.9892,-3.8973,-3.895,-3.8642,-3.8027,-3.8041,-3.8007,-3.8007,-3.768,-3.7546,-3.7507,-3.6469,-3.6004,-3.5985,-3.5299,-3.4981,-3.4981,-3.4981,-3.4981,-3.4981,-3.4981,-3.4791,-3.4524,-3.4524,-3.3973,-3.3295,-3.3738,-3.3473,-3.2899,-3.2732,-3.2214,-3.1582,-3.1054,-3.0714,-3.0356,-2.9847,-2.9696,-2.9731,-2.978,-2.9813,-2.9829,-2.9927,-2.9962,-2.9962,-2.9962,-2.9311,-2.8717,-2.8717,-2.8051,-2.7513,-2.7513,-2.7043,-2.651,-2.5996,-2.592,-2.5639,-2.4894,-2.4842,-2.4864,-2.4864,-2.5018,-2.5099,-2.5099,-2.5742,-2.664,-2.7832,-2.842,-2.9248,-3.0448,-3.0528,-3.0577,-3.0621,-3.0679,-3.1002,-3.1608,-3.2012,-3.2305,-3.2519,-3.3125,-3.3242,-3.2981,-3.307,-3.3108,-3.3173,-3.3192,-3.3192,-3.3192,-3.382,-3.4172,-3.3295,-3.313,-3.3113,-3.3076,-3.2493,-3.3122,-3.6398,-3.7059,-3.77,-3.9369,-3.9641,-3.9676,-3.9683,-3.9726,-4.0137,-4.1085,-4.0437,-4.0187,-4.0766,0.0,-3.9604,-3.9602,-3.9618,-3.9181,-3.8266,-3.8234,-3.8147,-3.7973,-3.7978,-3.7945,-3.7873,-3.7046,-3.6642,-3.6622,-3.5853,-3.5493,-3.5493,-3.5493,-3.5493,-3.5493,-3.5493,-3.5468,-3.543,-3.543,-3.4911,-3.4122,-3.4122,-3.3583,-3.2878,-3.3201,-3.277,-3.2072,-3.2072,-3.1506,-3.0864,-3.0864,-3.0335,-2.9731,-2.9731,-2.9731,-2.9782,-2.9969,-3.0013,-3.0089,-3.0343,-3.0398,-3.0398,-3.0398,-2.9756,-2.9159,-2.9159,-2.8544,-2.8005,-2.7967,-2.7948,-2.7948,-2.7909,-2.789,-2.7186,-2.5139,-2.5,-2.5061,-2.5022,-2.5192,-2.5303,-2.5303,-2.5341,-2.6101,-2.7804,-2.8007,-2.8786,-3.0448,-3.0571,-3.0634,-3.0717,-3.0706,-3.0766,-3.0898,-3.1738,-3.1719,-3.0937,-3.2539,-3.2851,-3.2045,-3.2487,-3.2949,-3.2968,-3.2968,-3.2968,-3.2968,-3.316,-3.3071,-3.2256,-3.2115,-3.1969,-3.1303,-3.2634,-3.4318,-3.5797,-3.7675,-3.9083,-3.954,-4.0133,-4.0275,-3.9693,-4.0156,-4.0623,-4.0875,-4.0691,-4.0632,0.0,-4.0195,-3.9776,-3.9676,-3.9675,-3.8937,-3.7385,-3.7337,-3.6997,-3.6326,-3.6253,-3.6238,-3.6219,-3.5949,-3.5815,-3.5815,-3.5589,-3.5493,-3.5493,-3.5493,-3.5493,-3.5493,-3.5493,-3.5122,-3.4526,-3.4526,-3.4007,-3.3237,-3.3237,-3.2718,-3.2013,-3.21,-3.1996,-3.1776,-3.1572,-3.1062,-3.054,-3.054,-3.0387,-3.0215,-3.0215,-3.0215,-3.0228,-3.0267,-3.0299,-3.0311,-3.0379,-3.0398,-3.0398,-3.0398,-3.0237,-3.0083,-3.0083,-2.991,-2.9563,-2.8909,-2.8794,-2.8582,-2.7986,-2.7939,-2.7533,-2.6293,-2.6162,-2.5934,-2.5301,-2.5312,-2.537,-2.537,-2.6025,-2.6882,-2.7981,-2.8664,-2.9539,-3.0602,-3.0681,-3.0723,-3.0846,-3.0849,-3.0864,-3.0898,-3.1113,-3.1113,-3.0918,-3.1348,-3.1373,-3.1237,-3.1468,-3.1641,-3.0891,-3.0968,-3.1237,-3.1237,-3.1725,-3.1878,-3.0782,-3.081,-3.067,-2.9555,-3.1506,-3.3667,-3.4853,-3.7219,-3.9146,-3.9877,-4.0373,-4.0508,-4.0142,-4.0482,-4.0641,-4.0303,-4.0264,-4.0109,0.0,-3.9759,-3.9609,-3.9141,-3.8827,-3.8014,-3.6606,-3.6567,-3.6317,-3.5798,-3.5693,-3.5628,-3.5641,-3.5622,-3.5397,-3.507,-3.5397,-3.5339,-3.496,0.0,-3.4955,-3.4941,-3.457,-3.4153,-3.3769,-3.3757,-3.3218,-3.2417,-3.2417,-3.1891,-3.1179,-3.1179,-3.1179,-3.1136,-3.0956,-3.0689,-3.0398,-3.0398,-3.0398,-3.0398,-3.0398,-3.0398,-3.0398,-3.0398,-3.0398,-3.0398,-3.0398,-3.0398,-3.0398,-3.0448,-3.0417,-3.0398,-3.0448,-3.0467,-3.0333,-2.9833,-2.9756,-2.9602,-2.914,-2.9132,-2.8828,-2.7948,-2.7479,-2.7074,-2.6574,-2.6554,-2.6583,-2.6579,-2.7059,-2.7733,-2.8613,-2.9158,-2.9811,-3.066,-3.0757,-3.0828,-3.0898,-3.0898,-3.0898,-3.0898,-3.0837,-3.0808,-3.0808,-3.0781,-3.0735,-3.0349,-3.0081,-2.9639,-2.818,-2.843,-2.9037,-2.906,-3.0112,-3.0734,-2.9486,-2.9646,-2.9636,-2.8391,-3.0206,-3.241,-3.4103,-3.6363,-3.8535,-4.0258,-4.0473,-4.0495,-4.0658,-4.0581,-4.0254,-3.9629,-3.9456,-3.9076,-3.833,-3.8923,-3.8996,-3.8259,-3.7615,-3.6874,-3.6016,-3.5996,-3.5976,-3.5918,-3.5678,-3.5554,-3.5558,-3.5432,-3.5002,-3.434,-3.5002,-3.4866,-3.4159,0.0,0.0,-3.4115,-3.3346,-3.3019,-3.3026,-3.3037,-3.2471,-3.1638,-3.1641,-3.1167,-3.0506,-3.0513,-3.0505,-3.0494,-3.0441,-3.0398,-3.0398,-3.0398,-3.0398,-3.0398,-3.0398,-3.0417,-3.0417,-3.0417,-3.0417,-3.0417,-3.0417,-3.0417,-3.0448,-3.0506,-3.0467,-3.0441,-3.0494,-3.0563,-3.0601,-3.0601,-3.0601,-3.0601,-3.0601,-3.0606,-3.0364,-2.9666,-2.8814,-2.8241,-2.8106,-2.8116,-2.8103,-2.8098,-2.8238,-2.8626,-2.9371,-2.9596,-3.0007,-3.0703,-3.0833,-3.0898,-3.087,-3.087,-3.0873,-3.0857,-3.0739,-3.0687,-3.0691,-3.0629,-3.0607,-2.8878,-2.8328,-2.7774,-2.749,-2.8006,-2.8658,-2.8815,-2.9448,-2.9945,-2.9861,-2.9932,-2.9937,-2.968,-3.1322,-3.3256,-3.4988,-3.6588,-3.8261,-4.0223,-4.0321,-4.0269,-4.0511,-3.995,-3.9503,-3.9369,-3.8695,-3.82,0.0,-3.7636,-3.7337,-3.7247,-3.7116,-3.6696,-3.5937,-3.5976,-3.5996,-3.5976,-3.5193,-3.4796,-3.4786,-3.4004,-3.3549,-3.3433,-3.3549,-3.3528,-3.3402,-3.3382,0.0,-3.3378,-3.3228,-3.2745,-3.2136,-3.2124,-3.1588,-3.0812,-3.0807,-3.0717,-3.0579,-3.0579,-3.0581,-3.0571,-3.0507,-3.0448,-3.0398,-3.0398,-3.0448,-3.0487,-3.0487,-3.0525,-3.0564,-3.0564,-3.0564,-3.0564,-3.0564,-3.0564,-3.0564,-3.0583,-3.0564,-3.0574,-3.0583,-3.06,-3.06,-3.06,-3.06,-3.06,-3.06,-3.0656,-3.0625,-3.0497,-2.9721,-2.8897,-2.8176,-2.8147,-2.8174,-2.8173,-2.8887,-2.9392,-2.9568,-3.0247,-3.0712,-3.0864,-3.0897,-3.0846,-3.0743,-3.0733,-3.0715,-3.0643,-3.0626,-3.0623,-3.0621,-3.0621,-3.0565,-2.733,-2.6915,-2.6518,-2.6103,-2.6594,-2.7214,-2.7319,-2.7824,-2.8291,-2.8506,-2.8474,-2.8426,-2.8525,-3.0392,-3.218,-3.3023,-3.5151,-3.7205,-3.8594,-3.9031,-3.9428,-3.9967,-3.9319,-3.8651,-3.8194,-3.7393,-3.6725,-3.6306,-3.5945,-3.6105,-3.6906,-3.6559,-3.6168,-3.5802,-3.5419,-3.5242,-3.5273,-3.4375,-3.3945,-3.3965,-3.3519,-3.3071,-3.268,-3.3071,-3.3005,-3.2571,-3.255,0.0,-3.2545,-3.2085,-3.1695,-3.137,-3.137,-3.1081,-3.0651,-3.0658,-3.0649,-3.0645,-3.0646,-3.0642,-3.0652,-3.0606,-3.0564,-3.0506,-3.0506,-3.0525,-3.056,-3.054,-3.0576,-3.0595,-3.0595,-3.0595,-3.0595,-3.0595,-3.0635,-3.0648,-3.0616,-3.069,-3.0743,-3.0671,-3.0714,-3.0755,-3.0755,-3.0755,-3.0755,-3.0755,-3.0781,-3.0794,-3.0794,-3.0439,-3.0013,-2.9608,-2.9597,-2.9611,-2.9611,-3.0027,-3.0273,-3.0273,-3.0664,-3.0866,-3.0794,-3.0808,-3.0756,-3.0643,-3.0642,-3.0632,-3.0606,-3.0567,-3.054,-3.0544,-3.0506,-3.0487,-2.5887,-2.5585,-2.5394,-2.4944,-2.5483,-2.6188,-2.6406,-2.6782,-2.714,-2.7353,-2.7135,-2.7008,-2.7336,-2.9074,-3.0634,-3.1164,-3.3562,-3.5788,-3.7041,-3.7822,-3.8629,-3.9505,-3.8882,-3.8033,-3.7165,-3.6375,-3.5583,-3.4751,-3.4524,0.0,-3.6439,-3.5979,-3.5596,-3.5402,-3.4804,-3.445,-3.4295,-3.3447,-3.3025,-3.3105,-3.291,-3.2519,-3.1934,-3.2519,-3.2402,-3.1758,-3.1711,0.0,0.0,-3.1033,-3.0792,-3.0898,-3.0898,-3.084,-3.0742,-3.0742,-3.0747,-3.0742,-3.0742,-3.0741,-3.075,-3.0746,-3.0685,-3.0595,-3.0595,-3.0609,-3.0609,-3.0618,-3.0639,-3.0667,-3.0667,-3.0667,-3.0667,-3.0667,-3.069,-3.0737,-3.0686,-3.0784,-3.0868,-3.0754,-3.0837,-3.0898,-3.0898,-3.0898,-3.0898,-3.0898,-3.09,-3.0897,-3.0897,-3.0907,-3.0898,-3.0898,-3.0898,-3.0898,-3.0898,-3.0898,-3.0897,-3.086,-3.0858,-3.0794,-3.0674,-3.0675,-3.0655,-3.0605,-3.0607,-3.0583,-3.0564,-3.0506,-3.0487,-3.0487,-3.0417,-3.0398,-2.4748,-2.424,-2.4073,-2.4744,-2.5719,-2.6776,-2.7699,-2.782,-2.7769,-2.7978,-2.7419,-2.7121,-2.7886,-2.8405,-2.9465,-3.173,-3.2758,-3.4188,-3.6828,-3.7638,-3.8365,-3.9482,-3.8841,-3.7992,-3.7165,-3.6373,-3.556,-3.4769,-3.3978,0.0,-3.5198,-3.5484,-3.5251,-3.4443,-3.4468,-3.4118,-3.3332,-3.2453,-3.2069,-3.2129,-3.1328,-3.0976,-3.1016,-3.1094,-3.1074,-3.0996,-3.0995,0.0,0.0,-3.0913,-3.0897,-3.0898,-3.0898,-3.0898,-3.0879,-3.0879,-3.0878,-3.0875,-3.0875,-3.0876,-3.0878,-3.0875,-3.0758,-3.0601,-3.0601,-3.0645,-3.0691,-3.0694,-3.0775,-3.0878,-3.0878,-3.0878,-3.0878,-3.0878,-3.0876,-3.0875,-3.0878,-3.0898,-3.0898,-3.0876,-3.0898,-3.0898,-3.0898,-3.0898,-3.0898,-3.0898,-3.0897,-3.0895,-3.0895,-3.0898,-3.0898,-3.0898,-3.0898,-3.0898,-3.0898,-3.0898,-3.0846,-3.0732,-3.0719,-3.0694,-3.0614,-3.0608,-3.0614,-3.0598,-3.0595,-3.0544,-3.0417,-3.0398,-3.0398,-3.0398,-3.0398,-3.0398,-2.3762,-2.3531,-2.3588,-2.4349,-2.4891,-2.544,-2.6338,-2.6263,-2.615,-2.6721,-2.6399,-2.6391,-2.7684,-2.8007,-2.8719,-3.0671,-3.158,-3.2773,-3.4853,-3.6173,-3.7165,-3.7779,-3.7548,-3.6909,-3.5823,-3.498,-3.4319,-3.3839,0.0,0.0,-3.4037,-3.3901,-3.37,-3.3468,-3.3038,-3.2685,-3.2358,-3.1476,-3.1097,-3.1144,-3.0843,-3.0723,-3.0781,-3.0859,-3.0898,-3.0898,-3.0898,0.0,0.0,-3.0898,-3.0898,-3.0898,-3.0898,-3.0898,-3.0898,-3.0898,-3.0898,-3.0898,-3.0898,-3.0898,-3.0898,-3.0898,-3.0856,-3.0782,-3.0782,-3.0801,-3.0823,-3.0823,-3.0858,-3.0898,-3.0898,-3.0898,-3.0898,-3.0898,-3.0898,-3.0898,-3.0898,-3.0898,-3.0898,-3.0898,-3.0898,-3.0898,-3.0898,-3.0898,-3.0898,-3.0898,-3.0898,-3.0868,-3.0795,-3.0787,-3.0769,-3.0712,-3.0767,-3.0787,-3.0787,-3.0735,-3.0701,-3.0637,-3.0644,-3.0621,-3.053,-3.0543,-3.0525,-3.0487,-3.0487,-3.0448,-3.0398,-3.0398,-3.0398,-3.0398,-3.0398,-3.0388,-2.301,-2.3165,-2.359,-2.4356,-2.4778,-2.5226,-2.6038,-2.56,-2.5261,-2.6171,-2.5764,-2.5777,-2.7493,-2.7787,-2.8246,-2.9622,-3.0723,-3.1953,-3.3568,-3.5238,-3.6534,-3.7207,-3.7283,-3.675,-3.5372,-3.4267,-3.3481,-3.3042,0.0,0.0,-3.2655,-3.2083,-3.1985,-3.2532,-3.2006,-3.1602,-3.1398,-3.0782,-3.0506,-3.0564,-3.0613,-3.0654,-3.0673,-3.0771,-3.081,-3.0811,0.0,0.0,0.0,-3.083,-3.0833,-3.081,-3.081,-3.081,-3.081,-3.081,-3.081,-3.081,-3.081,-3.081,-3.081,-3.081,-3.081,-3.081,-3.081,-3.0857,-3.0898,-3.0898,-3.0898,-3.0898,-3.0898,-3.0898,-3.0898,-3.0898,-3.0898,-3.0897,-3.0849,-3.0837,-3.0827,-3.0827,-3.081,-3.081,-3.081,-3.081,-3.081,-3.081,-3.081,-3.0771,-3.0684,-3.0678,-3.0642,-3.0607,-3.0626,-3.0641,-3.066,-3.0646,-3.0603,-3.0564,-3.0597,-3.0564,-3.0467,-3.0467,-3.0448,-3.0398,-3.0398,-3.0398,-3.0398,-3.04,-3.0394,-3.0394,-3.04,-3.0305,-2.2609,-2.3083,-2.4098,-2.4882,-2.5873,-2.6886,-2.7703,-2.664,-2.5824,-2.6957,-2.5966,-2.5502,-2.7431,-2.7787,-2.8062,-2.8865,-3.0356,-3.1953,-3.3568,-3.5238,-3.689,-3.8505,-3.8689,-3.8065,-3.645,-3.4798,-3.3476,0.0,0.0,0.0,-3.0941,-3.0167,-3.033,-3.1667,-3.1698,-3.1295,-3.0417,-3.0398,-3.0417,-3.0506,-3.0506,-3.054,-3.0606,-3.0606,-3.0606,0.0,0.0,0.0,0.0,-3.0675,-3.0656,-3.0606,-3.0606,-3.0606,-3.0606,-3.0606,-3.0606,-3.0606,-3.0606,-3.0606,-3.0606,-3.0606,-3.0606,-3.0606,-3.0606,-3.0749,-3.0898,-3.0898,-3.0898,-3.0898,-3.0898,-3.0898,-3.0898,-3.0898,-3.0898,-3.0862,-3.0733,-3.0691,-3.0683,-3.0614,-3.0606,-3.0606,-3.0606,-3.0606,-3.0606,-3.0606,-3.0606,-3.0606,-3.06,-3.0598,-3.0602,-3.0602,-3.0544,-3.0525,-3.0602,-3.066,-3.0641,-3.0506,-3.0564,-3.0544,-3.0398,-3.0398,-3.0398,-3.0398,-3.0398,-3.0398,-3.0398,-3.0398,-3.0409,-3.0395,-3.0397,-3.0071,-2.333,-2.2869,-2.2647,-2.3936,-2.4534,-2.4983,-2.5742,-2.5914,-2.6096,-2.673,-2.6659,-2.6747,-2.7651,-2.8246,-2.9255,-3.1164,-3.2064,-3.3252,-3.5239,-3.7064,-3.7995,-3.7398,-3.6579,-3.5821,0.0,0.0,-3.2454,0.0,0.0,0.0,-3.0885,-3.0284,-3.018,-3.0782,-3.0814,-3.0679,-3.0398,-3.0398,-3.0398,-3.0417,-3.0487,-3.0513,-3.052,-3.0578,0.0,0.0,0.0,0.0,0.0,-3.0626,-3.0621,-3.0598,-3.0598,-3.0598,-3.0598,-3.0598,-3.0598,-3.0598,-3.0598,-3.0598,-3.0598,-3.0598,-3.0598,-3.0598,-3.0598,-3.0644,-3.0685,-3.0685,-3.0685,-3.0685,-3.0685,-3.0685,-3.0685,-3.0685,-3.0685,-3.0687,-3.0644,-3.0627,-3.0625,-3.0607,-3.0598,-3.0598,-3.0598,-3.0598,-3.0598,-3.0598,-3.0598,-3.0578,-3.054,-3.0524,-3.0506,-3.0467,-3.0448,-3.0467,-3.0525,-3.0506,-3.0487,-3.0417,-3.0448,-3.0349,-3.0136,-3.0136,-3.0214,-3.0399,-3.0399,-3.0399,-3.0399,-3.0411,-3.0078,-2.9441,-2.9439,-2.9344,-2.3981,-2.3653,-2.3463,-2.3994,-2.4346,-2.4663,-2.5113,-2.5387,-2.5712,-2.6556,-2.689,-2.7288,-2.8105,-2.8668,-2.958,-3.1403,-3.2373,-3.3593,-3.5542,-3.7608,-3.8685,-3.7976,-3.6485,0.0,0.0,-3.3732,0.0,0.0,0.0,0.0,-3.0574,-3.019,-3.0122,-3.0398,-3.0398,-3.0398,-3.0398,-3.0398,-3.0398,-3.0398,-3.0448,-3.0467,-3.0467,-3.0506,0.0,0.0,0.0,0.0,0.0,-3.0546,-3.0544,-3.0525,-3.0525,-3.0525,-3.0525,-3.0525,-3.0525,-3.0525,-3.0525,-3.0525,-3.0525,-3.0525,-3.0525,-3.0525,-3.0525,-3.0549,-3.0599,-3.0599,-3.0599,-3.0599,-3.0599,-3.0599,-3.0599,-3.0599,-3.0599,-3.0599,-3.0579,-3.0549,-3.0544,-3.0525,-3.0525,-3.0525,-3.0525,-3.0525,-3.0525,-3.0525,-3.0525,-3.0506,-3.0467,-3.0467,-3.0448,-3.0398,-3.0398,-3.0374,-3.0312,-3.0374,-3.0355,-3.0254,-3.0235,-3.0117,-2.9893,-2.995,-3.0035,-3.0127,-3.0315,-3.0222,-2.9864,-2.9869,-2.957,-2.9005,-2.8992,-2.9003,0.0,-2.5132,-2.5819,-2.4802,-2.5033,-2.5524,-2.5559,-2.5101,0.0,-2.6584,-2.6907,-2.7396,-2.8881,-2.9104,-2.942,-3.0399,-3.1838,-3.3408,-3.5,-3.729,-3.9056,-3.9792,-3.8006,0.0,-3.6306,-3.4714,0.0,0.0,0.0,0.0,-3.006,-3.0013,-3.0136,-3.0398,-3.0398,-3.0398,-3.0398,-3.0398,-3.0398,-3.0398,-3.0398,-3.0398,-3.0398,-3.0398,0.0,0.0,0.0,0.0,0.0,-3.0467,-3.0467,-3.0398,-3.0398,-3.0398,-3.0398,-3.0398,-3.0398,-3.0398,-3.0398,-3.0398,-3.0398,-3.0398,-3.0398,-3.0398,-3.0398,-3.0487,-3.0583,-3.0583,-3.0583,-3.0583,-3.0583,-3.0583,-3.0583,-3.0583,-3.0583,-3.0564,-3.0506,-3.0487,-3.0467,-3.0398,-3.0398,-3.0398,-3.0398,-3.0398,-3.0398,-3.0398,-3.0398,-3.0398,-3.0398,-3.0398,-3.0398,-3.0367,-3.0367,-3.0267,-2.9999,-3.0209,-3.0254,-3.0018,-2.9927,-2.9836,-2.9715,-2.9828,-2.981,-2.9661,-3.0074,-2.9868,-2.9005,-2.9005,-2.8981,-2.8994,-2.8994,-2.8994,-2.734,0.0,-2.4708,-2.5145,-2.4913,-2.47,0.0,-2.591,-2.6818,-2.7494,-2.7835,-2.8608,-3.0485,-3.0338,-3.0875,-3.3777,-3.4787,-3.5732,-3.7314,-3.8589,-3.9433,-3.9577,-3.8061,-3.6731,-3.6058,-3.392,0.0,0.0,0.0,-3.0292,-3.0018,-3.0196,-3.0323,-3.0398,-3.0398,-3.0398,-3.0398,-3.0398,-3.0398,-3.0398,-3.0398,-3.0398,-3.0398,-3.0398,0.0,0.0,0.0,0.0,-3.0398,-3.0417,-3.0398,-3.0398,-3.0398,-3.0398,-3.0398,-3.0398,-3.0398,-3.0398,-3.0398,-3.0398,-3.0398,-3.0398,-3.0398,-3.0398,-3.0398,-3.0417,-3.0448,-3.0448,-3.0448,-3.0448,-3.0448,-3.0448,-3.0448,-3.0448,-3.0448,-3.0448,-3.0417,-3.0417,-3.0417,-3.0398,-3.0398,-3.0398,-3.0398,-3.0398,-3.0398,-3.0398,-3.0398,-3.0398,-3.0398,-3.0398,-3.0311,-3.0122,-3.0089,-3.0018,-2.978,-2.9916,-2.9984,-2.9931,-2.9801,-2.9716,-2.97,-2.9717,-2.9561,-2.9163,-2.9255,-2.9218,-2.8993,-2.9001,-2.8989,-2.8994,-2.8994,-2.8994,-2.9142,-2.8052,-2.6962,-2.6816,-2.649,-2.6201,-2.6371,-2.6744,-2.7197,-2.7567,-2.8038,-2.8935,-3.0701,-3.1001,-3.1894,-3.4682,-3.5934,-3.7237,-3.9164,-3.9375,-3.9367,-3.9478,-3.791,-3.6599,0.0,0.0,0.0,0.0,0.0,-3.0467,-3.0202,-3.0311,-3.0398,-3.0398,-3.0398,-3.0398,-3.0398,-3.0398,-3.0398,-3.0398,-3.0398,-3.0398,-3.0398,-3.0398,-3.0398,0.0,0.0,0.0,-3.0398,-3.0398,-3.0398,-3.0398,-3.0398,-3.0398,-3.0398,-3.0398,-3.0398,-3.0398,-3.0398,-3.0398,-3.0398,-3.0398,-3.0398,-3.0398,-3.0398,-3.0311,-3.0241,-3.0367,-3.0398,-3.0398,-3.0398,-3.0398,-3.0398,-3.0398,-3.0398,-3.0398,-3.0398,-3.0398,-3.0398,-3.0398,-3.0299,-3.0209,-3.0209,-3.0142,-3.0085,-3.0085,-3.0085,-3.0085,-3.0085,-3.0085,-3.0022,-2.9877,-2.9861,-2.978,-2.957,-2.9661,-2.9716,-2.972,-2.972,-2.9605,-2.9394,-2.9373,-2.9248,-2.9017,-2.8994,-2.8994,-2.8994,-2.8994,-2.8994,-2.8994,-2.8994,-2.8994,-3.0616,-3.0822,-3.0596,-2.902,-2.8585,-2.8476,-2.8309,-2.7692,-2.7277,-2.7689,-2.8318,-2.9331,-3.1092,-3.1927,-3.3043,-3.5189,-3.6768,-3.8433,-4.0442,-3.9702,-3.9019,-3.9117,-3.7571,0.0,0.0,0.0,0.0,0.0,0.0,-3.0939,-3.0436,-3.0398,-3.0398,-3.0398,-3.0398,-3.0398,-3.0398,-3.0398,-3.0398,-3.0398,-3.0398,-3.0398,-3.0398,-3.0398,-3.0398,0.0,0.0,0.0,-3.0398,-3.0398,-3.0398,-3.0398,-3.0398,-3.0367,-3.0343,-3.0343,-3.0311,-3.0286,-3.0286,-3.0311,-3.0323,-3.0299,-3.0286,-3.0286,-3.0286,-3.0122,-2.9999,-3.0228,-3.0286,-3.0299,-3.0323,-3.0343,-3.0323,-3.0299,-3.033,-3.0323,-3.0299,-3.0286,-3.0286,-3.0286,-3.0109,-2.9954,-2.9954,-2.9813,-2.9696,-2.9696,-2.9696,-2.9696,-2.9696,-2.9696,-2.9696,-2.9661,-2.9643,-2.957,-2.9372,-2.9386,-2.9423,-2.9423,-2.9537,-2.9413,-2.9017,-2.8994,-2.8994,-2.8994,-2.8994,-2.8994,-2.8994,-2.8994,-2.8994,-2.8994,-2.8994,-2.8994,-3.2175,-3.3211,-3.3127,-3.0692,-2.9574,-2.9159,-2.9457,-2.9108,-2.8968,-2.9758,-3.0278,-3.1524,-3.4521,-3.4636,-3.5398,-3.8782,-3.9805,-4.0189,0.0,0.0,-3.8567,-3.7585,0.0,0.0,0.0,0.0,0.0,0.0,0.0,-3.0585,-3.0487,-3.0417,-3.0398,-3.0398,-3.0398,-3.0398,-3.0398,-3.0398,-3.0398,-3.0398,-3.0398,-3.0398,-3.0398,-3.0398,-3.0398,0.0,0.0,-3.0398,-3.0398,-3.0398,-3.0398,-3.0398,-3.0398,-3.0254,-3.0061,-3.0061,-2.9939,-2.9815,-2.9815,-2.9927,-3.0028,-2.9864,-2.9815,-2.9815,-2.9815,-2.9782,-2.9746,-2.9799,-2.9815,-2.9848,-3.0018,-3.0061,-3.0032,-2.9848,-2.9943,-2.9999,-2.9848,-2.9815,-2.9815,-2.9815,-2.9763,-2.9748,-2.9748,-2.9731,-2.9696,-2.9696,-2.9696,-2.9696,-2.9696,-2.9696,-2.9625,-2.9455,-2.9454,-2.9332,-2.9089,-2.9072,-2.908,-2.908,-2.9095,-2.9081,-2.9017,-2.8994,-2.8994,-2.8994,-2.8994,-2.8994,-2.8994,-2.8994,-2.8994,-2.8994,-2.8994,-2.8994,-3.1423,-3.275,-3.3518,-3.2716,-3.2803,-3.2978,-3.255,-3.2308,-3.2296,-3.2691,-3.2562,-3.3147,-3.5704,-3.5874,-3.6663,-3.986,-4.0467,-4.0216,-3.9256,-3.8285,-3.728,0.0,0.0,0.0,0.0,0.0,0.0,0.0,0.0,0.0,-3.0498,-3.0467,-3.0448,-3.0398,-3.0398,-3.0398,-3.0398,-3.0398,-3.0398,-3.0398,-3.0398,-3.0398,-3.0398,-3.0398,-3.0398,-3.0398,0.0,-3.0398,-3.0398,-3.0398,-3.0398,-3.0398,-3.0241,-3.0122,-2.9984,-2.9877,-2.978,-2.9696,-2.9696,-2.9746,-2.9829,-2.9731,-2.9696,-2.9696,-2.9696,-2.9607,-2.9551,-2.9661,-2.9696,-2.9731,-2.9813,-2.9845,-2.9813,-2.9731,-2.9763,-2.9813,-2.9731,-2.9696,-2.9696,-2.9696,-2.9626,-2.9551,-2.9551,-2.9435,-2.9334,-2.9334,-2.9334,-2.9334,-2.9334,-2.9334,-2.9272,-2.9181,-2.9181,-2.9134,-2.9017,-2.8997,-2.9752,-3.1477,-2.9947,-2.8997,-2.8997,-2.8989,-2.8989,-2.8997,-2.8989,-2.8989,-2.8997,-2.8989,-2.8994,-2.8994,-2.8994,-2.8994,-3.0697,-3.2086,-3.3408,-3.4122,-3.494,-3.5553,-3.5494,-3.5058,-3.483,-3.5475,-3.5057,-3.5053,-3.6578,-3.7187,-3.8094,-3.9979,-4.0512,-4.0089,-3.8369,-3.7276,-3.6231,-3.5192,0.0,0.0,0.0,0.0,0.0,0.0,0.0,0.0,-3.0518,-3.0314,-3.0179,-3.0121,-3.0102,-3.0102,-3.0102,-3.0314,-3.0398,-3.0398,-3.0343,-3.0343,-3.0398,-3.0323,-3.0343,-3.0398,-3.0323,-3.0343,-3.0398,-3.0323,-3.0311,-3.0299,-3.0075,-2.9939,-2.9829,-2.9625,-2.9589,-2.9607,-2.9551,-2.957,-2.9607,-2.9551,-2.9533,-2.9533,-2.9533,-2.9435,-2.9332,-2.9494,-2.9533,-2.9551,-2.9607,-2.9644,-2.9607,-2.9551,-2.957,-2.9607,-2.9551,-2.9533,-2.9533,-2.9533,-2.9415,-2.931,-2.931,-2.9281,-2.9292,-2.9292,-2.9329,-2.9365,-2.9365,-2.9365,-2.9292,-2.9012,-2.9347,-2.9507,-2.9386,-2.9485,-3.0766,-3.3629,-3.1483,-2.9777,-2.9034,-2.8991,-2.8991,-2.9016,-2.9332,-2.9509,-2.9489,-2.9337,-2.9082,-2.873,-2.873,-2.8737,-3.1269,-3.2574,-3.3446,-3.4131,-3.373,-3.3961,-3.7074,-3.594,-3.4941,-3.7435,-3.7916,-3.7911,-3.8127,-3.9538,-4.0455,-3.9771,-4.0757,-4.0722,-3.8274,0.0,-3.6147,0.0,0.0,0.0,0.0,0.0,0.0,0.0,0.0,0.0,-3.0583,-2.9768,-2.9286,-2.9286,-2.9217,-2.9179,-2.9179,-3.0006,-3.0398,-3.0398,-3.015,-3.015,-3.0398,-3.0136,-3.0163,-3.0398,-3.0136,-3.0163,-3.0367,-3.0136,-3.0028,-3.0028,-3.0013,-2.9763,-2.9414,-2.9138,-2.9203,-2.9392,-2.9156,-2.9203,-2.9373,-2.9115,-2.9044,-2.9044,-2.9044,-2.9044,-2.9021,-2.9044,-2.9044,-2.9112,-2.9372,-2.9414,-2.9372,-2.9112,-2.9246,-2.9353,-2.9093,-2.9044,-2.9044,-2.9044,-2.9044,-2.904,-2.904,-2.9622,-3.0118,-3.0118,-3.0325,-3.0496,-3.0496,-3.0496,-3.0105,-2.9127,-3.0338,-3.1041,-3.0516,-3.0951,-3.196,-3.3705,-3.3574,-3.2118,-2.9119,-2.8991,-2.8991,-2.9009,-3.0351,-3.1028,-3.1028,-3.0356,-2.9306,-2.7994,-2.7994,-2.7982,-3.0117,-3.226,-3.4172,-3.4417,-3.4597,-3.5143,-3.6796,-3.7276,-3.7829,-3.9427,-3.9311,-3.8819,-3.8374,-3.9719,-4.0508,-3.9344,-3.948,-3.9015,-3.7064,-3.5917,0.0,0.0,0.0,0.0,0.0,0.0,0.0,0.0,0.0,0.0,0.0,-3.0263,-2.9812,-2.9222,-2.9652,-2.941,-2.8352,-2.9717,-3.014,-2.9583,-2.9868,-3.0042,-3.015,-3.0061,-3.0003,-2.9977,-2.9984,-2.9988,-2.9962,-2.9864,-2.9813,-2.9796,-2.9678,-2.9416,-2.9134,-2.904,-2.9067,-2.9134,-2.904,-2.9067,-2.9134,-2.9021,-2.8994,-2.8994,-2.8994,-2.8994,-2.8994,-2.8994,-2.8994,-2.9021,-2.9134,-2.9156,-2.9134,-2.9021,-2.9067,-2.9134,-2.9017,-2.8994,-2.8994,-2.8994,-2.8994,-2.914,-2.9659,-2.9593,-2.9698,-3.0363,-3.0834,-3.0736,-2.9734,-2.9625,-2.9832,-3.0448,-3.1342,-3.1831,-3.1605,-3.1469,-3.21,-3.3712,-3.3816,-3.3268,-3.2038,-3.197,-3.1474,-3.0398,-3.0916,-3.1219,-3.1181,-3.0637,-3.019,-2.9938,-2.8996,-2.8579,-2.9717,-3.2014,-3.4244,-3.4511,-3.52,-3.606,-3.6978,-3.8117,-3.9383,-4.0843,-4.0024,-3.8974,-3.8746,-3.9414,-3.9685,0.0,-3.8514,-3.7841,-3.5929,0.0,0.0,0.0,0.0,0.0,0.0,0.0,0.0,0.0,0.0,0.0,0.0,-3.0378,-2.9816,-2.8886,-2.9374,-2.894,-2.7505,-2.9159,-2.9656,-2.9013,-2.9632,-2.9939,-2.9999,-2.9877,-2.9763,-2.9713,-2.978,-2.9763,-2.9696,-2.9625,-2.9607,-2.9589,-2.9353,-2.9178,-2.8994,-2.8994,-2.8994,-2.8994,-2.8994,-2.8994,-2.8994,-2.8994,-2.8994,-2.8994,-2.8994,-2.8994,-2.8994,-2.8994,-2.8994,-2.8994,-2.8994,-2.8994,-2.8994,-2.8994,-2.8994,-2.8994,-2.8994,-2.8994,-2.9044,-2.9144,-2.9289,-2.952,-2.9977,-3.0017,-3.0206,-3.0764,-3.1608,-3.1782,-3.0666,-3.0521,-3.0876,-3.181,-3.192,-3.2001,-3.2291,-3.2053,-3.2448,-3.3718,-3.327,-3.3001,-3.2985,-3.2975,-3.2414,-3.1203,-3.1205,-3.1192,-3.1196,-3.0886,-3.0765,-3.0832,-2.9829,-2.9209,-3.0475,-3.1987,-3.3502,-3.4311,-3.5239,-3.6328,-3.785,-3.8267,-3.9019,-4.1546,-4.007,-3.8558,-3.9431,-3.8871,-3.816,-3.7736,-3.8128,-3.7623,0.0,0.0,0.0,0.0,0.0,0.0,0.0,0.0,0.0,0.0,0.0,0.0,0.0,-2.9886,-2.9062,-2.8114,-2.8038,-2.7557,-2.6601,-2.8255,-2.8982,-2.8793,-2.9418,-2.9796,-2.9984,-2.9589,-2.9513,-2.9678,-2.9493,-2.9513,-2.9678,-2.9474,-2.9392,-2.9372,-2.9112,-2.8994,-2.8994,-2.8994,-2.8994,-2.8994,-2.8994,-2.8994,-2.8994,-2.8994,-2.8994,-2.8994,-2.8994,-2.8994,-2.8994,-2.8994,-2.8994,-2.8994,-2.8994,-2.8994,-2.8994,-2.8994,-2.8994,-2.8994,-2.8994,-2.8994,-2.9119,-2.9529,-2.9926,-3.01,-2.9763,-3.1096,-3.2007,-3.149,-3.278,-3.3815,-3.3805,-3.3785,-3.3559,-3.3042,-3.1969,-3.1635,-3.2413,-3.2798,-3.3202,-3.3746,-3.2144,-3.1202,-3.1212,-3.1194,-3.1212,-3.1212,-3.1202,-3.1214,-3.1214,-3.1198,-3.0818,-3.0125,-3.0125,-2.9719,-3.0565,-3.2382,-3.4409,-3.5263,-3.6647,-3.8046,-3.9034,-3.9165,-3.9281,-4.0047,-3.919,-3.8182,-3.7846,-3.8028,0.0,-3.6675,-3.6759,-3.636,0.0,0.0,0.0,0.0,0.0,0.0,0.0,0.0,0.0,0.0,0.0,0.0,0.0,-2.8986,-2.8168,0.0,-2.7719,-2.7237,-2.5697,-2.7967,-2.8694,-2.7902,-2.9117,-2.9661,-2.957,-2.9454,-2.9332,-2.9206,-2.9332,-2.933,-2.9206,-2.9138,-2.9112,-2.9112,-2.904,-2.8994,-2.8994,-2.8994,-2.8994,-2.8994,-2.8994,-2.8994,-2.8994,-2.8994,-2.8994,-2.8994,-2.8994,-2.8994,-2.8994,-2.8994,-2.8994,-2.8994,-2.8994,-2.8773,-2.8658,-2.8929,-2.8773,-2.8565,-2.8565,-2.8819,-2.9022,-2.914,-2.9679,-3.0279,-3.0734,-3.1262,-3.1751,-3.213,-3.308,-3.3788,-3.3813,-3.2713,-3.1921,-3.1734,-3.1817,-3.2027,-3.2449,-3.2413,-3.2507,-3.2862,-3.1809,-3.1198,-3.1184,-3.119,-3.1179,-3.1179,-3.1185,-3.1215,-3.1215,-3.1218,-3.1089,-3.0869,-3.0869,-3.0751,-3.2423,-3.4109,-3.5848,-3.7109,-3.8277,-3.9205,-3.959,-3.9527,-3.9312,-3.898,-3.8237,-3.7618,-3.7425,-3.7502,0.0,-3.6287,-3.5951,0.0,0.0,0.0,0.0,0.0,0.0,0.0,0.0,0.0,0.0,0.0,0.0,0.0,0.0,-2.8463,-2.7809,0.0,-2.7272,-2.6814,-2.5341,-2.7178,-2.7853,-2.7414,-2.8596,-2.9195,-2.9246,-2.9246,-2.9156,-2.9017,-2.916,-2.9156,-2.8994,-2.8994,-2.8994,-2.8994,-2.8994,-2.8994,-2.8994,-2.8994,-2.8994,-2.8994,-2.8994,-2.8994,-2.8994,-2.8994,-2.8905,-2.8749,-2.8749,-2.8676,-2.8558,-2.8558,-2.8558,-2.8558,-2.8558,-2.8386,-2.838,-2.9075,-2.8699,-2.8344,-2.8943,-2.904,-2.9117,-2.953,-3.0135,-3.0727,-3.1163,-3.1494,-3.1755,-3.1943,-3.2431,-3.2769,-3.2756,-3.1865,-3.1203,-3.1219,-3.1531,-3.1811,-3.1986,-3.1846,-3.1808,-3.1987,-3.1476,-3.1216,-3.1216,-3.1189,-3.119,-3.119,-3.119,-3.119,-3.119,-3.119,-3.119,-3.119,-3.119,-3.119,-3.5063,-3.6305,-3.7321,-3.9129,-3.9667,-3.9711,-3.9437,-3.921,-3.8869,-3.8195,-3.7276,-3.6815,-3.7526,-3.7007,-3.6358,-3.6014,0.0,0.0,0.0,0.0,0.0,0.0,0.0,0.0,0.0,0.0,0.0,0.0,0.0,0.0,0.0,-2.8076,0.0,-2.6816,-2.6728,-2.6265,-2.5409,-2.6197,-2.6778,0.0,-2.7907,-2.8503,-2.8883,-2.8957,-2.8994,-2.8994,-2.892,-2.892,-2.8994,-2.8994,-2.8994,-2.8994,-2.8994,-2.8994,-2.8994,-2.8994,-2.8994,-2.8994,-2.8952,-2.8952,-2.8929,-2.8905,-2.8658,-2.835,-2.835,-2.8129,-2.7897,-2.7897,-2.7897,-2.7897,-2.7897,-2.7922,-2.8227,-2.9339,-2.8742,-2.8323,-2.9726,-2.955,-2.939,-3.0387,-3.094,-3.1284,-3.1215,-3.1647,-3.1809,-3.127,-3.1199,-3.1202,-3.1223,-3.1192,-3.1202,-3.1196,-3.119,-3.119,-3.119,-3.119,-3.119,-3.119,-3.119,-3.119,-3.119,-3.119,-3.119,-3.119,-3.119,-3.119,-3.119,-3.119,-3.119,-3.119,-3.119,-3.119,-3.432,-3.5249,-3.6338,-3.8158,-3.8656,-3.8555,-3.7861,-3.7046,-3.6526,-3.693,-3.6353,-3.5622,-3.5103,-3.4853,-3.4433,0.0,0.0,0.0,0.0,0.0,0.0,0.0,0.0,0.0,0.0,0.0,0.0,0.0,0.0,0.0,-2.7182,-2.6587,0.0,-2.5898,-2.582,-2.5653,-2.5409,-2.6197,-2.6484,0.0,-2.7075,-2.7661,-2.8081,-2.8723,-2.8994,-2.8957,-2.8338,-2.8429,-2.8994,-2.8994,-2.8994,-2.8994,-2.8994,-2.8994,-2.8994,-2.8994,-2.8994,-2.8952,-2.8633,-2.854,-2.8489,-2.8228,-2.8093,-2.7992,-2.7992,-2.7954,-2.7897,-2.7897,-2.7897,-2.7897,-2.7897,-2.8122,-2.8505,-2.9336,-2.8903,-2.8543,-2.9431,-2.973,-2.9943,-3.0156,-3.0759,-3.1206,-3.1193,-3.1295,-3.1351,-3.124,-3.1206,-3.1198,-3.1213,-3.1201,-3.1223,-3.119,-3.119,-3.119,-3.119,-3.119,-3.119,-3.119,-3.119,-3.119,-3.119,-3.119,-3.119,-3.119,-3.119,-3.119,-3.119,-3.119,-3.119,-3.119,-3.119,-3.119,-3.461,-3.5323,-3.6037,-3.7883,-3.8077,-3.7613,-3.6774,-3.5811,-3.5089,-3.4949,-3.4564,-3.4122,-3.366,-3.3583,-3.3384,0.0,0.0,0.0,0.0,0.0,0.0,0.0,0.0,0.0,0.0,0.0,0.0,0.0,0.0,-2.6333,-2.6333,-2.5937,-2.5675,-2.5595,-2.5532,-2.5473,-2.5409,-2.5693,-2.5895,-2.6004,-2.6322,-2.6749,-2.7255,-2.8062,-2.8429,-2.8411,-2.797,-2.8044,-2.8466,-2.8851,-2.8994,-2.8994,-2.8994,-2.8994,-2.8994,-2.8994,-2.8863,-2.8682,-2.8471,-2.8272,-2.8129,-2.7954,-2.7783,-2.7619,-2.7619,-2.747,-2.7334,-2.7334,-2.7334,-2.7334,-2.7334,-2.7439,-2.7877,-2.9007,-2.8973,-2.9007,-3.0067,-3.019,-3.0209,-3.0565,-3.0937,-3.119,-3.119,-3.119,-3.119,-3.119,-3.119,-3.119,-3.119,-3.119,-3.119,-3.119,-3.119,-3.119,-3.119,-3.119,-3.119,-3.119,-3.119,-3.119,-3.119,-3.119,-3.119,-3.119,-3.119,-3.119,-3.119,-3.119,-3.119,-3.119,-3.119,-3.119,-3.4448,-3.5191,-3.583,-3.7698,-3.7554,-3.6758,-3.5898,-3.5015,-3.4079,-3.3044,-3.2884,-3.2872,-3.2718,-3.2699,-3.2641,0.0,0.0,0.0,0.0,0.0,0.0,0.0,0.0,0.0,0.0,0.0,0.0,0.0,0.0,-2.5683,-2.5673,-2.5672,-2.566,-2.558,-2.5511,-2.5466,-2.5409,-2.5138,-2.5272,-2.5797,-2.5702,-2.5911,-2.6429,-2.7071,-2.7457,-2.7585,-2.7438,-2.7457,-2.7658,-2.8466,-2.8796,-2.8815,-2.8938,-2.8952,-2.8905,-2.8905,-2.8658,-2.8298,-2.8219,-2.8047,-2.7765,-2.7725,-2.747,-2.721,-2.721,-2.6954,-2.6691,-2.6691,-2.6691,-2.6691,-2.6691,-2.6894,-2.7418,-2.8687,-2.9214,-2.9702,-3.0937,-3.0717,-3.048,-3.1072,-3.119,-3.119,-3.119,-3.119,-3.119,-3.119,-3.119,-3.119,-3.119,-3.119,-3.119,-3.119,-3.119,-3.119,-3.119,-3.119,-3.119,-3.119,-3.119,-3.119,-3.119,-3.119,-3.119,-3.119,-3.119,-3.119,-3.119,-3.119,-3.119,-3.119,-3.119,-3.119,-3.1511,-3.2935,-3.4976,-3.6742,-3.6625,-3.5859,-3.5059,-3.4138,-3.3216,-3.2323,-3.2596,-3.275,-3.2006,-3.1852,0.0,0.0,0.0,0.0,0.0,0.0,0.0,0.0,0.0,0.0,0.0,0.0,0.0,0.0,-2.6191,-2.5679,-2.5622,-2.5605,-2.5584,-2.5521,-2.5453,-2.5399,-2.5409,-2.5138,-2.5,-2.4959,-2.53,-2.5478,-2.5568,-2.5678,-2.6098,-2.6722,-2.6007,-2.6117,-2.6833,-2.7622,-2.7952,-2.8026,-2.8741,-2.8791,-2.8471,-2.8471,-2.8264,-2.7926,-2.756,-2.7409,-2.7317,-2.6954,-2.6808,-2.6791,-2.6791,-2.6758,-2.6691,-2.6691,-2.6691,-2.6691,-2.6691,-2.7672,-2.8721,-2.896,-2.9973,-3.0954,-3.1157,-3.1123,-3.1072,-3.1173,-3.119,-3.119,-3.119,-3.119,-3.119,-3.119,-3.119,-3.119,-3.119,-3.119,-3.119,-3.119,-3.119,-3.119,-3.119,-3.119,-3.119,-3.119,-3.119,-3.119,-3.119,-3.119,-3.119,-3.119,-3.119,-3.119,-3.119,-3.119,-3.119,-3.119,-3.119,-3.119,-3.1099,-3.2524,-3.4155,-3.594,-3.614,-3.5567,-3.4273,-3.3652,-3.2965,-3.1568,-3.1157,-3.1032,-3.1025,-3.0602,0.0,0.0,0.0,0.0,0.0,0.0,0.0,0.0,0.0,0.0,0.0,0.0,0.0,0.0,-2.5918,-2.5671,-2.5592,-2.5601,-2.5562,-2.5441,-2.5427,-2.533,-2.5179,-2.4987,-2.4756,-2.4479,-2.4635,-2.4722,-2.4722,-2.4722,-2.5162,-2.5897,-2.555,-2.5605,-2.6007,-2.7273,-2.7679,-2.7554,-2.8349,-2.8438,-2.8129,-2.8129,-2.788,-2.753,-2.7348,-2.7147,-2.6939,-2.6758,-2.6691,-2.6691,-2.6691,-2.6691,-2.6691,-2.6691,-2.6996,-2.7334,-2.7334,-2.8146,-2.9093,-2.9516,-3.0108,-3.07,-3.1106,-3.119,-3.119,-3.119,-3.119,-3.119,-3.119,-3.119,-3.119,-3.119,-3.119,-3.119,-3.119,-3.119,-3.119,-3.119,-3.119,-3.119,-3.119,-3.119,-3.119,-3.119,-3.119,-3.119,-3.119,-3.119,-3.119,-3.119,-3.119,-3.119,-3.119,-3.1213,-3.1213,-3.119,-3.1213,-3.1213,-3.0856,-3.1914,-3.277,-3.5014,-3.5584,-3.5245,-3.401,-3.3555,-3.2969,0.0,-3.0394,-2.9911,-3.0183,-2.9467,0.0,0.0,0.0,0.0,0.0,0.0,0.0,0.0,0.0,0.0,0.0,0.0,0.0,0.0,-2.5679,-2.5634,-2.5544,-2.5543,-2.5505,-2.539,-2.537,-2.5252,-2.501,-2.4828,-2.4561,-2.419,-2.419,-2.419,-2.419,-2.419,-2.452,-2.5109,-2.5109,-2.5109,-2.5199,-2.653,-2.6991,-2.697,-2.7705,-2.7897,-2.7754,-2.7754,-2.75,-2.7147,-2.7147,-2.6971,-2.6691,-2.6691,-2.6691,-2.6691,-2.6691,-2.6691,-2.6725,-2.6928,-2.7385,-2.784,-2.8061,-2.8687,-2.9414,-2.9973,-3.0243,-3.0531,-3.1072,-3.119,-3.119,-3.119,-3.119,-3.119,-3.119,-3.119,-3.119,-3.119,-3.119,-3.119,-3.119,-3.119,-3.119,-3.119,-3.119,-3.119,-3.119,-3.119,-3.119,-3.119,-3.119,-3.119,-3.119,-3.124,-3.1244,-3.1244,-3.1232,-3.1206,-3.1179,-3.1194,-3.1594,-3.2292,-3.1539,-3.1232,-2.9863,-3.0194,-3.0403,-3.3828,-3.4672,-3.4654,-3.4634,-3.3984,-3.3164,-3.2305,-3.1328,-3.0423,-2.9699,0.0,0.0,0.0,0.0,0.0,0.0,0.0,0.0,0.0,0.0,0.0,0.0,0.0,0.0,0.0,-2.5601,-2.5553,-2.5428,-2.5409,-2.539,-2.5303,-2.5303,-2.5203,-2.501,-2.4678,-2.441,-2.419,-2.419,-2.419,-2.419,-2.419,-2.4226,-2.4263,-2.4263,-2.4263,-2.4299,-2.4817,-2.5443,-2.6111,-2.6658,-2.7091,-2.7317,-2.7317,-2.7083,-2.6725,-2.6725,-2.6725,-2.6691,-2.6691,-2.6691,-2.6691,-2.6691,-2.6691,-2.6843,-2.7571,-2.7755,-2.7994,-2.8738,-2.9482,-3.0057,-3.0091,-3.0632,-3.114,-3.119,-3.119,-3.119,-3.119,-3.119,-3.119,-3.119,-3.119,-3.119,-3.119,-3.119,-3.119,-3.119,-3.119,-3.119,-3.119,-3.119,-3.119,-3.119,-3.119,-3.119,-3.119,-3.119,-3.119,-3.119,-3.1266,-3.1271,-3.1271,-3.1239,-3.1213,-3.1204,-3.1221,-3.2628,-3.5282,-3.2503,-3.1292,-2.8672,-2.9336,-3.0095,-3.2467,-3.3458,-3.3836,-3.3865,-3.3613,-3.3164,-3.2363,-3.1016,-2.9724,-2.8824,0.0,0.0,0.0,0.0,0.0,0.0,0.0,0.0,0.0,0.0,0.0,0.0,0.0,0.0,0.0,0.0,-2.5543,-2.5409,-2.5409,-2.537,-2.5303,-2.5303,-2.516,-2.4864,-2.4493,-2.4266,-2.419,-2.419,-2.419,-2.419,-2.419,-2.4074,-2.3876,-2.3876,-2.3876,-2.393,-2.4621,-2.5075,-2.5419,-2.6142,-2.6615,-2.6906,-2.6906,-2.6808,-2.6691,-2.6691,-2.6691,-2.6691,-2.6691,-2.6691,-2.6691,-2.6691,-2.6691,-2.6759,-2.7012,-2.7807,-2.8636,-2.8943,-2.9888,-3.0818,-3.0818,-3.1004,-3.119,-3.119,-3.119,-3.119,-3.119,-3.119,-3.119,-3.119,-3.119,-3.119,-3.119,-3.119,-3.119,-3.119,-3.119,-3.119,-3.119,-3.119,-3.119,-3.119,-3.119,-3.119,-3.119,-3.0838,-3.0601,-3.0601,-3.0533,-3.0758,-3.1342,-3.137,-3.1322,-3.1183,-3.3113,-3.4575,-3.5568,-3.4535,-3.2238,-2.7626,-2.8428,-2.958,-3.1606,-3.2106,-3.2383,-3.3535,-3.3164,-3.248,-3.2246,-3.1055,-2.9668,-2.8457,-2.815,0.0,0.0,0.0,0.0,0.0,0.0,0.0,0.0,0.0,0.0,0.0,0.0,0.0,0.0,0.0,0.0,-2.537,-2.537,-2.5331,-2.5203,-2.5084,-2.4923,-2.47,-2.4357,-2.419,-2.419,-2.419,-2.419,-2.4208,-2.4094,-2.3917,-2.3692,-2.3566,-2.3522,-2.3558,-2.3986,-2.4363,-2.4711,-2.5355,-2.5914,-2.6353,-2.6607,-2.6691,-2.6691,-2.6691,-2.6691,-2.6691,-2.6691,-2.6691,-2.6691,-2.6691,-2.6691,-2.681,-2.7317,-2.8197,-2.9093,-2.96,-3.0463,-3.119,-3.119,-3.119,-3.119,-3.119,-3.119,-3.119,-3.119,-3.119,-3.119,-3.119,-3.119,-3.119,-3.119,-3.119,-3.119,-3.119,-3.119,-3.119,-3.119,-3.119,-3.119,-3.119,-3.119,-3.1095,-3.0918,-3.0518,-3.0208,-3.0038,-3.0012,-3.0339,-3.0959,-3.1334,-3.1448,-3.1337,-3.3249,-3.425,-3.4219,-3.423,-3.2307,0.0,0.0,0.0,-3.1184,-3.0622,-3.0371,-3.3711,-3.2617,-3.1113,-3.2012,-3.1484,-3.0332,-2.8652,-2.8262,0.0,0.0,0.0,0.0,0.0,0.0,0.0,0.0,0.0,0.0,0.0,0.0,0.0,0.0,-2.5409,-2.536,-2.5303,-2.5293,-2.5203,-2.501,-2.4663,-2.4495,-2.4495,-2.4303,-2.419,-2.419,-2.419,-2.419,-2.417,-2.3837,-2.3671,-2.3649,-2.3323,-2.3165,-2.3141,-2.2822,-2.318,-2.3912,-2.4339,-2.4949,-2.5693,-2.642,-2.6691,-2.6691,-2.6691,-2.6691,-2.6691,-2.6691,-2.6691,-2.6691,-2.6691,-2.6708,-2.7029,-2.8518,-2.9011,-2.9347,-3.0818,-3.119,-3.119,-3.119,-3.119,-3.119,-3.119,-3.119,-3.119,-3.119,-3.119,-3.119,-3.119,-3.119,-3.119,-3.119,-3.119,-3.119,-3.119,-3.119,-3.119,-3.119,-3.119,-3.119,-3.119,-3.1151,-3.0878,-3.0293,-3.0251,-2.9995,-2.9406,-2.9824,-3.0058,-3.0058,-3.091,-3.1407,-3.1524,-3.1486,-3.1498,-3.1482,-3.1492,-3.1471,-2.7885,0.0,0.0,0.0,0.0,0.0,0.0,0.0,-3.0332,-3.1875,-3.1016,-2.9805,-2.9336,-2.8677,0.0,0.0,0.0,0.0,0.0,0.0,0.0,0.0,0.0,0.0,0.0,0.0,0.0,0.0,-2.537,-2.5311,-2.5088,-2.5,-2.491,-2.4855,-2.4604,-2.4495,-2.4495,-2.4303,-2.419,-2.4208,-2.3937,-2.3837,-2.3816,-2.35,-2.3212,-2.2972,-2.2873,-2.273,-2.2544,-2.266,-2.302,-2.359,-2.4248,-2.4949,-2.5693,-2.642,-2.6691,-2.6691,-2.6691,-2.6691,-2.6691,-2.6691,-2.6691,-2.6691,-2.6691,-2.708,-2.7588,-2.8027,-2.8941,-3.0006,-3.0954,-3.119,-3.119,-3.119,-3.119,-3.119,-3.119,-3.119,-3.119,-3.119,-3.119,-3.119,-3.119,-3.119,-3.119,-3.119,-3.119,-3.119,-3.119,-3.119,-3.119,-3.119,-3.0797,-3.0559,-3.0559,-3.0166,-2.9805,-2.9673,-2.9225,-2.9013,-2.8967,-2.854,-2.8301,-2.8301,-2.8565,-2.9601,-3.1494,-3.15,-3.1526,-3.1516,-3.149,-3.0467,-2.8318,-2.8591,-2.9193,-2.9088,0.0,0.0,-3.0761,-3.0014,-2.9411,0.0,-3.0757,-2.9961,-2.9629,-2.9132,0.0,0.0,0.0,0.0,0.0,0.0,0.0,0.0,0.0,0.0,0.0,-2.5409,-2.539,-2.5303,-2.5262,-2.5145,-2.493,-2.4771,-2.467,-2.467,-2.4478,-2.4375,-2.4375,-2.4266,-2.4132,-2.3996,-2.3795,-2.3628,-2.3477,-2.3141,-2.2898,-2.273,-2.259,-2.2436,-2.231,-2.2463,-2.2692,-2.3038,-2.4069,-2.4746,-2.527,-2.6302,-2.6691,-2.6691,-2.6691,-2.6691,-2.6691,-2.6691,-2.6691,-2.6691,-2.6691,-2.6996,-2.7486,-2.8129,-2.9397,-3.0666,-3.1089,-3.119,-3.119,-3.119,-3.119,-3.119,-3.119,-3.1015,-3.0878,-3.1151,-3.119,-3.119,-3.119,-3.1015,-3.0821,-3.0821,-3.0617,-3.0435,-3.0435,-3.0435,-3.0435,-3.0435,-3.0123,-2.9935,-2.9935,-2.9585,-2.9271,-2.9042,-2.8685,-2.8462,-2.8296,-2.7839,-2.7612,-2.7612,-2.7607,-2.8869,-3.1513,-3.1507,-3.1482,-3.1524,-3.1516,-3.0083,-2.8852,-2.8967,-2.966,-3.0256,-2.8805,0.0,-3.0752,-2.9659,-2.8502,0.0,-3.0287,-3.0075,-2.9473,-2.9314,0.0,0.0,0.0,0.0,0.0,0.0,0.0,0.0,0.0,0.0,-2.539,-2.5322,-2.5284,-2.5264,-2.5065,-2.4885,-2.4775,-2.4594,-2.4461,-2.4461,-2.4266,-2.4133,-2.4133,-2.4094,-2.3937,-2.3631,-2.3628,-2.3437,-2.3141,-2.2797,-2.2678,-2.273,-2.2432,-2.231,-2.231,-2.231,-2.231,-2.2462,-2.3917,-2.4506,-2.4692,-2.615,-2.6691,-2.6691,-2.6691,-2.6691,-2.6691,-2.6691,-2.6691,-2.6691,-2.6691,-2.6776,-2.7215,-2.8789,-3.0176,-3.119,-3.119,-3.119,-3.119,-3.1112,-3.1151,-3.1151,-3.1015,-3.0617,-3.0435,-3.0918,-3.1015,-3.1015,-3.1015,-3.0576,-3.0208,-3.0208,-2.9761,-2.9406,-2.9406,-2.9406,-2.9406,-2.9406,-2.9316,-2.9316,-2.9316,-2.9225,-2.895,-2.8415,-2.8415,-2.814,-2.7625,-2.7615,-2.7715,-2.8037,-2.8038,-2.9204,-3.1482,-3.1482,-3.1482,-3.1524,-3.153,-3.0111,-3.2006,-3.2045,-3.1872,-3.0698,-3.0564,0.0,-2.904,-2.8367,-2.8136,0.0,-2.8048,-2.7731,-2.8335,-2.7847,0.0,0.0,0.0,0.0,0.0,0.0,0.0,0.0,0.0,0.0,-2.5322,-2.5303,-2.5224,-2.5077,-2.478,-2.4591,-2.4559,-2.4357,-2.4266,-2.4266,-2.3958,-2.3795,-2.3795,-2.3522,-2.3369,-2.3282,-2.3021,-2.2873,-2.2797,-2.2517,-2.2405,-2.2405,-2.2338,-2.231,-2.231,-2.231,-2.231,-2.2462,-2.3917,-2.4506,-2.4692,-2.615,-2.6691,-2.6691,-2.6691,-2.6691,-2.6691,-2.6691,-2.6691,-2.6691,-2.6691,-2.7265,-2.8325,-3.0205,-3.097,-3.119,-3.119,-3.119,-3.1072,-3.0601,-3.0838,-3.0918,-2.9935,-3.0038,-3.0208,-2.9805,-2.9761,-2.9761,-2.9761,-2.9673,-2.9585,-2.9585,-2.9496,-2.9406,-2.9406,-2.9406,-2.9406,-2.9406,-2.8966,-2.8701,-2.8701,-2.8222,-2.7894,-2.776,-2.776,-2.771,-2.761,-2.7595,-2.8562,-3.0676,-3.0739,-3.0986,-3.1482,-3.1482,-3.1482,-3.1524,-3.153,-3.0093,-3.3026,-3.2891,-3.2699,-3.1872,0.0,0.0,0.0,-2.8854,-2.8324,-2.9621,-2.8563,-2.7808,-2.9116,0.0,-2.7493,0.0,0.0,0.0,0.0,0.0,0.0,0.0,0.0,0.0,-2.5341,-2.5214,-2.5041,-2.4762,-2.4588,-2.4444,-2.4357,-2.4114,-2.3937,-2.3937,-2.3628,-2.3437,-2.3437,-2.3282,-2.3117,-2.2947,-2.2772,-2.2634,-2.25,-2.236,-2.231,-2.231,-2.231,-2.231,-2.231,-2.231,-2.231,-2.2462,-2.3917,-2.4506,-2.4692,-2.615,-2.6691,-2.6691,-2.6691,-2.6691,-2.6691,-2.6691,-2.6691,-2.6691,-2.6691,-2.7417,-2.8508,-3.0027,-3.0789,-3.119,-3.119,-3.0975,-3.0658,-3.0393,-3.0293,-3.0123,-2.954,-2.9406,-2.9316,-2.8996,-2.8732,-2.867,-2.9316,-2.9134,-2.8966,-2.8966,-2.8685,-2.8496,-2.8496,-2.8496,-2.8496,-2.8496,-2.8222,-2.8042,-2.8042,-2.776,-2.7625,-2.7625,-2.7625,-2.7625,-2.7625,-2.7579,-2.8857,-3.1454,-3.152,-3.1504,-3.1482,-3.1482,-3.1482,-3.1524,-3.15,-3.0093,-3.3583,0.0,0.0,0.0,0.0,-3.116,0.0,0.0,0.0,-3.0602,-2.9248,0.0,0.0,0.0,0.0,0.0,0.0,0.0,0.0,0.0,0.0,0.0,0.0,0.0,0.0,-2.5041,-2.479,-2.451,-2.4461,-2.4338,-2.4113,-2.3855,-2.3671,-2.3628,-2.3277,-2.3093,-2.3093,-2.3063,-2.289,-2.2608,-2.2608,-2.25,-2.231,-2.231,-2.2237,-2.218,-2.218,-2.2106,-2.2049,-2.2049,-2.2049,-2.2212,-2.3688,-2.4388,-2.4675,-2.5998,-2.6573,-2.6691,-2.6691,-2.6691,-2.6691,-2.6691,-2.6691,-2.6742,-2.6911,-2.755,-2.844,-2.9661,-3.0556,-3.1134,-3.1021,-3.0642,-3.0251,-3.0038,-2.9673,-2.9316,-2.9088,-2.8779,-2.8479,-2.8319,-2.7944,-2.7894,-2.8904,-2.8638,-2.8334,-2.8334,-2.7894,-2.7625,-2.7625,-2.7625,-2.7625,-2.7625,-2.7625,-2.7625,-2.7625,-2.7625,-2.7625,-2.7625,-2.7625,-2.7625,-2.7625,-2.8083,-2.9341,-3.1477,-3.1509,-3.1482,-3.1482,-3.1482,-3.1482,-3.1524,-3.1509,-3.035,0.0,0.0,0.0,0.0,-3.3378,0.0,0.0,0.0,-2.9775,-2.8582,0.0,0.0,0.0,0.0,0.0,0.0,0.0,0.0,0.0,0.0,0.0,0.0,0.0,0.0,0.0,-2.4733,-2.4543,-2.4512,-2.4321,-2.4095,-2.3756,-2.3714,-2.3566,-2.3277,-2.2923,-2.2772,-2.2772,-2.2517,-2.236,-2.2349,-2.2349,-2.2321,-2.231,-2.231,-2.2061,-2.1688,-2.1688,-2.1477,-2.1166,-2.1166,-2.1166,-2.131,-2.2889,-2.3917,-2.4608,-2.5423,-2.6133,-2.6691,-2.6691,-2.6691,-2.6691,-2.6691,-2.6691,-2.6877,-2.775,-2.8101,-2.8609,-3.0514,-3.1089,-3.1038,-3.0328,-3.021,-3.0038,-2.8966,-2.9042,-2.9088,-2.8042,-2.8174,-2.8319,-2.781,-2.7675,-2.761,-2.776,-2.776,-2.771,-2.771,-2.761,-2.7625,-2.7625,-2.7625,-2.7625,-2.7625,-2.7625,-2.7625,-2.7625,-2.7625,-2.7625,-2.7625,-2.7625,-2.7625,-2.7625,-2.9841,-3.1226,-3.1475,-3.1519,-3.1482,-3.1482,-3.1482,-3.1482,-3.1524,-3.1509,-3.1362,0.0,0.0,0.0,0.0,0.0,0.0,-3.1095,0.0,-2.9179,0.0,0.0,0.0,0.0,0.0,0.0,0.0,-2.6256,0.0,0.0,0.0,0.0,0.0,0.0,0.0,0.0,0.0,0.0,0.0,-2.4732,-2.4483,-2.4396,-2.4035,-2.3538,-2.294,-2.2616,-2.2463,-2.2463,-2.2349,-2.231,-2.231,-2.231,-2.2163,-2.1899,-2.1899,-2.1675,-2.1244,-2.1244,-2.115,-2.0991,-2.0991,-2.0991,-2.1103,-2.2166,-2.3031,-2.3868,-2.5311,-2.603,-2.6297,-2.6297,-2.6297,-2.6245,-2.5944,-2.5819,-2.6032,-2.7148,-2.7892,-2.858,-2.9543,-2.9821,-2.9766,-2.9691,-2.9448,-2.9134,-2.8606,-2.8415,-2.8222,-2.771,-2.781,-2.791,-2.766,-2.7625,-2.7625,-2.7625,-2.7625,-2.7625,-2.7625,-2.7625,-2.7625,-2.7625,-2.7625,-2.7625,-2.7625,-2.7625,-2.7625,-2.7625,-2.7625,-2.7625,-2.7625,-2.806,-2.8151,-2.76,-3.0126,-3.1511,-3.1516,-3.1522,-3.1482,-3.1482,-3.1471,-3.1531,-3.1531,-3.1515,-3.153,-3.5705,0.0,0.0,0.0,0.0,0.0,0.0,0.0,0.0,0.0,0.0,0.0,0.0,0.0,-2.5659,-2.5447,0.0,-2.6296,0.0,0.0,0.0,0.0,0.0,0.0,0.0,0.0,0.0,0.0,0.0,0.0,-2.4932,-2.4279,-2.3594,-2.2926,-2.2518,-2.2237,-2.2106,-2.2106,-2.2049,-2.1945,-2.1945,-2.1781,-2.143,-2.143,-2.1213,-2.0797,-2.0797,-2.0764,-2.0632,-2.0632,-2.0632,-2.0726,-2.1588,-2.2232,-2.2938,-2.481,-2.5615,-2.5762,-2.5762,-2.5762,-2.5726,-2.5335,-2.531,-2.5662,-2.6776,-2.7727,-2.8527,-2.8881,-2.8946,-2.8987,-2.9132,-2.8826,-2.8479,-2.8286,-2.791,-2.7625,-2.7625,-2.7625,-2.7625,-2.7625,-2.7625,-2.7625,-2.7625,-2.7625,-2.7625,-2.7625,-2.7625,-2.7625,-2.7625,-2.7625,-2.7625,-2.7625,-2.7625,-2.7625,-2.7625,-2.7625,-2.7625,-2.7625,-2.8165,-2.8233,-2.7621,-3.0138,-3.1516,-3.15,-3.1471,-3.1531,-3.1531,-3.1511,-3.1029,-3.0125,-3.1058,-3.1014,0.0,0.0,0.0,-3.3651,0.0,0.0,0.0,0.0,-3.1121,0.0,0.0,0.0,0.0,-2.7178,-2.6313,-2.5524,-2.5486,0.0,0.0,0.0,0.0,0.0,0.0,0.0,0.0,0.0,0.0,0.0,0.0,0.0,-2.4975,-2.4296,-2.3732,-2.3388,-2.2682,-2.2077,-2.1628,-2.1612,-2.143,-2.1023,-2.1023,-2.1023,-2.1023,-2.1023,-2.0748,-2.0314,-2.0314,-2.0089,-1.9747,-1.9747,-1.9747,-1.9882,-2.118,-2.1704,-2.1952,-2.3563,-2.4607,-2.5221,-2.5221,-2.5221,-2.5221,-2.5221,-2.5623,-2.6326,-2.707,-2.7774,-2.8478,-2.9182,-2.939,-2.9255,-2.8701,-2.8511,-2.8319,-2.776,-2.761,-2.7625,-2.7625,-2.7625,-2.7625,-2.7625,-2.7625,-2.7625,-2.7625,-2.7625,-2.7625,-2.7625,-2.7625,-2.7625,-2.7625,-2.7625,-2.7625,-2.7625,-2.7625,-2.7625,-2.7625,-2.7625,-2.7625,-2.7625,-2.7655,-2.7632,-2.7585,-3.0119,-3.1498,-3.1523,-3.1488,-3.1521,-3.1521,-3.1473,-2.9848,-2.6754,-2.9996,-2.9743,0.0,0.0,-3.3886,-3.2705,0.0,0.0,0.0,0.0,0.0,0.0,0.0,0.0,0.0,-2.7246,-2.6448,-2.5543,-2.5486,-2.5563,0.0,0.0,0.0,0.0,0.0,0.0,0.0,0.0,0.0,0.0,-2.5397,0.0,0.0,-2.5305,-2.453,-2.3427,-2.2869,-2.2258,-2.1628,-2.1337,-2.1118,-2.0991,-2.0991,-2.0829,-2.055,-2.055,-2.028,-1.9909,-1.9909,-1.9854,-1.969,-1.969,-1.969,-1.9809,-2.1171,-2.1695,-2.1894,-2.3646,-2.4469,-2.4672,-2.4672,-2.443,-2.4158,-2.4158,-2.4591,-2.5295,-2.5953,-2.6627,-2.7301,-2.8023,-2.8222,-2.8174,-2.7944,-2.7894,-2.786,-2.7675,-2.7625,-2.7625,-2.7625,-2.7625,-2.7625,-2.7625,-2.7625,-2.7625,-2.7625,-2.7625,-2.7625,-2.7625,-2.7625,-2.7625,-2.7625,-2.7625,-2.7625,-2.7625,-2.7625,-2.7625,-2.7625,-2.7625,-2.7625,-2.7625,-2.7617,-2.7598,-2.7599,-3.0119,-3.0464,-2.8227,-2.8173,-2.8225,-2.8225,-2.819,-2.7603,-2.6531,-2.7643,-2.7577,-3.4238,-3.3828,0.0,-3.2226,-3.1574,0.0,-2.9612,0.0,0.0,0.0,0.0,0.0,0.0,-2.7798,-2.6968,-2.6073,-2.5746,-2.5597,0.0,-2.5527,0.0,0.0,0.0,0.0,0.0,0.0,-2.465,-2.5739,-2.5612,0.0,0.0,0.0,-2.5169,-2.4205,-2.3231,-2.2389,-2.1774,-2.1103,-2.0665,-2.0548,-2.0548,-2.0364,-2.0089,-2.0089,-1.9945,-1.969,-1.969,-1.969,-1.969,-1.969,-1.969,-1.9809,-2.1171,-2.1695,-2.1884,-2.3518,-2.4116,-2.4116,-2.4116,-2.3879,-2.3595,-2.3595,-2.4059,-2.4701,-2.542,-2.6063,-2.6722,-2.738,-2.7625,-2.7625,-2.7625,-2.7625,-2.7625,-2.7625,-2.7625,-2.7625,-2.7625,-2.7625,-2.7625,-2.7625,-2.7625,-2.7625,-2.7625,-2.7625,-2.7625,-2.7625,-2.7625,-2.7625,-2.7625,-2.7625,-2.7625,-2.7625,-2.7625,-2.7625,-2.7625,-2.7593,-2.758,-2.758,-2.7569,-2.714,-2.6036,-2.7607,-2.7893,-2.6525,-2.6504,-2.6466,-2.6466,-2.6486,-2.6493,-2.6493,-2.6476,-2.6531]}]]